[[{"header":{"parameterUnit":"m.s-1","parameterCategory":1,"la1":30.6,"la2":29.2853,"lo1":-89.7004,"lo2":-87.6739,"dy":0.0162,"dx":0.0183,"nx":112,"ny":82,"refTime":"2023-05-11T00:00:00:Z","depth":0,"parameterNumber":2,"parameterNumberName":"U-component_of_WINDS"},"data":[0.0,0.0,0.0,0.0,0.0,0.0,0.0,0.0,0.0,0.0,0.0,0.0,0.0,0.0,0.0,0.0,0.0,0.0,0.0,0.0,0.0,0.0,0.0,0.0,0.0,0.0,0.0,0.0,0.0,0.0,0.0,0.0,0.0,0.0,0.0,0.0,0.0,0.0,0.0,0.0,0.0,0.0,0.0,0.0,0.0,0.0,0.0,0.0,0.0,0.0,0.0,0.0,0.0,0.0,0.0,0.0,0.0,0.0,0.0,0.0,0.0,0.0,0.0,0.0,0.0,0.0,0.0,0.0,0.0,0.0,0.0,0.0,0.0,0.0,0.0,0.0,0.0,0.0,0.0,0.0,0.0,0.0,0.0,0.0,0.0,0.0,0.0,0.0,0.0,0.0,0.5975,0.5509,0.5717,0.5888,0.5896,0.6114,0.6399,0.6751,0.0,0.0,0.0,0.0,0.0,0.0,0.0,0.0,0.0,0.0,0.0,0.0,0.0,0.0,0.0,0.0,0.0,0.0,0.0,0.0,0.0,0.0,0.0,0.0,0.0,0.0,0.0,0.0,0.0,0.0,0.0,0.0,0.0,0.0,0.0,0.0,0.0,0.0,0.0,0.0,0.0,0.0,0.0,0.0,0.0,0.0,0.0,0.0,0.0,0.0,0.0,0.0,0.0,0.0,0.0,0.0,0.0,0.0,0.0,0.0,0.0,0.0,0.0,0.0,0.0,0.0,0.0,0.0,0.0,0.0,0.0,0.0,0.0,0.0,0.0,0.0,0.0,0.0,0.0,0.0,0.0,0.0,0.0,0.0,0.0,0.0,0.0,0.0,0.0,0.0,0.0,0.0,0.0,0.0,0.0,0.0,0.0,0.0,0.0,0.0,0.0,0.0,0.0,0.0,0.5897,0.5753,0.5782,0.5842,0.5896,0.5982,0.6214,0.6603,0.0,0.0,0.0,0.0,0.0,0.0,0.0,0.0,0.0,0.0,0.0,0.0,0.0,0.0,0.0,0.0,0.0,0.0,0.0,0.0,0.0,0.0,0.0,0.0,0.0,0.0,0.0,0.0,0.0,0.0,0.0,0.0,0.0,0.0,0.0,0.0,0.0,0.0,0.0,0.0,0.0,0.0,0.0,0.0,0.0,0.0,0.0,0.0,0.0,0.0,0.0,0.0,0.0,0.0,0.0,0.0,0.0,0.0,0.0,0.0,0.0,0.0,0.0,0.0,0.0,0.0,0.0,0.0,0.0,0.0,0.0,0.0,0.0,0.0,0.0,0.0,0.0,0.0,0.0,0.0,0.0,0.0,0.0,0.0,0.0,0.0,0.0,0.0,0.0,0.0,0.0,0.0,0.0,0.0,0.0,0.0,0.0,0.0,0.0,0.0,0.0,0.0,0.0,0.574,0.5733,0.5601,0.5617,0.5655,0.5678,0.5811,0.6044,0.6413,0.6787,0.0,0.0,0.0,0.0,0.0,0.0,0.0,0.0,0.0,0.0,0.0,0.0,0.0,0.0,0.0,0.0,0.0,0.0,0.0,0.0,0.0,0.0,0.0,0.0,0.0,0.0,0.0,0.0,0.0,0.0,0.0,0.0,0.0,0.0,0.0,0.0,0.0,0.0,0.0,0.0,0.0,0.0,0.0,0.0,0.0,0.0,0.0,0.0,0.0,0.0,0.0,0.0,0.0,0.0,0.0,0.0,0.0,0.0,0.0,0.0,0.0,0.0,0.0,0.0,0.0,0.0,0.0,0.0,0.0,0.0,0.0,0.0,0.0,0.0,0.0,0.0,0.0,0.0,0.0,0.0,0.0,0.0,0.0,0.0,0.0,0.0,0.0,0.0,0.0,0.0,0.0,0.0,0.0,0.0,0.0,0.0,0.0,0.0,0.0,0.0,0.0,0.0,0.5467,0.5497,0.5319,0.5397,0.5452,0.5452,0.5624,0.5895,0.6301,0.6653,0.0,0.0,0.0,0.0,0.0,0.0,0.0,0.0,0.0,0.0,0.0,0.0,0.0,0.0,0.0,0.0,0.0,0.0,0.0,0.0,0.0,0.0,0.0,0.0,0.0,0.0,0.0,0.0,0.0,0.0,0.0,0.0,0.0,0.0,0.0,0.0,0.0,0.0,0.0,0.0,0.0,0.0,0.0,0.0,0.0,0.0,0.0,0.0,0.0,0.0,0.0,0.0,0.0,0.0,0.0,0.0,0.0,0.0,0.0,0.0,0.0,0.0,0.0,0.0,0.0,0.0,0.0,0.0,0.0,0.0,0.0,0.0,0.0,0.0,0.0,0.0,0.0,0.0,0.0,0.0,0.0,0.0,0.0,0.0,0.0,0.0,0.0,0.0,0.0,0.0,0.0,0.0,0.0,0.0,0.0,0.0,0.0,0.0,0.0,0.0,0.0,0.0,0.5131,0.5114,0.5039,0.5198,0.5309,0.5309,0.5443,0.577,0.6356,0.6769,0.0,0.0,0.0,0.0,0.0,0.0,0.0,0.0,0.0,0.0,0.0,0.0,0.0,0.0,0.0,0.0,0.0,0.0,0.0,0.0,0.0,0.0,0.0,0.0,0.0,0.0,0.0,0.0,0.0,0.0,0.0,0.0,0.0,0.0,0.0,0.0,0.0,0.0,0.0,0.0,0.0,0.0,0.0,0.0,0.0,0.0,0.0,0.0,0.0,0.0,0.0,0.0,0.0,0.0,0.0,0.0,0.0,0.0,0.0,0.0,0.0,0.0,0.0,0.0,0.0,0.0,0.0,0.0,0.0,0.0,0.0,0.0,0.0,0.0,0.0,0.0,0.0,0.0,0.0,0.0,0.0,0.0,0.0,0.0,0.0,0.0,0.0,0.0,0.0,0.0,0.0,0.0,0.0,0.0,0.0,0.0,0.0,0.0,0.0,0.0,0.0,0.0,0.4758,0.4748,0.0,0.473,0.482,0.4858,0.5025,0.5415,0.6107,0.0,0.0,0.0,0.0,0.0,0.0,0.0,0.0,0.0,0.0,0.0,0.0,0.0,0.0,0.0,0.0,0.0,0.0,0.0,0.0,0.0,0.0,0.0,0.0,0.0,0.0,0.0,0.0,0.0,0.0,0.0,0.0,0.0,0.0,0.0,0.0,0.0,0.0,0.0,0.0,0.0,0.0,0.0,0.0,0.0,0.0,0.0,0.0,0.0,0.0,0.0,0.0,0.0,0.0,0.0,0.0,0.0,0.0,0.0,0.0,0.0,0.0,0.0,0.0,0.0,0.0,0.0,0.0,0.0,0.0,0.0,0.0,0.0,0.0,0.0,0.0,0.0,0.0,0.0,0.0,0.0,0.0,0.0,0.0,0.0,0.0,0.0,0.0,0.0,0.0,0.0,0.0,0.0,0.0,0.0,0.0,0.0,0.0,0.0,0.0,0.0,0.0,0.4404,0.4417,0.4398,0.0,0.4377,0.4452,0.4505,0.4668,0.512,0.5947,0.0,0.0,0.0,0.0,0.0,0.0,0.0,0.0,0.0,0.0,0.0,0.0,0.0,0.0,0.0,0.0,0.0,0.0,0.0,0.0,0.0,0.0,0.0,0.0,0.0,0.0,0.0,0.0,0.0,0.0,0.0,0.0,0.0,0.0,0.0,0.0,0.0,0.0,0.0,0.0,0.0,0.0,0.0,0.0,0.0,0.0,0.0,0.0,0.0,0.0,0.0,0.0,0.0,0.0,0.0,0.0,0.0,0.0,0.0,0.0,0.0,0.0,0.0,0.0,0.0,0.0,0.0,0.0,0.0,0.0,0.0,0.0,0.0,0.0,0.0,0.0,0.0,0.0,0.0,0.0,0.0,0.0,0.0,0.0,0.0,0.0,0.0,0.0,0.0,0.0,0.0,0.0,0.0,0.0,0.0,0.0,0.0,0.0,0.0,0.0,0.0,0.0,0.4119,0.4093,0.4064,0.4002,0.4167,0.4296,0.4296,0.4419,0.4923,0.0,0.0,0.0,0.0,0.0,0.0,0.0,0.0,0.0,0.0,0.0,0.0,0.0,0.0,0.0,0.0,0.0,0.0,0.0,0.0,0.0,0.0,0.0,0.0,0.0,0.0,0.0,0.0,0.0,0.0,0.0,0.0,0.0,0.0,0.0,0.0,0.0,0.0,0.0,0.0,0.0,0.0,0.0,0.0,0.0,0.0,0.0,0.0,0.0,0.0,0.0,0.0,0.0,0.0,0.0,0.0,0.0,0.0,0.0,0.0,0.0,0.0,0.0,0.0,0.0,0.0,0.0,0.0,0.0,0.0,0.0,0.0,0.0,0.0,0.0,0.0,0.0,0.0,0.0,0.0,0.0,0.0,0.0,0.0,0.0,0.0,0.0,0.0,0.0,0.0,0.0,0.0,0.0,0.0,0.0,0.0,0.0,0.0,0.0,0.0,0.0,0.0,0.0,0.3972,0.3714,0.3525,0.3508,0.3684,0.3831,0.3871,0.4083,0.463,0.559,0.0,0.0,0.0,0.0,0.0,0.0,0.0,0.0,0.0,0.0,0.0,0.0,0.0,0.0,0.0,0.0,0.0,0.0,0.0,0.0,0.0,0.0,0.0,0.0,0.0,0.0,0.0,0.0,0.0,0.0,0.0,0.0,0.0,0.0,0.0,0.0,0.0,0.0,0.0,0.0,0.0,0.0,0.0,0.0,0.0,0.0,0.0,0.0,0.0,0.0,0.0,0.0,0.0,0.0,0.0,0.0,0.0,0.0,0.0,0.0,0.0,0.0,0.0,0.0,0.0,0.0,0.0,0.0,0.0,0.0,0.0,0.0,0.0,0.0,0.0,0.0,0.0,0.0,0.0,0.0,0.0,0.0,0.0,0.0,0.0,0.0,0.0,0.0,0.0,0.0,0.0,0.0,0.0,0.0,0.0,0.0,0.0,0.0,0.0,0.0,0.0,0.0,0.3676,0.3452,0.3302,0.3295,0.3455,0.3602,0.3688,0.3901,0.4384,0.5244,0.0,0.0,0.0,0.0,0.0,0.0,0.0,0.0,0.0,0.0,0.0,0.0,0.0,0.0,0.0,0.0,0.0,0.0,0.0,0.0,0.0,0.0,0.0,0.0,0.0,0.0,0.0,0.0,0.0,0.0,0.0,0.0,0.0,0.0,0.0,0.0,0.0,0.0,0.0,0.0,0.0,0.0,0.0,0.0,0.0,0.0,0.0,0.0,0.0,0.0,0.0,0.0,0.0,0.0,0.0,0.0,0.0,0.0,0.0,0.0,0.0,0.0,0.0,0.0,0.0,0.0,0.0,0.0,0.0,0.0,0.0,0.0,0.0,0.0,0.0,0.0,0.0,0.0,0.0,0.0,0.0,0.0,0.0,0.0,0.0,0.0,0.0,0.0,0.0,0.0,0.0,0.0,0.0,0.0,0.0,0.0,0.0,0.0,0.0,0.0,0.0,0.0,0.334,0.3278,0.3272,0.3298,0.344,0.359,0.3719,0.3872,0.4248,0.4954,0.0,0.0,0.0,0.0,0.0,0.0,0.0,0.0,0.0,0.0,0.0,0.0,0.0,0.0,0.0,0.0,0.0,0.0,0.0,0.0,0.0,0.0,0.0,0.0,0.0,0.0,0.0,0.0,0.0,0.0,0.0,0.0,0.0,0.0,0.0,0.0,0.0,0.0,0.0,0.0,0.0,0.0,0.0,0.0,0.0,0.0,0.0,0.0,0.0,0.0,0.0,0.0,0.0,0.0,0.0,0.0,0.0,0.0,0.0,0.0,0.5178,0.0,0.0,0.0,0.0,0.0,0.0,0.0,0.0,0.0,0.0,0.0,0.0,0.0,0.0,0.0,0.0,0.0,0.0,0.0,0.0,0.0,0.0,0.0,0.0,0.0,0.0,0.0,0.0,0.0,0.0,0.0,0.0,0.0,0.0,0.0,0.0,0.0,0.0,0.0,0.0,0.0,0.3303,0.3115,0.3069,0.3279,0.3612,0.3849,0.3928,0.4206,0.455,0.4978,0.507,0.0,0.0,0.0,0.0,0.0,0.0,0.0,0.0,0.0,0.0,0.0,0.0,0.0,0.0,0.0,0.0,0.0,0.0,0.0,0.0,0.0,0.0,0.0,0.0,0.0,0.0,0.0,0.0,0.0,0.0,0.0,0.0,0.0,0.0,0.0,0.0,0.0,0.0,0.0,0.0,0.0,0.0,0.0,0.0,0.0,0.0,0.0,0.0,0.0,0.0,0.0,0.0,0.0,0.0,0.0,0.0,0.0,0.0,0.0,0.0,0.5068,0.0,0.0,0.0,0.0,0.0,0.0,0.0,0.0,0.0,0.0,0.0,0.0,0.0,0.0,0.0,0.0,0.0,0.0,0.0,0.0,0.0,0.0,0.0,0.0,0.0,0.0,0.0,0.0,0.0,0.0,0.0,0.0,0.0,0.0,0.0,0.0,0.0,0.0,0.0,0.0,0.2918,0.2741,0.2675,0.2849,0.3195,0.3484,0.365,0.3856,0.4167,0.463,0.4694,0.0,0.0,0.0,0.0,0.0,0.0,0.0,0.0,0.0,0.0,0.0,0.0,0.0,0.0,0.0,0.0,0.0,0.0,0.0,0.0,0.0,0.0,0.0,0.0,0.0,0.0,0.0,0.0,0.0,0.0,0.0,0.0,0.0,0.0,0.0,0.0,0.0,0.0,0.0,0.0,0.0,0.0,0.0,0.0,0.0,0.0,0.0,0.0,0.0,0.0,0.0,0.0,0.0,0.4221,0.4226,0.4227,0.4057,0.4018,0.4081,0.4459,0.458,0.453,0.4786,0.0,0.0,0.0,0.0,0.0,0.0,0.0,0.0,0.0,0.0,0.0,0.0,0.0,0.0,0.0,0.0,0.0,0.0,0.0,0.0,0.0,0.0,0.0,0.0,0.1694,0.1763,0.0,0.0,0.0,0.0,0.0,0.0,0.0,0.0,0.0,0.0,0.0,0.0,0.2449,0.2331,0.2306,0.2404,0.2715,0.3017,0.3275,0.3405,0.3693,0.423,0.4329,0.4606,0.0,0.0,0.0,0.0,0.0,0.0,0.0,0.0,0.0,0.0,0.0,0.0,0.0,0.0,0.0,0.0,0.0,0.0,0.0,0.0,0.0,0.0,0.0,0.0,0.0,0.0,0.0,0.0,0.0,0.0,0.0,0.0,0.327,0.327,0.0,0.0,0.0,0.0,0.0,0.0,0.0,0.0,0.0,0.0,0.0,0.0,0.0,0.3744,0.3946,0.3832,0.3834,0.3951,0.3893,0.39,0.3958,0.3925,0.3917,0.3927,0.3925,0.0,0.4159,0.4089,0.0,0.0,0.0,0.0,0.0,0.0,0.0,0.0,0.0,0.0,0.0,0.0,0.0,0.0,0.0,0.0,0.0,0.0,0.0,0.0,0.0,0.0,0.1363,0.1305,0.1279,0.1276,0.0,0.1688,0.2068,0.2185,0.2133,0.0,0.0,0.0,0.0,0.0,0.0,0.0,0.216,0.214,0.222,0.2464,0.2789,0.3071,0.3279,0.3575,0.386,0.411,0.4184,0.4342,0.4592,0.5044,0.0,0.0,0.0,0.0,0.0,0.0,0.0,0.0,0.0,0.0,0.0,0.0,0.0,0.0,0.0,0.0,0.0,0.0,0.0,0.0,0.0,0.0,0.0,0.0,0.0,0.0,0.0,0.0,0.0,0.2696,0.2766,0.2646,0.2597,0.2491,0.0,0.0,0.0,0.0,0.0,0.0,0.0,0.0,0.0,0.2854,0.2911,0.3003,0.3167,0.3146,0.316,0.3228,0.32,0.3194,0.3221,0.3221,0.3221,0.3231,0.3201,0.3205,0.3278,0.3597,0.3685,0.3608,0.0,0.0,0.0,0.0,0.254,0.233,0.2094,0.2061,0.0,0.2038,0.0,0.0,0.0,0.0,0.0,0.0,0.0,0.0,0.0,0.0,0.106,0.0992,0.0977,0.097,0.0935,0.1115,0.1351,0.0,0.1784,0.1967,0.219,0.0,0.0,0.0,0.0,0.1829,0.1871,0.1814,0.1819,0.1975,0.2288,0.2557,0.2725,0.3014,0.3295,0.3573,0.3836,0.408,0.4319,0.4895,0.5245,0.0,0.0,0.0,0.0,0.0,0.0,0.0,0.0,0.0,0.0,0.0,0.0,0.0,0.0,0.0,0.0,0.0,0.0,0.0,0.0,0.0,0.0,0.0,0.0,0.0,0.0,0.0,0.0,0.2247,0.2277,0.2163,0.2127,0.2059,0.0,0.0,0.0,0.0,0.0,0.0,0.1914,0.1945,0.2046,0.2273,0.2328,0.2401,0.2521,0.2572,0.2621,0.2647,0.2671,0.2696,0.2733,0.2744,0.2742,0.2731,0.2693,0.264,0.2613,0.3135,0.3251,0.3106,0.297,0.276,0.2498,0.2328,0.2139,0.1943,0.1782,0.1697,0.1673,0.1667,0.156,0.1439,0.1525,0.0,0.0,0.0,0.0,0.1057,0.0971,0.0875,0.0782,0.0731,0.0724,0.0726,0.0724,0.0747,0.0862,0.0,0.1441,0.1695,0.1866,0.0,0.0,0.0,0.0,0.1563,0.1594,0.1511,0.1473,0.1539,0.1791,0.1996,0.2134,0.2387,0.2679,0.2977,0.3454,0.3834,0.4086,0.4743,0.5091,0.5068,0.0,0.0,0.0,0.0,0.0,0.0,0.0,0.0,0.0,0.0,0.0,0.0,0.0,0.0,0.0,0.0,0.0,0.0,0.0,0.0,0.0,0.0,0.0,0.0,0.0,0.0,0.0,0.0,0.0,0.2001,0.1791,0.0,0.0,0.0,0.0,0.1422,0.1476,0.1578,0.171,0.1773,0.1932,0.2201,0.2205,0.2246,0.2309,0.2315,0.2383,0.2508,0.2579,0.2677,0.2799,0.2857,0.2849,0.2793,0.2655,0.2569,0.2514,0.2606,0.2537,0.2346,0.221,0.2103,0.2007,0.1748,0.1636,0.1612,0.1535,0.1435,0.133,0.1324,0.1149,0.0927,0.0864,0.0845,0.0,0.0,0.0726,0.0699,0.0563,0.0525,0.0521,0.0513,0.0511,0.0519,0.0512,0.0613,0.0746,0.0,0.0935,0.103,0.1293,0.0,0.1356,0.1428,0.142,0.1384,0.1328,0.1311,0.1333,0.1404,0.1488,0.1588,0.1716,0.1978,0.2219,0.2427,0.3118,0.3608,0.3814,0.4466,0.4708,0.4452,0.5295,0.0,0.0,0.0,0.0,0.0,0.0,0.0,0.0,0.0,0.0,0.0,0.0,0.0,0.0,0.0,0.0,0.0,0.0,0.0,0.0,0.0,0.0,0.0,0.0,0.0,0.0,0.0,0.0,0.1607,0.1608,0.0,0.1599,0.1563,0.1526,0.1526,0.1546,0.1583,0.1633,0.1654,0.1715,0.1816,0.1859,0.1895,0.1921,0.1993,0.2063,0.2117,0.2188,0.2234,0.2288,0.2312,0.231,0.2285,0.2232,0.2156,0.2052,0.2126,0.218,0.2235,0.2185,0.2044,0.1854,0.177,0.1671,0.1579,0.1477,0.1347,0.1184,0.0883,0.0689,0.0546,0.0393,0.0287,0.0213,0.0197,0.0183,0.017,0.013,0.0142,0.0177,0.0177,0.0176,0.0177,0.0175,0.0212,0.0273,0.0367,0.063,0.0883,0.1018,0.1043,0.1093,0.1246,0.123,0.121,0.1229,0.124,0.1263,0.1325,0.1396,0.1452,0.15,0.1713,0.1874,0.1945,0.2484,0.2941,0.3272,0.384,0.4149,0.4139,0.4826,0.5066,0.0,0.0,0.0,0.0,0.0,0.0,0.0,0.0,0.0,0.0,0.0,0.0,0.0,0.0,0.0,0.0,0.0,0.0,0.0,0.0,0.0,0.0,0.0,0.0,0.0,0.0,0.1501,0.1501,0.1584,0.1633,0.1633,0.1633,0.1625,0.1605,0.1621,0.1633,0.1633,0.1653,0.1672,0.1704,0.1744,0.1775,0.1796,0.1888,0.1897,0.1837,0.1896,0.1893,0.1831,0.185,0.1848,0.183,0.183,0.1765,0.1672,0.172,0.1813,0.1931,0.2006,0.1887,0.1666,0.1666,0.1539,0.1337,0.1109,0.0992,0.0855,0.0381,0.0203,0.014,-0.0023,-0.0126,-0.0198,-0.0204,-0.0198,-0.0205,-0.0205,-0.0171,-0.0131,-0.0131,-0.0133,-0.0136,-0.0132,-0.0138,-0.0118,-0.0052,0.0323,0.0655,0.0723,0.0748,0.0824,0.1001,0.1009,0.103,0.1123,0.1168,0.1228,0.1291,0.1317,0.1333,0.1333,0.1534,0.1634,0.1569,0.209,0.2519,0.2789,0.3337,0.3692,0.3827,0.4357,0.4586,0.4502,0.0,0.0,0.0,0.0,0.0,0.0,0.0,0.0,0.0,0.0,0.0,0.0,0.0,0.0,0.0,0.0,0.0,0.0,0.0,0.0,0.0,0.0,0.0,0.1238,0.1409,0.1541,0.1671,0.1687,0.1687,0.1687,0.1687,0.1663,0.1593,0.1655,0.1687,0.1687,0.1756,0.1814,0.1883,0.1884,0.1913,0.1971,0.1974,0.1882,0.1681,0.175,0.1678,0.1485,0.156,0.1556,0.1483,0.1483,0.1445,0.1392,0.1393,0.1392,0.1409,0.1603,0.1559,0.1395,0.1382,0.1177,0.0822,0.043,0.0337,0.0304,-0.0153,-0.0315,-0.0328,-0.0391,-0.0416,-0.0417,-0.0417,-0.0419,-0.0418,-0.0418,-0.0413,-0.0414,-0.0413,-0.0403,-0.0403,-0.0403,-0.0403,-0.0387,-0.0322,0.0009,0.0295,0.037,0.0445,0.0529,0.0664,0.0748,0.0,0.0976,0.111,0.1216,0.1286,0.1238,0.1201,0.1201,0.1437,0.1502,0.1305,0.1964,0.2367,0.2379,0.2948,0.3333,0.3486,0.3887,0.4221,0.4486,0.0,0.0,0.0,0.0,0.0,0.0,0.0,0.0,0.0,0.0,0.0,0.0,0.0,0.0,0.0,0.0,0.0,0.0,0.0,0.0,0.0,0.0,0.0178,0.0904,0.1215,0.1367,0.1399,0.145,0.1486,0.1486,0.1486,0.1481,0.1454,0.1479,0.1486,0.1486,0.1499,0.1512,0.1539,0.154,0.1499,0.1419,0.1465,0.1384,0.1193,0.1262,0.1263,0.1213,0.1223,0.1222,0.1213,0.1213,0.1177,0.1116,0.1156,0.1123,0.1063,0.1261,0.1297,0.1231,0.109,0.0822,0.0504,0.03,0.0108,-0.0093,-0.0408,-0.0516,-0.0542,-0.0655,-0.0719,-0.076,-0.076,-0.0764,-0.0747,-0.0702,-0.0658,-0.0614,-0.0615,-0.0584,-0.054,-0.054,-0.054,-0.0538,-0.0521,-0.039,-0.0212,0.0,0.0134,0.0252,0.0387,0.0513,0.0,0.0833,0.0929,0.103,0.1143,0.1181,0.118,0.1128,0.1238,0.1269,0.1162,0.1389,0.1639,0.1884,0.2235,0.2721,0.3344,0.3605,0.3896,0.0,0.0,0.0,0.0,0.0,0.0,0.0,0.0,0.0,0.0,0.0,0.0,0.0,0.0,0.0,0.0,0.0,0.0,0.0,0.0,0.0,0.0,-0.0946,-0.0756,-0.0222,0.0368,0.0801,0.0913,0.0964,0.0974,0.0974,0.0974,0.0985,0.0974,0.0988,0.0988,0.0988,0.1035,0.1071,0.11,0.1195,0.1123,0.0912,0.0943,0.077,0.0377,0.055,0.0571,0.0437,0.0571,0.0638,0.0639,0.0646,0.061,0.0585,0.0585,0.0547,0.0,0.0,0.0,0.0,0.0,0.0292,0.0113,-0.013,-0.03,-0.0446,-0.0693,-0.0771,-0.0786,-0.0855,-0.0886,-0.0904,-0.0904,-0.0899,-0.0885,-0.0815,-0.0773,-0.0731,-0.0711,-0.0669,-0.0646,-0.0646,-0.0646,-0.0642,-0.064,-0.0607,0.0,-0.0338,-0.0177,-0.0026,0.011,0.0244,0.0403,0.0605,0.0765,0.09,0.1001,0.1102,0.1145,0.1102,0.1187,0.0,0.0,0.0,0.1464,0.177,0.2045,0.0,0.0,0.0,0.3667,0.3888,0.0,0.0,0.0,0.5059,0.5088,0.0,0.0,0.0,0.0,0.0,0.0,0.0,0.0,0.0,0.0,0.0,0.0,0.0,0.0,0.0,0.0,-0.1784,-0.1778,-0.1693,-0.0888,-0.017,0.0162,0.0212,0.0227,0.0227,0.0227,0.0224,0.0234,0.0234,0.0234,0.0234,0.0,0.0,0.0,0.0,0.0595,0.0271,0.027,-0.0034,-0.0625,-0.032,-0.0336,-0.0622,-0.0319,-0.0185,-0.0185,-0.019,-0.0158,-0.0123,-0.0198,-0.0218,-0.0144,0.0384,0.0461,0.0248,-0.017,-0.0298,-0.0315,-0.0682,0.0,0.0,-0.0949,-0.1004,-0.1004,-0.1004,-0.0952,-0.0899,-0.0899,-0.0899,-0.0885,-0.0815,-0.0798,-0.0781,-0.0715,-0.0697,-0.0697,-0.0697,-0.0697,-0.0701,-0.0695,-0.07,-0.068,-0.0619,-0.0456,-0.0289,-0.0154,-0.0025,0.0127,0.0336,0.0588,0.0781,0.0875,0.0,0.0,0.1102,0.1212,0.1237,0.1111,0.133,0.1581,0.1847,0.2109,0.2419,0.2757,0.3204,0.3475,0.3569,0.388,0.4039,0.4055,0.4385,0.4481,0.0,0.0,0.0,0.0,0.0,0.0,0.0,0.0,0.0,0.0,0.0,0.0,0.0,0.0,0.0,-0.2099,-0.2278,-0.2389,-0.2263,-0.22,-0.1881,-0.1065,-0.0925,-0.0897,-0.0897,-0.0845,-0.0815,-0.0811,-0.0811,-0.0811,-0.0811,-0.0828,-0.084,-0.0827,-0.0844,-0.0962,-0.12,-0.1141,-0.1234,-0.146,0.0,0.0,-0.1379,-0.1328,-0.1294,-0.1296,-0.1351,-0.1191,-0.0895,-0.1009,-0.0936,-0.0703,-0.0271,-0.0197,-0.0335,-0.042,-0.0551,-0.0699,-0.0768,-0.0861,-0.095,-0.0986,-0.1004,-0.1004,-0.1004,-0.0952,0.0,-0.0899,-0.0899,-0.0885,-0.0815,-0.0798,-0.0781,-0.0715,-0.0697,-0.0697,-0.0697,-0.0697,-0.0695,-0.0701,-0.07,-0.0701,-0.0681,-0.06,-0.0495,-0.0362,-0.0278,-0.0132,0.0127,0.0294,0.0504,0.0791,0.0892,0.0984,0.1093,0.117,0.1187,0.1103,0.1195,0.1355,0.1567,0.1839,0.2161,0.2552,0.2862,0.313,0.336,0.3536,0.3646,0.3708,0.4042,0.4185,0.0,0.0,0.0,0.0,0.0,0.0,0.0,0.0,0.0,0.0,0.0,-0.2258,0.0,0.0,-0.2657,-0.2823,-0.3,-0.3096,-0.3104,-0.3188,-0.2901,-0.197,-0.1817,-0.1803,-0.1803,-0.1764,-0.1749,-0.1749,-0.1749,-0.1749,-0.1749,-0.1719,-0.1696,-0.1696,-0.1643,-0.1716,-0.1944,-0.1919,-0.2051,-0.235,-0.2116,-0.2051,-0.215,-0.1983,-0.1901,-0.1904,-0.194,-0.1854,-0.1719,-0.1844,-0.1826,-0.1671,-0.1398,-0.1068,-0.0759,-0.079,-0.0839,-0.0899,-0.0942,-0.0975,-0.1014,-0.1043,-0.1048,-0.1048,-0.1048,-0.1001,-0.0951,-0.0951,-0.0922,-0.0895,-0.0864,-0.082,-0.0794,-0.0755,-0.0729,-0.0712,-0.0739,-0.0719,-0.0697,-0.0697,-0.0697,-0.0703,-0.0699,-0.0674,-0.0617,-0.0517,-0.0389,-0.0244,-0.007,0.0188,0.0454,0.0723,0.0841,0.095,0.1085,0.1128,0.1137,0.1102,0.1128,0.1212,0.1346,0.1604,0.1909,0.2245,0.2643,0.2965,0.32,0.3401,0.3516,0.3557,0.3725,0.3839,0.0,0.0,0.0,0.0,0.0,0.0,0.0,0.0,-0.2324,-0.2415,-0.256,-0.2728,-0.2881,-0.3041,-0.3226,-0.3479,-0.3579,-0.3679,-0.3791,-0.3802,-0.3509,-0.2728,-0.2639,-0.2639,-0.2639,-0.2628,-0.262,-0.262,-0.262,-0.262,-0.262,-0.2523,-0.2473,-0.2473,-0.2339,-0.2376,-0.2595,-0.2564,-0.274,-0.3115,-0.2761,-0.2678,-0.2826,-0.2528,-0.2389,-0.2394,-0.2352,-0.2372,-0.2463,-0.2496,-0.2502,-0.2488,-0.2371,-0.1891,-0.1276,-0.1306,-0.1275,-0.1234,-0.1291,-0.1277,-0.1242,-0.1302,-0.1311,-0.131,-0.1286,-0.1239,-0.1187,-0.1165,-0.111,-0.1049,-0.106,-0.1011,-0.0971,-0.0971,-0.0939,-0.0904,-0.0951,-0.0908,-0.0862,-0.0843,-0.0831,-0.082,-0.0786,-0.0775,-0.0744,-0.0635,-0.0462,-0.0299,-0.0194,0.0116,0.0423,0.0676,0.0794,0.0927,0.1086,0.1102,0.1102,0.1102,0.1102,0.1128,0.1195,0.1444,0.1711,0.1972,0.2472,0.2828,0.3043,0.3303,0.3434,0.3458,0.3458,0.3536,-0.1815,-0.1889,-0.198,-0.2112,-0.2203,-0.2306,0.0,0.0,-0.2692,-0.2888,-0.3122,-0.331,-0.3324,-0.3532,-0.3676,-0.3595,-0.3689,-0.3791,-0.3802,-0.3802,-0.3724,-0.349,-0.3462,-0.3462,-0.3462,-0.3413,-0.3372,-0.3372,-0.3372,-0.3372,-0.3372,-0.3422,-0.3443,-0.3443,-0.3536,-0.361,-0.3641,-0.3523,-0.3479,-0.3523,-0.3368,-0.3296,-0.3311,-0.3161,-0.3092,-0.3085,-0.2892,-0.2889,-0.2974,-0.2638,-0.2502,-0.249,-0.2426,-0.2334,-0.2234,-0.2121,-0.2078,-0.207,-0.2082,-0.2065,-0.2061,-0.2067,-0.207,-0.206,-0.1942,-0.1898,-0.1869,-0.1742,-0.1666,-0.1607,-0.1615,-0.1609,-0.1603,-0.1603,-0.1592,-0.1569,-0.1523,-0.1507,-0.1464,-0.1343,-0.1321,-0.1266,-0.1087,-0.1053,-0.097,-0.0726,-0.0572,-0.0388,-0.0147,-0.0019,0.0209,0.0654,0.0713,0.0825,0.1082,0.1102,0.1102,0.1102,0.1102,0.1128,0.1195,0.1397,0.164,0.1903,0.2258,0.2568,0.2832,0.3043,0.3208,0.3319,0.3319,0.3389,-0.2348,-0.2443,-0.2567,-0.2741,-0.286,-0.3,-0.319,-0.3316,-0.3463,-0.3708,-0.3939,-0.4103,-0.4103,-0.4129,-0.4099,0.0,-0.3835,-0.3841,-0.396,-0.3911,-0.388,-0.3936,-0.388,-0.3772,-0.3622,-0.3577,-0.3595,-0.3669,-0.3671,-0.3671,-0.3671,-0.3736,-0.3761,-0.3727,-0.3815,-0.3811,-0.3683,-0.3625,-0.3583,-0.3534,-0.3441,-0.3399,-0.3395,-0.3269,-0.3239,-0.3311,-0.3227,-0.3264,-0.3375,-0.3207,-0.3136,-0.3129,-0.3072,-0.3013,-0.2935,-0.2473,-0.2308,-0.2303,-0.227,-0.2259,-0.2252,-0.2216,-0.2204,-0.2177,-0.2048,-0.2005,-0.1974,-0.1839,-0.1778,-0.1755,-0.1755,-0.1725,-0.1715,-0.175,-0.173,-0.1694,-0.1666,-0.1624,-0.1587,-0.1527,-0.1458,-0.1377,-0.1288,-0.1277,-0.1236,-0.1127,-0.0727,-0.0377,-0.0185,0.01,0.0458,0.0888,0.1001,0.1097,0.1204,0.1219,0.1219,0.1219,0.1219,0.1229,0.1256,0.1487,0.1671,0.1778,0.2231,0.2516,0.263,0.294,0.3134,0.3183,0.3229,0.3274,-0.295,-0.3099,-0.328,-0.3459,-0.364,-0.3838,-0.4047,-0.4162,-0.4305,-0.4554,-0.4717,-0.4812,-0.4753,-0.4711,-0.4575,-0.4269,-0.4174,-0.4153,-0.4253,-0.4203,-0.4155,-0.4193,-0.4116,-0.3923,-0.3584,-0.362,-0.3692,-0.3739,-0.3792,-0.3828,-0.3804,-0.3873,-0.3895,-0.3823,-0.3885,-0.3836,-0.3684,-0.3658,-0.3634,-0.3589,-0.3553,-0.3545,-0.3541,-0.3481,-0.3526,-0.3652,-0.3703,-0.378,-0.3852,-0.3908,-0.3911,-0.3862,-0.3757,-0.3689,-0.3582,-0.3035,-0.2771,-0.2676,-0.2629,-0.2594,-0.2583,-0.2495,-0.2473,-0.2456,-0.2317,-0.2273,-0.2245,-0.2084,-0.2053,-0.2043,-0.2043,-0.2009,-0.1986,-0.2032,-0.2009,-0.1973,-0.1952,-0.1876,-0.182,-0.1801,-0.1706,-0.1602,-0.1523,-0.1512,-0.1489,-0.1411,-0.0971,-0.0557,-0.031,0.0227,0.0712,0.1033,0.1209,0.1298,0.1298,0.1298,0.1298,0.1298,0.1298,0.1298,0.1298,0.1501,0.1627,0.1643,0.2083,0.2343,0.242,0.2763,0.2973,0.3048,0.3134,0.3183,-0.3627,-0.3869,-0.4089,-0.4234,-0.4512,-0.4804,-0.502,-0.5069,-0.5121,-0.5323,-0.5366,-0.5317,-0.5127,-0.5245,-0.5173,-0.4589,-0.4759,-0.4888,-0.4698,-0.4738,-0.4638,-0.4252,-0.4189,-0.3991,0.0,-0.3693,-0.3818,-0.3611,-0.3795,-0.3877,-0.3808,-0.3934,-0.3969,-0.3897,-0.3897,-0.3895,-0.3891,-0.3823,-0.3798,-0.3793,-0.3855,-0.3883,-0.388,-0.4022,-0.4143,-0.4284,-0.4485,-0.4523,-0.449,-0.4683,-0.4691,-0.4548,-0.4359,-0.4282,-0.4246,-0.4036,-0.3708,-0.3367,-0.3365,-0.3362,-0.3348,-0.3206,-0.3175,-0.3143,-0.3011,-0.2972,-0.2933,-0.273,-0.2679,-0.2677,-0.2677,-0.2675,-0.2673,-0.2675,-0.2673,-0.2644,-0.2586,-0.2468,-0.2362,-0.2287,-0.2225,-0.2098,-0.1839,-0.1794,-0.1703,-0.1433,-0.1331,-0.1083,-0.0558,0.0259,0.0841,0.0988,0.1182,0.1298,0.1298,0.1298,0.1298,0.1298,0.1298,0.1298,0.1298,0.1372,0.1438,0.1504,0.1714,0.1949,0.2212,0.2421,0.2656,0.2908,0.3039,0.3142,-0.4514,-0.495,-0.5388,-0.5531,-0.5789,-0.599,-0.6015,-0.6025,-0.6025,-0.6006,-0.589,-0.576,-0.5589,-0.5329,-0.5057,-0.4814,-0.4752,-0.4833,-0.5114,-0.5103,-0.5075,-0.506,-0.4901,0.0,0.0,0.0,0.0,-0.3603,-0.374,-0.3815,-0.3804,-0.3879,-0.393,-0.3901,-0.3899,-0.3899,-0.3899,-0.397,-0.4058,-0.4207,-0.4453,-0.4513,-0.4434,-0.4392,-0.4439,-0.4562,-0.4595,-0.4635,-0.4708,-0.4875,-0.4832,-0.4657,-0.4584,-0.4462,-0.4297,-0.4272,-0.4172,-0.4037,-0.3813,-0.3637,-0.3518,-0.3425,-0.3311,-0.3187,-0.3099,-0.3034,-0.296,-0.2813,-0.2738,-0.2705,-0.2705,-0.2705,-0.2705,-0.2705,-0.2705,-0.2697,-0.2666,-0.2599,-0.2506,-0.2389,-0.2311,-0.2221,-0.2085,-0.2064,-0.1973,-0.1703,-0.131,-0.0862,-0.0369,0.0188,0.0669,0.1031,0.1202,0.1321,0.1364,0.1364,0.1364,0.1364,0.1364,0.1364,0.1364,0.147,0.1523,0.1498,0.1785,0.1938,0.1933,0.227,0.2499,0.2639,0.282,0.2985,-0.5438,-0.5896,-0.6367,-0.6569,-0.6754,-0.6894,-0.6886,-0.675,-0.6599,-0.6525,-0.6243,-0.5965,-0.5817,-0.5504,-0.5194,-0.5031,-0.5087,-0.5246,-0.5567,-0.5561,-0.555,-0.5628,-0.5434,-0.5117,0.0,0.0,0.0,-0.3871,-0.405,-0.4112,-0.4016,-0.4123,-0.4156,-0.4122,-0.412,-0.412,-0.412,-0.4244,-0.4484,-0.4827,-0.5122,-0.525,-0.5236,-0.5105,-0.5093,-0.5161,-0.5118,-0.5128,-0.5169,-0.5321,-0.5291,-0.5126,-0.5055,-0.4837,-0.4593,-0.4629,-0.4545,-0.4356,-0.4107,-0.3954,-0.3855,-0.3668,-0.3514,-0.3392,-0.3249,-0.3106,-0.2966,-0.2837,-0.2746,-0.2705,-0.2705,-0.2705,-0.2705,-0.2705,-0.2705,-0.2705,-0.2705,-0.2647,-0.2575,-0.2489,-0.2393,-0.2315,-0.225,-0.2219,-0.2143,-0.1973,-0.1569,-0.1085,-0.0526,-0.0123,0.0302,0.0794,0.103,0.1208,0.1355,0.1389,0.14,0.14,0.14,0.14,0.14,0.1478,0.1504,0.1462,0.1697,0.1792,0.1727,0.2037,0.2241,0.2364,0.2615,0.2838,-0.6455,-0.6769,-0.7125,-0.7415,-0.7499,-0.7537,-0.7641,-0.724,-0.6866,-0.6908,-0.6432,-0.597,0.0,0.0,-0.5615,-0.5306,-0.5739,-0.6116,-0.6086,-0.6137,-0.6114,0.0,0.0,0.0,0.0,0.0,0.0,-0.4463,0.0,-0.4693,-0.4448,-0.4615,-0.4662,-0.4526,-0.4537,-0.4537,-0.4521,-0.4676,-0.5065,-0.5661,-0.586,-0.6047,-0.6208,-0.6084,-0.6013,-0.6,-0.601,-0.593,-0.5844,-0.6041,-0.6034,-0.5888,-0.5692,-0.5419,-0.5122,-0.5125,-0.4831,-0.4418,-0.4276,-0.4299,-0.4326,-0.3959,-0.382,-0.3756,-0.3515,-0.3236,-0.2984,-0.2856,-0.2764,-0.2705,-0.2705,-0.2705,-0.2705,-0.2705,-0.2705,-0.2705,-0.2705,-0.2651,-0.26,-0.2596,-0.2493,-0.2378,-0.2315,-0.2252,-0.2207,-0.2207,-0.2091,-0.1748,-0.103,-0.0649,-0.0235,0.0302,0.066,0.0974,0.1254,0.1344,0.1389,0.14,0.14,0.14,0.14,0.14,0.14,0.14,0.147,0.1532,0.1595,0.1732,0.1899,0.2092,0.2426,0.2679,-0.7918,-0.8462,-0.8964,-0.8837,-0.8932,-0.8916,-0.8456,-0.7931,-0.7429,-0.7053,-0.6579,-0.6143,-0.5859,0.0,0.0,-0.5936,-0.6242,0.0,-0.7254,-0.7107,0.0,-0.7151,0.0,-0.6632,-0.6047,-0.6441,0.0,0.0,-0.5446,-0.492,-0.4851,-0.4887,-0.4925,-0.4942,-0.4899,-0.4896,-0.4942,-0.5381,-0.5844,-0.6344,-0.6556,-0.6591,-0.6491,-0.635,-0.6215,-0.6078,-0.6133,-0.6136,-0.6115,-0.6269,-0.6241,-0.6104,-0.5899,-0.5686,-0.5462,-0.5362,-0.5152,-0.4897,-0.4762,-0.4547,-0.4303,-0.4209,-0.4078,-0.394,-0.3862,-0.3512,-0.3136,-0.3112,-0.2913,-0.2705,-0.2705,-0.2705,-0.2705,-0.2705,-0.2705,-0.2705,-0.2705,-0.2686,-0.2663,-0.2608,-0.2493,-0.2397,-0.2374,-0.2321,-0.2271,-0.2271,-0.2206,-0.1973,-0.1478,-0.113,-0.0738,-0.0246,0.0145,0.0548,0.0962,0.1108,0.1243,0.1389,0.14,0.14,0.14,0.14,0.14,0.14,0.147,0.1511,0.1521,0.1664,0.1779,0.1886,0.2116,0.2336,-0.8947,-0.935,-0.9662,-0.9477,-0.938,-0.9192,-0.8594,-0.7942,-0.7307,-0.6838,-0.644,-0.6092,-0.585,-0.6028,-0.6247,0.0,0.0,0.0,-0.7734,-0.7698,-0.7712,0.0,-0.7777,0.0,-0.7186,-0.7451,-0.7589,0.0,-0.635,-0.5741,-0.5835,-0.5641,-0.5542,-0.5577,-0.574,-0.5892,-0.6028,-0.6226,-0.6518,-0.6872,-0.7061,-0.7068,-0.6864,-0.6726,-0.6555,-0.6358,0.0,-0.628,-0.6297,-0.6367,-0.635,-0.6264,-0.6105,-0.5875,-0.5639,-0.5521,-0.5285,-0.5017,-0.4987,-0.484,-0.4625,-0.4484,-0.436,-0.4245,-0.4164,-0.3779,-0.3377,-0.3377,-0.3157,-0.2924,-0.2924,-0.2836,-0.275,-0.275,-0.2719,-0.2705,-0.2705,-0.2705,-0.269,-0.2653,-0.2553,-0.2489,-0.2489,-0.2413,-0.2342,-0.2342,-0.229,-0.2163,-0.1932,-0.1619,-0.1231,-0.076,-0.0347,0.0078,0.0548,0.0851,0.1085,0.1254,0.1355,0.14,0.14,0.14,0.14,0.14,0.1433,0.1458,0.1458,0.156,0.1636,0.1678,0.1871,0.2062,-0.976,-0.988,-0.9855,-0.9758,-0.9432,-0.898,-0.8489,-0.7688,-0.6942,-0.6568,-0.6248,-0.6003,-0.5896,-0.6269,-0.6586,-0.6621,0.0,-0.7713,-0.7947,-0.815,-0.8313,-0.849,-0.8356,-0.824,-0.8181,-0.8259,-0.8311,-0.8311,-0.7479,-0.6991,-0.7057,-0.6665,-0.6453,-0.6453,-0.6842,-0.7149,-0.7357,-0.7188,-0.7196,-0.7392,-0.758,-0.7561,-0.735,-0.7243,-0.7055,-0.6838,-0.6605,-0.6506,-0.6469,-0.642,-0.6404,-0.6383,-0.6249,-0.6016,-0.5757,-0.5678,-0.5374,-0.503,-0.5139,-0.5184,-0.5121,-0.477,-0.4652,-0.4595,-0.4414,-0.402,-0.3641,-0.3641,-0.342,-0.3202,-0.3202,-0.2996,-0.2798,-0.2798,-0.2742,-0.2705,-0.2705,-0.2705,-0.2705,-0.2705,-0.2655,-0.2612,-0.2612,-0.251,-0.2423,-0.2423,-0.236,-0.2304,-0.2304,-0.2022,-0.1658,-0.1243,-0.0839,-0.0414,0.0067,0.0526,0.0862,0.1041,0.1243,0.1366,0.1389,0.14,0.14,0.14,0.14,0.14,0.14,0.1455,0.1482,0.1493,0.1683,0.1833,-1.0752,-1.0773,-1.071,-1.048,-1.0081,-0.9579,-0.8945,-0.803,0.0,-0.702,-0.6593,-0.6258,-0.6286,-0.6682,-0.7054,-0.7214,-0.7541,-0.8054,-0.8839,-0.8712,-0.869,0.0,-0.9116,-0.895,-0.8623,-0.9092,0.0,0.0,-0.9104,-0.861,-0.7925,-0.7812,-0.7774,-0.7774,-0.7855,-0.7993,-0.8189,-0.8155,-0.8246,-0.8437,-0.8475,-0.8388,-0.8199,-0.8162,-0.7963,-0.7595,-0.7282,0.0,-0.6798,-0.6519,-0.6404,-0.6383,-0.6249,-0.6165,-0.6085,-0.5911,-0.5726,-0.5559,-0.5585,-0.5597,-0.5535,-0.5138,-0.4906,-0.4761,-0.4731,-0.4311,-0.3844,-0.3844,-0.3528,-0.3202,-0.3202,-0.2996,-0.2798,-0.2798,-0.2742,-0.2705,-0.2705,-0.2705,-0.2705,-0.2705,-0.2692,-0.268,-0.268,-0.2618,-0.2569,-0.2569,-0.2413,-0.2304,-0.2304,-0.2104,-0.1895,-0.1703,-0.1366,-0.0951,-0.0425,-0.0045,0.0337,0.0738,0.1007,0.1197,0.131,0.1366,0.14,0.14,0.14,0.14,0.14,0.1411,0.1417,0.1417,0.1562,0.165,-1.1085,-1.1155,-1.1064,-1.0683,-1.0166,-0.9556,-0.8862,-0.7941,-0.7174,-0.6945,-0.6681,-0.6524,-0.6552,-0.6942,0.0,-0.7387,-0.783,-0.8371,-0.8964,-0.9085,-0.9244,-0.9583,-0.9606,-0.9596,0.0,-0.9829,-1.0061,-1.0156,-1.0085,-0.9742,-0.9123,-0.8784,-0.8709,-0.8918,-0.8602,-0.8566,-0.8865,-0.867,-0.8608,-0.8703,-0.8703,-0.8595,-0.8401,-0.8401,-0.8174,-0.7794,-0.7624,0.0,-0.7183,-0.6815,-0.6667,-0.6629,-0.6313,-0.6197,-0.6177,-0.5966,-0.5865,-0.5798,-0.5802,-0.5798,-0.5768,-0.5582,-0.5265,-0.4924,-0.4744,-0.4353,-0.393,-0.3865,-0.3617,-0.3356,-0.3356,-0.3135,-0.2908,-0.2908,-0.2803,-0.2705,-0.2705,-0.2705,-0.2705,-0.2705,-0.2705,-0.2705,-0.2705,-0.2668,-0.2653,-0.2653,-0.2537,-0.2461,-0.2461,-0.2309,-0.2127,-0.1926,-0.1636,-0.131,-0.0951,-0.0481,-0.0056,0.0314,0.0683,0.0951,0.1085,0.1254,0.131,0.1243,0.1344,0.1389,0.1344,0.1389,0.14,0.14,0.1467,0.15,-1.115,-1.123,-1.1128,-1.0699,-1.01,-0.9412,-0.8662,-0.7812,-0.7095,-0.6833,-0.6747,-0.6712,-0.6779,-0.709,-0.7349,0.0,-0.7894,-0.8388,-0.8759,-0.9175,-0.9547,0.0,-0.9919,0.0,-1.0277,-1.0385,0.0,-1.0677,-1.0741,-1.0555,-1.0094,-0.9612,-0.9478,-0.9735,-0.923,-0.9103,-0.9416,-0.9122,-0.8951,-0.8951,-0.8951,-0.8882,-0.8726,-0.8726,-0.8517,-0.8169,-0.8056,0.0,0.0,-0.7206,-0.7028,-0.6994,-0.6626,-0.6487,-0.6454,-0.6294,-0.6186,-0.6115,-0.6113,-0.6065,-0.6009,-0.5978,-0.5604,-0.5107,-0.4808,-0.4411,-0.4028,-0.3892,-0.368,-0.3498,-0.3498,-0.3268,-0.3005,-0.2966,-0.282,-0.2705,-0.2705,-0.2705,-0.2705,-0.2705,-0.2705,-0.2705,-0.2705,-0.2705,-0.2705,-0.2705,-0.264,-0.2594,-0.2594,-0.2487,-0.2315,-0.211,-0.1861,-0.1635,-0.1442,-0.0911,-0.047,-0.0168,0.0291,0.0627,0.0784,0.1064,0.1164,0.1063,0.1243,0.131,0.1254,0.1344,0.1366,0.1333,0.1366,0.1377,-1.1025,-1.1041,-1.0955,-1.0677,-1.01,-0.9412,-0.8662,-0.7916,-0.7321,-0.7101,-0.6872,-0.6774,-0.7015,-0.7104,-0.7192,-0.7371,-0.7462,-0.774,-0.8436,-0.8786,-0.9133,-0.9574,0.0,0.0,-1.0293,-1.0696,0.0,-1.0971,-1.1139,-1.0941,-1.0319,-1.0226,-1.0094,-0.9884,-0.9814,-0.9803,-0.9846,-0.9803,-0.979,-0.979,-0.979,-0.9774,-0.9758,-0.9758,-0.9638,-0.9412,-0.8857,0.0,0.0,-0.7668,-0.7444,-0.744,-0.7405,-0.7379,-0.7379,-0.736,-0.7128,-0.6816,-0.6817,-0.6609,-0.633,-0.621,-0.5806,-0.5326,-0.5123,-0.4694,-0.4233,-0.4028,-0.3746,-0.3498,-0.3498,-0.3301,-0.3038,-0.2862,-0.2762,-0.2705,-0.2705,-0.2705,-0.2705,-0.2705,-0.2705,-0.2705,-0.2705,-0.2705,-0.2705,-0.2705,-0.264,-0.2594,-0.2594,-0.2487,-0.2386,-0.237,-0.2179,-0.1993,-0.1861,-0.1455,-0.1052,-0.066,-0.0191,0.018,0.0438,0.0762,0.0929,0.0918,0.1052,0.113,0.1119,0.1243,0.1243,0.113,0.1254,0.131,-1.0885,-1.109,-1.109,-1.0709,-1.01,-0.9412,-0.8662,-0.7932,-0.7339,-0.7133,-0.7009,-0.6972,-0.7082,-0.7098,-0.7131,-0.72,-0.7326,-0.7553,-0.8012,-0.8414,-0.8829,-0.9297,-0.9676,0.0,0.0,0.0,-1.0832,-1.0993,-1.1074,-1.0885,-1.0326,-1.0403,-1.037,-1.0153,-0.9978,-0.9903,-0.9903,-0.9903,-0.9903,-0.9903,-0.9903,-0.9903,-0.9903,-0.9903,-0.9793,-0.9585,-0.9177,0.0,0.0,-0.804,-0.7803,-0.7787,-0.757,-0.7505,-0.7505,-0.7505,-0.7396,-0.7232,-0.6979,-0.6815,-0.6667,-0.64,-0.6119,-0.5785,-0.5256,-0.4808,-0.4395,-0.3992,-0.3696,-0.3464,-0.3345,-0.3207,-0.3074,-0.2949,-0.2906,-0.2878,-0.2878,-0.2824,-0.2758,-0.2758,-0.2728,-0.2705,-0.2705,-0.2705,-0.2705,-0.2705,-0.2674,-0.2663,-0.2663,-0.2619,-0.2581,-0.2581,-0.2325,-0.2143,-0.2082,-0.1749,-0.1418,-0.1138,-0.0761,-0.0404,-0.009,0.028,0.0481,0.0482,0.0806,0.0941,0.0864,0.1075,0.1153,0.1097,0.1153,0.1175,-1.0412,-1.0799,-1.0919,-1.0505,-0.9943,-0.9299,-0.8571,-0.7884,-0.7339,-0.7133,-0.7098,-0.7098,-0.7098,-0.7098,-0.7098,-0.7098,-0.7216,-0.7396,-0.7646,-0.8108,-0.8554,0.0,0.0,-0.9873,0.0,-1.0512,-1.0682,-1.0869,-1.088,0.0,-1.0315,-1.043,-1.0408,-1.0191,-0.9994,-0.9903,-0.9903,-0.9903,-0.9903,-0.9903,-0.9903,-0.9903,-0.9903,-0.9903,-0.983,-0.9669,-0.9421,0.0,0.0,-0.8462,-0.8211,-0.8117,-0.7884,-0.7803,-0.7803,-0.7803,-0.7738,-0.7608,-0.7318,-0.7155,-0.704,-0.6794,-0.6581,-0.6297,-0.5749,-0.5186,-0.4642,-0.4175,-0.3778,-0.3448,-0.3244,-0.3142,-0.3091,-0.304,-0.3021,-0.3,-0.3,-0.2922,-0.2841,-0.2802,-0.276,-0.2721,-0.2709,-0.2705,-0.2705,-0.2705,-0.2705,-0.2705,-0.2705,-0.2705,-0.2705,-0.2705,-0.2494,-0.2343,-0.2318,-0.2029,-0.176,-0.1562,-0.1274,-0.0954,-0.0617,-0.0257,-0.0034,0.0022,0.0426,0.0606,0.0551,0.0841,0.0963,0.093,0.1008,0.1064,-0.9542,-0.9962,-1.0245,-0.9973,-0.9548,-0.9023,-0.836,-0.779,-0.7339,-0.7133,-0.7098,-0.7098,-0.7098,-0.7098,-0.7098,-0.7098,-0.7098,-0.7176,-0.7376,-0.7875,-0.8274,0.0,0.0,-0.9903,-0.9908,-1.0338,-1.0597,-1.0597,-1.0597,0.0,-1.0304,-1.0299,-1.018,-0.9914,-0.9903,-0.9903,-0.9903,-0.9903,-0.9903,-0.9903,-0.9903,-0.9903,-0.9903,-0.9903,-0.9903,-0.9881,0.0,0.0,0.0,-0.897,-0.8738,-0.8501,-0.8501,-0.8484,-0.8484,-0.8484,-0.8284,-0.8003,-0.7987,-0.7771,-0.7489,-0.7489,-0.7216,-0.6864,-0.6724,-0.5947,-0.5024,-0.4691,-0.4061,-0.3448,-0.3244,-0.3142,-0.3107,-0.3105,-0.3051,-0.3,-0.3,-0.2998,-0.2958,-0.2827,-0.2796,-0.2782,-0.2707,-0.2705,-0.2705,-0.2705,-0.2705,-0.2705,-0.2705,-0.2705,-0.2705,-0.2705,-0.2703,-0.2664,-0.26,-0.2353,-0.2107,-0.1912,-0.1703,-0.1438,-0.111,-0.0839,-0.0594,-0.0393,-0.0124,0.0079,0.0202,0.0539,0.064,0.0517,0.0775,0.0976,-0.8954,-0.939,-0.9646,-0.9524,-0.9247,-0.8853,-0.8328,-0.789,-0.7507,-0.7174,-0.7098,-0.7098,-0.7098,-0.7098,-0.7098,-0.7098,-0.7098,-0.7125,0.0,0.0,0.0,-0.8452,-0.9478,-1.0175,0.0,0.0,-1.0381,-1.0381,-1.0381,0.0,-1.0032,-1.0202,-1.018,-0.9908,-0.9903,-0.9903,-0.9903,-0.9903,-0.9903,-0.9903,-0.9903,-0.9903,-0.9903,-0.9903,-0.9903,0.0,0.0,0.0,0.0,-0.8992,-0.8743,-0.8501,-0.8501,-0.8501,-0.8501,-0.8501,-0.843,-0.8317,-0.8084,-0.7933,-0.7803,-0.7575,-0.7412,-0.7297,-0.726,-0.6494,-0.5508,-0.4791,-0.4175,-0.3661,-0.3462,-0.3291,-0.3166,-0.3166,-0.3146,-0.314,-0.314,-0.3107,-0.3054,-0.3011,-0.2894,-0.2788,-0.2774,-0.2732,-0.2705,-0.2705,-0.2705,-0.2705,-0.2705,-0.2705,-0.2705,-0.2705,-0.2705,-0.2692,-0.2664,-0.2551,-0.2408,-0.2252,-0.2096,-0.1861,-0.1521,-0.139,-0.1176,-0.0886,-0.0616,-0.0392,-0.0214,0.0079,0.0315,0.0506,0.0584,0.0697,-0.8097,-0.8546,-0.8814,-0.893,-0.8767,-0.8478,-0.8156,-0.781,-0.7467,-0.7158,-0.7098,-0.7098,-0.7098,-0.7098,-0.7098,-0.7098,-0.7098,-0.7131,0.0,0.0,0.0,-0.884,0.0,0.0,0.0,-1.0153,-1.0153,-1.0153,0.0,0.0,-0.9908,-1.0067,-1.0126,-1.0043,-0.9951,-0.9903,-0.9903,-0.9903,-0.9903,-0.9903,-0.9903,-0.9903,-0.9903,-0.9903,-0.9903,0.0,0.0,0.0,0.0,-0.8992,-0.8743,-0.8501,-0.8501,-0.8501,-0.8501,-0.8501,-0.8501,-0.8468,-0.8268,-0.8182,-0.8149,-0.7954,-0.7787,-0.7673,-0.7538,-0.6839,-0.5938,-0.5186,-0.4556,-0.4025,-0.3694,-0.3462,-0.3295,-0.3209,-0.3192,-0.3192,-0.3192,-0.3164,-0.3132,-0.3113,-0.2973,-0.2864,-0.2802,-0.2738,-0.2705,-0.2705,-0.2705,-0.2705,-0.2705,-0.2705,-0.2705,-0.2705,-0.2705,-0.2705,-0.2705,-0.2665,-0.2591,-0.2476,-0.2395,-0.2213,-0.19,-0.1849,-0.1696,-0.1409,-0.1184,-0.0962,-0.074,-0.0347,0.0011,0.0315,0.036,0.0494,0.0,-0.7457,-0.7844,-0.8256,-0.8154,-0.7958,-0.79,-0.7576,0.0,-0.7125,-0.7098,-0.7098,-0.7098,-0.7098,-0.7098,-0.7098,-0.7098,-0.7171,0.0,-0.7896,0.0,0.0,-0.9612,0.0,-0.9881,-0.9903,-0.9903,-0.9903,0.0,0.0,-0.9903,-0.9903,-1.0005,-1.0261,-1.0056,-0.9935,-0.9951,-0.9951,-0.9951,-0.9951,-0.9935,-0.9924,-0.9924,-0.9908,-0.9903,0.0,0.0,0.0,0.0,-0.8992,-0.8743,-0.8501,-0.8501,-0.8501,-0.8501,-0.8501,-0.8501,-0.8501,-0.8501,-0.8501,-0.8501,-0.8501,-0.8284,-0.7982,-0.7673,-0.7052,-0.635,-0.5831,-0.5186,-0.4542,-0.3992,-0.3694,-0.3462,-0.3244,-0.3188,-0.3201,-0.3201,-0.3195,-0.3166,-0.3113,-0.3038,-0.295,-0.2825,-0.2738,-0.2705,-0.2705,-0.2705,-0.2705,-0.2705,-0.2705,-0.2705,-0.2705,-0.2705,-0.2705,-0.2705,-0.2705,-0.2668,-0.2608,-0.2604,-0.2495,-0.224,-0.2224,-0.2134,-0.1931,-0.178,-0.1591,-0.1325,-0.0742,-0.0316,-0.0045,0.009,0.0338,-0.5947,0.0,-0.7358,-0.7768,-0.7741,-0.7636,0.0,-0.7507,-0.7257,-0.7125,-0.7098,-0.7098,-0.7098,-0.7098,-0.7098,-0.7098,-0.7098,-0.7171,-0.7376,0.0,0.0,-0.9525,-0.9733,-0.9844,-0.9898,-0.9903,-0.9903,-0.9903,0.0,-0.9903,-0.9903,-0.9903,-0.9924,-0.9989,-1.0137,-1.0268,-1.0426,-1.0446,-1.0446,-1.0426,-1.0268,-1.0207,-1.0202,-0.9989,-0.9903,0.0,0.0,-0.9455,-0.919,-0.8992,-0.8743,-0.8501,-0.8501,-0.8501,-0.8501,-0.8501,-0.8501,-0.8501,-0.8501,-0.8501,-0.8501,-0.8501,-0.8447,-0.8366,-0.8284,-0.7678,-0.6937,-0.6544,-0.593,-0.5219,-0.4575,-0.4075,-0.3644,-0.3276,-0.3156,-0.3124,-0.3124,-0.3082,-0.3043,-0.3022,-0.293,-0.2835,-0.28,-0.2738,-0.2705,-0.2705,-0.2705,-0.2705,-0.2705,-0.2705,-0.2705,-0.2705,-0.2705,-0.2705,-0.2705,-0.2705,-0.2694,-0.2674,-0.2672,-0.2631,-0.2512,-0.2508,-0.2385,-0.213,-0.1942,-0.1767,-0.1603,-0.1262,-0.0902,-0.0528,-0.034,-0.0046,-0.5646,-0.6138,-0.6735,-0.7328,-0.7388,-0.7372,-0.7562,-0.744,-0.7257,-0.7125,-0.7098,-0.7098,-0.7098,-0.7176,-0.7238,-0.7238,-0.7343,0.0,0.0,0.0,-0.918,-0.9552,-0.9782,-0.9903,0.0,0.0,-0.9903,-0.9903,0.0,-0.9903,-0.9903,-0.9903,-0.9951,-1.0089,-1.0306,-1.046,-1.0456,-1.0544,-1.0597,-1.0592,-1.0401,-1.0293,-1.0283,-0.9927,-0.9766,0.0,0.0,-0.9191,-0.9045,-0.8813,-0.863,-0.8501,-0.8501,-0.8501,-0.8501,-0.8501,-0.8501,-0.8501,-0.8501,-0.8501,-0.8501,-0.8501,-0.8501,-0.8501,-0.8501,-0.8171,-0.771,-0.7286,-0.6654,-0.5947,-0.5236,-0.4655,-0.4107,-0.3516,-0.3304,-0.3209,-0.3085,-0.302,-0.3,-0.3,-0.2885,-0.2798,-0.2798,-0.2738,-0.2705,-0.2705,-0.2705,-0.2705,-0.2705,-0.2705,-0.2705,-0.2705,-0.2705,-0.2705,-0.2705,-0.2705,-0.2705,-0.2705,-0.2705,-0.2682,-0.2647,-0.2644,-0.2579,-0.2436,-0.2266,-0.213,-0.2017,-0.1757,-0.142,-0.1011,-0.0845,-0.0536,-0.5643,-0.583,-0.6188,-0.6965,-0.7104,-0.7113,-0.7406,-0.7365,-0.7244,-0.7125,-0.7098,-0.7109,-0.7147,-0.7283,0.0,0.0,0.0,0.0,-0.8538,-0.899,-0.9351,-0.9617,-0.9798,0.0,-0.9903,-0.9903,-0.9903,0.0,0.0,-0.9903,-0.9903,-0.9903,-1.0,-1.0229,-1.044,-1.0489,-1.0347,-1.0591,-1.0705,-1.0699,-1.0456,-1.0347,-1.0331,-0.9833,-0.9596,-0.9574,0.0,0.0,-0.8879,-0.8608,-0.8501,-0.8501,-0.8501,-0.8501,-0.8501,-0.8501,-0.8501,-0.8501,-0.8501,-0.8501,-0.8501,-0.8501,-0.8501,-0.8501,-0.8501,-0.8501,-0.8398,-0.7943,-0.7335,-0.6654,-0.591,-0.5282,-0.4642,-0.3859,-0.3546,-0.3344,-0.3103,-0.303,-0.3004,-0.2989,-0.2886,-0.2807,-0.2791,-0.2742,-0.2711,-0.2709,-0.2711,-0.2711,-0.2711,-0.2711,-0.2707,-0.2707,-0.2705,-0.2705,-0.2705,-0.2705,-0.2705,-0.2705,-0.2705,-0.2705,-0.2705,-0.2705,-0.2705,-0.2705,-0.2591,-0.2501,-0.2441,-0.2197,-0.1891,-0.1514,-0.1362,-0.1058,-0.5404,-0.5755,-0.6152,-0.6789,-0.6858,-0.6862,-0.724,-0.7225,-0.7125,-0.7098,-0.7098,-0.7149,-0.7326,-0.7382,-0.7473,0.0,0.0,-0.8549,0.0,0.0,-0.9622,-0.9822,0.0,-0.9903,-0.9903,-0.9903,-0.9903,0.0,0.0,-0.9903,-0.9903,-0.9903,-0.9919,-0.9957,-1.0218,-1.0403,-1.0538,-1.0978,-1.1198,-1.1193,-1.0753,-1.0544,-1.0522,-0.9884,-0.9596,-0.9574,0.0,-0.8895,-0.8879,-0.8608,-0.8501,-0.8501,-0.8501,-0.8501,-0.8501,-0.8501,-0.8501,-0.8501,-0.8501,-0.8501,-0.8501,-0.8501,-0.8501,-0.8501,-0.8501,-0.8501,-0.8479,-0.8398,-0.7889,-0.7211,-0.6465,-0.5675,-0.4887,-0.4182,-0.3748,-0.3441,-0.3289,-0.317,-0.3053,-0.293,-0.2905,-0.2854,-0.2739,-0.2701,-0.2717,-0.278,-0.2791,-0.2791,-0.2791,-0.2791,-0.2762,-0.2699,-0.2705,-0.2705,-0.2705,-0.2705,-0.2705,-0.2705,-0.2705,-0.2705,-0.2705,-0.2705,-0.2705,-0.2705,-0.2677,-0.2669,-0.2657,-0.2502,-0.2301,-0.2064,-0.1828,-0.1544,-0.5344,-0.5742,-0.6192,-0.6544,-0.6722,-0.6902,-0.7277,-0.7312,-0.7308,-0.7445,-0.7356,-0.7326,0.0,0.0,-0.7786,-0.8312,0.0,-0.8947,-0.9174,-0.9439,-0.9639,0.0,0.0,-0.9903,-0.9903,-0.9903,-0.9903,0.0,0.0,0.0,-1.0116,-1.0121,-1.018,-1.0265,-1.0541,-1.0719,-1.0821,-1.1021,-1.1133,-1.1128,-1.0655,-1.043,-1.0413,-0.9865,-0.952,-0.9357,0.0,-0.8825,-0.8667,-0.856,-0.8436,-0.8333,-0.8333,-0.8252,-0.8145,-0.8285,-0.8404,-0.8501,-0.8501,-0.8501,-0.8501,-0.8501,-0.8501,-0.8501,-0.8501,-0.8501,-0.8501,-0.8501,-0.8126,-0.7577,-0.6935,-0.6128,-0.5275,-0.4497,-0.3987,-0.3581,-0.3259,-0.3152,-0.3077,-0.3023,-0.2956,-0.2874,-0.2819,-0.2747,-0.2721,-0.2784,-0.2798,-0.2829,-0.2904,-0.291,-0.2862,-0.276,-0.275,-0.2744,-0.2709,-0.2705,-0.2705,-0.2705,-0.2705,-0.2705,-0.2705,-0.2705,-0.2705,-0.2705,-0.2705,-0.2705,-0.2705,-0.2635,-0.2505,-0.2298,-0.2185,-0.1999,-0.5409,-0.5782,-0.6245,-0.6403,-0.6682,-0.701,-0.7324,-0.7437,-0.753,-0.7752,-0.7641,-0.7578,0.0,-0.7988,0.0,-0.8879,-0.9159,-0.9308,-0.9362,-0.954,-0.9676,-0.9676,-0.9814,-0.9903,-0.9903,-0.9903,-0.9903,0.0,0.0,0.0,-1.0283,-1.0347,-1.0435,-1.0612,-1.0756,-1.0868,-1.0902,-1.0789,-1.0821,-1.0998,-1.0514,-1.0293,-1.0277,-0.9817,-0.9461,-0.9195,-0.8981,-0.8749,-0.8501,-0.8501,-0.8387,-0.8192,-0.8192,-0.8068,-0.7918,-0.8127,-0.8333,-0.8501,-0.8501,-0.8501,-0.8501,-0.8501,-0.8501,-0.8501,-0.8501,-0.8501,-0.8501,-0.8501,-0.8207,-0.7773,-0.7296,-0.6528,-0.5667,-0.4857,-0.4267,-0.3774,-0.3356,-0.3244,-0.3202,-0.3174,-0.3093,-0.2986,-0.2916,-0.2819,-0.2766,-0.2799,-0.2829,-0.2881,-0.2992,-0.3019,-0.2983,-0.2866,-0.2823,-0.2776,-0.2713,-0.2705,-0.2705,-0.2705,-0.2705,-0.2705,-0.2705,-0.2705,-0.2705,-0.2705,-0.2705,-0.2705,-0.2705,-0.2705,-0.2626,-0.2464,-0.2458,-0.236,-0.5609,-0.593,-0.6262,-0.6518,-0.6799,-0.7067,-0.7343,-0.755,-0.7701,-0.7782,-0.7785,-0.7844,0.0,-0.8533,-0.8889,-0.9136,-0.9407,-0.9644,-0.9822,0.0,-0.9876,-0.9876,-0.9892,-0.9903,-0.9903,-0.9903,-0.9903,0.0,0.0,0.0,-1.0293,-1.0478,-1.0596,-1.0597,-1.0444,-1.0444,-1.0639,-1.0199,-1.0326,-1.0998,-1.0514,-1.0293,-1.0277,-0.9817,-0.9461,-0.9195,-0.8981,-0.8749,-0.8501,-0.8501,-0.8387,-0.8192,-0.8192,-0.8181,-0.817,-0.8186,-0.8333,-0.8501,-0.8501,-0.8501,-0.8501,-0.8501,-0.8501,-0.8501,-0.8501,-0.8501,-0.8501,-0.8501,-0.8167,-0.7741,-0.7453,-0.6731,-0.5917,-0.5299,-0.4656,-0.4092,-0.3813,-0.3649,-0.3527,-0.3399,-0.3371,-0.3263,-0.2958,-0.2888,-0.2865,-0.2813,-0.291,-0.2992,-0.2998,-0.3059,-0.3062,-0.2985,-0.2875,-0.2776,-0.2713,-0.2705,-0.2705,-0.2705,-0.2705,-0.2705,-0.2705,-0.2705,-0.2705,-0.2705,-0.2705,-0.2705,-0.2705,-0.2705,-0.2687,-0.2679,-0.2622,-0.2578,-0.5924,-0.6223,-0.6537,-0.6888,-0.7272,-0.7635,-0.7894,-0.8139,-0.838,-0.8568,-0.8747,-0.8794,0.0,0.0,-0.9599,-0.9252,-0.9746,-1.0131,-1.0094,-1.0199,-1.0274,-1.0274,-1.0274,-1.0274,-1.0274,-1.0274,-1.0218,0.0,0.0,0.0,-1.0307,-1.0374,-1.0467,-1.0612,-1.0532,-1.0526,-1.0597,-1.0295,-1.0213,-1.032,-1.0143,-1.0043,-1.0056,-0.9873,-0.9658,-0.9439,-0.9196,-0.8959,-0.8727,-0.8441,-0.8176,-0.7918,-0.763,-0.7594,-0.7716,-0.7891,-0.8096,-0.8323,-0.8463,-0.8501,-0.8501,-0.8501,-0.8501,-0.8501,-0.8501,-0.8501,-0.8468,-0.8344,-0.8187,-0.7975,-0.7618,-0.6852,-0.6044,-0.5555,-0.4934,-0.4375,-0.4109,-0.3874,-0.3703,-0.366,-0.3516,-0.3357,-0.3235,-0.3107,-0.2999,-0.294,-0.2968,-0.3017,-0.3055,-0.3084,-0.3093,-0.3058,-0.2974,-0.2863,-0.2717,-0.2744,-0.2738,-0.2709,-0.2705,-0.2705,-0.2705,-0.2705,-0.2705,-0.2705,-0.2705,-0.2705,-0.2705,-0.2705,-0.2705,-0.2703,-0.267,-0.2667,-0.6191,-0.649,-0.6811,-0.7168,-0.7579,-0.8022,-0.8454,-0.8693,-0.8898,-0.9136,-0.9406,-0.9502,-0.918,0.0,0.0,0.0,-1.0074,-1.0443,-1.0312,-1.0406,-1.0494,-1.0494,-1.0494,-1.0494,-1.0494,-1.0443,-1.0349,0.0,0.0,0.0,0.0,-1.0363,-1.0456,-1.0612,-1.0542,-1.051,-1.051,-1.0223,-0.9981,-0.9814,-0.9715,-0.9677,-0.9677,-0.9677,-0.9567,-0.9364,-0.9191,-0.8981,-0.8743,-0.843,-0.8096,-0.7758,-0.7359,-0.7272,-0.7435,-0.77,-0.7961,-0.823,-0.8431,-0.8501,-0.8501,-0.8501,-0.8463,-0.8398,-0.8398,-0.8344,-0.8237,-0.8055,-0.7992,-0.7914,-0.759,-0.6991,-0.6374,-0.5955,-0.5342,-0.4767,-0.4421,-0.4129,-0.39,-0.3841,-0.3673,-0.351,-0.3439,-0.3296,-0.3156,-0.3056,-0.3063,-0.3113,-0.3187,-0.3234,-0.3235,-0.3203,-0.3162,-0.3017,-0.2748,-0.2776,-0.2774,-0.2697,-0.2705,-0.2705,-0.2705,-0.2705,-0.2705,-0.2705,-0.2705,-0.2705,-0.2705,-0.2705,-0.2705,-0.2705,-0.2705,-0.2705,-0.6378,-0.6701,-0.7073,-0.7345,-0.7657,-0.8125,-0.8921,-0.9101,-0.9164,-0.9374,-0.9628,-0.9811,-0.9805,-1.0029,0.0,-1.0207,-1.0377,-1.0519,-1.0494,-1.0494,-1.0519,-1.0519,-1.0519,-1.0519,-1.0519,-1.0312,-1.0199,-1.0199,-1.0264,0.0,0.0,-1.0483,-1.0587,-1.0587,-1.0406,-1.0307,-1.0288,-0.9833,-0.9596,-0.959,-0.9319,-0.92,-0.9206,-0.9206,-0.9099,-0.89,-0.8895,-0.8749,-0.8501,-0.8495,-0.8231,-0.7774,-0.7499,-0.7394,-0.7435,-0.77,-0.7976,-0.8224,-0.8425,-0.8501,-0.8501,-0.8495,-0.836,-0.8192,-0.8192,-0.8014,-0.7771,-0.7628,-0.7559,-0.7479,-0.7335,-0.7205,-0.6986,-0.6523,-0.5898,-0.5283,-0.4808,-0.4446,-0.414,-0.3936,-0.3853,-0.3742,-0.3543,-0.3448,-0.333,-0.313,-0.322,-0.3328,-0.3389,-0.3513,-0.3544,-0.3414,-0.3398,-0.3241,-0.2844,-0.28,-0.2776,-0.2713,-0.2707,-0.2707,-0.2705,-0.2705,-0.2705,-0.2705,-0.2705,-0.2705,-0.2705,-0.2705,-0.2705,-0.2705,-0.2705,-0.2705,-0.6964,-0.7189,-0.7405,-0.7903,-0.8353,-0.8798,-0.9267,-0.9534,-0.9832,-1.0468,-1.0555,-1.0463,-1.0324,-1.0585,0.0,-1.0272,-1.0617,-1.0869,-1.0738,-1.0831,-1.0925,-1.0925,-1.0925,-1.0925,-1.0925,-1.0738,-1.055,-1.0425,-1.0309,-1.0163,-1.003,-1.0075,-1.0113,-1.0113,-1.0048,-0.9954,-0.9811,-0.9671,-0.9428,-0.9111,-0.9035,-0.9067,-0.9206,-0.9206,-0.9168,-0.911,-0.8971,-0.8857,-0.8749,-0.8425,-0.8091,-0.7774,-0.7499,-0.7394,-0.7435,-0.77,-0.7844,-0.7977,-0.8371,-0.8501,-0.8468,-0.8328,-0.8257,-0.8165,-0.7967,-0.787,-0.7756,-0.7583,-0.7653,-0.7742,-0.7557,-0.7517,-0.7375,-0.6817,-0.628,-0.5766,-0.5303,-0.475,-0.4287,-0.408,-0.3948,-0.3839,-0.3726,-0.3698,-0.3601,-0.3354,-0.3343,-0.3361,-0.3338,-0.3481,-0.355,-0.341,-0.3561,-0.3582,-0.3316,-0.3257,-0.3177,-0.3062,-0.2966,-0.2849,-0.2711,-0.2705,-0.2705,-0.2705,-0.2705,-0.2705,-0.2705,-0.2705,-0.2705,-0.2705,-0.2705,-0.2705,-0.7323,-0.7617,-0.7873,-0.8339,-0.8826,-0.9337,-0.9851,-1.0106,-1.04,-1.0972,-1.0999,-1.0877,-1.0765,-1.0935,0.0,-1.0613,-1.0867,-1.1055,-1.0943,-1.1018,-1.1093,-1.1093,-1.1093,-1.1093,-1.1093,-1.0811,-1.0586,-1.0481,-1.0187,-0.9992,-0.9975,-0.9981,-0.9981,-0.9981,-0.9981,-0.9871,-0.9635,-0.9566,-0.9384,-0.9091,-0.8998,-0.9008,-0.9112,-0.8977,-0.8914,-0.8921,-0.8803,-0.8743,-0.8716,-0.843,-0.8112,-0.7785,-0.7616,-0.7444,-0.7304,-0.7546,-0.7646,-0.77,-0.8081,-0.8216,-0.8204,-0.809,-0.7961,-0.7844,-0.7689,-0.7646,-0.7588,-0.7369,-0.7536,-0.7705,-0.7398,-0.7506,-0.76,-0.7177,-0.6698,-0.6197,-0.5705,-0.5111,-0.4611,-0.4348,-0.412,-0.3969,-0.3924,-0.3872,-0.3785,-0.3616,-0.3645,-0.3638,-0.3557,-0.3688,-0.3741,-0.3578,-0.3701,-0.3728,-0.3556,-0.3509,-0.3437,-0.3333,-0.3247,-0.3105,-0.2903,-0.2853,-0.2824,-0.2824,-0.2824,-0.2793,-0.2746,-0.2793,-0.2793,-0.2746,-0.2793,-0.2791,-0.7503,-0.795,-0.8371,-0.8659,-0.917,-0.9817,-1.0568,-1.0737,-1.0809,-1.1044,0.0,-1.1093,-1.1093,-1.1093,-1.1093,-1.1093,-1.1093,-1.1093,-1.1093,-1.1093,-1.1081,-1.1081,-1.1099,-1.1075,-1.1026,-1.0645,-1.0389,-1.0365,-0.9955,-0.9803,-1.0048,-1.0059,-1.0059,-1.0059,-1.0059,-0.994,-0.9672,-0.9491,-0.9393,-0.9365,-0.9109,-0.9001,-0.8985,-0.8689,-0.8533,-0.8533,-0.8517,-0.8501,-0.8501,-0.8501,-0.8243,-0.786,-0.7838,-0.7578,-0.7222,-0.7406,-0.7456,-0.7473,-0.7752,-0.7817,-0.7795,-0.7774,-0.7594,-0.7394,-0.7382,-0.7392,-0.7357,-0.7121,-0.7315,-0.7507,-0.7077,-0.7329,-0.7645,-0.7526,-0.7118,-0.6593,-0.6037,-0.5504,-0.5024,-0.4675,-0.4336,-0.4113,-0.4102,-0.3994,-0.3916,-0.3905,-0.3997,-0.4043,-0.3903,-0.401,-0.4017,-0.3827,-0.3813,-0.378,-0.3657,-0.3634,-0.3614,-0.3547,-0.3534,-0.3461,-0.3272,-0.3107,-0.3015,-0.3,-0.3,-0.2946,-0.2823,-0.2946,-0.2944,-0.2825,-0.2924,-0.2916,-0.7522,-0.795,-0.8413,-0.8896,-0.9727,-1.0533,-1.0924,-1.1008,-1.1026,-1.1099,-1.1093,-1.1093,-1.1093,-1.1093,-1.1093,-1.1093,-1.1093,-1.1093,-1.1093,-1.1093,-1.1014,-1.0809,-1.0966,-1.093,-1.0503,-1.0438,-1.0313,-1.0096,-0.984,-0.9729,-0.9786,-0.9786,-0.9786,-0.9786,-0.9786,-0.9678,-0.9474,-0.9416,-0.9291,-0.908,-0.9023,-0.9001,-0.9001,-0.892,-0.8829,-0.8722,-0.8565,-0.8501,-0.8501,-0.8501,-0.8441,-0.8339,-0.8182,-0.8056,-0.797,-0.8009,-0.7896,-0.7758,-0.802,-0.7967,-0.7768,-0.7557,-0.7451,-0.7371,-0.7211,-0.7272,-0.7403,-0.7399,-0.7497,-0.7589,-0.7539,-0.753,-0.7542,-0.7505,-0.7297,-0.6905,-0.621,-0.567,-0.5193,-0.4691,-0.4408,-0.423,-0.4118,-0.4078,-0.4013,-0.3919,-0.3927,-0.3915,-0.3838,-0.3898,-0.3905,-0.3811,-0.3939,-0.4022,-0.399,-0.3944,-0.39,-0.3891,-0.3837,-0.3799,-0.3748,-0.3371,-0.3107,-0.3,-0.3,-0.299,-0.2956,-0.2992,-0.299,-0.2956,-0.2877,-0.2831,-0.7492,-0.795,-0.8491,-0.9287,-1.0104,-1.0737,-1.0876,-1.1002,-1.1093,-1.1093,-1.1093,-1.1093,-1.1093,-1.1093,-1.1093,-1.1093,-1.1093,-1.1093,-1.1093,-1.0984,-1.0858,-1.0719,-1.0713,-1.0611,-1.0339,-1.0217,-1.01,-0.9964,-0.9738,-0.9659,-0.9799,-0.9804,-0.9804,-0.9804,-0.9804,-0.9676,-0.9452,-0.9446,-0.9382,-0.9231,-0.9231,-0.9231,-0.9231,-0.9071,-0.8926,-0.8786,-0.8689,-0.8592,-0.8501,-0.8501,-0.8447,-0.8344,-0.8246,-0.8127,-0.8014,-0.8014,-0.7918,-0.7801,-0.7812,-0.7721,-0.7567,-0.734,-0.7265,-0.7238,-0.7136,-0.7332,-0.7572,-0.7517,-0.7685,-0.784,-0.7649,-0.7596,-0.7531,-0.7269,-0.7204,-0.7052,-0.6507,-0.5984,-0.5475,-0.4941,-0.4628,-0.4395,-0.4216,-0.4189,-0.4167,-0.4102,-0.4094,-0.4051,-0.3959,-0.3967,-0.3983,-0.3949,-0.4042,-0.4126,-0.4183,-0.4163,-0.4168,-0.424,-0.4212,-0.4164,-0.4146,-0.39,-0.3638,-0.3344,-0.317,-0.3078,-0.3051,-0.3078,-0.3078,-0.3051,-0.3004,-0.2979,-0.7394,-0.798,-0.8659,-0.959,-1.0232,-1.0635,-1.0635,-1.0803,-1.0972,-1.1014,-1.1081,-1.1093,-1.1093,-1.1093,-1.1075,-1.1032,-1.1026,-1.1008,-1.0966,-1.0773,-1.0617,-1.0574,-1.0418,-1.0256,-1.0166,-1.0003,-0.9883,-0.9841,-0.962,-0.9596,-0.9829,-0.9835,-0.9835,-0.9835,-0.9835,-0.9716,-0.95,-0.95,-0.95,-0.95,-0.95,-0.95,-0.95,-0.9215,-0.9006,-0.8883,-0.8851,-0.8738,-0.8576,-0.8565,-0.8457,-0.8304,-0.8257,-0.8107,-0.7925,-0.7925,-0.7898,-0.7828,-0.7562,-0.7446,-0.7371,-0.7165,-0.7098,-0.7104,-0.7133,-0.7451,-0.7776,-0.766,-0.7934,-0.8174,-0.7727,-0.7702,-0.7644,-0.7131,-0.7073,-0.7057,-0.6691,-0.6231,-0.5739,-0.5156,-0.4775,-0.4495,-0.4334,-0.43,-0.43,-0.43,-0.43,-0.4257,-0.4116,-0.4102,-0.4094,-0.4072,-0.4089,-0.4143,-0.4259,-0.4287,-0.4366,-0.4498,-0.4525,-0.452,-0.4476,-0.4442,-0.4254,-0.3864,-0.3507,-0.3278,-0.3201,-0.323,-0.3205,-0.3115,-0.3158,-0.3146,-0.717,-0.8107,-0.9089,-0.9452,-0.9961,-1.0346,0.0,0.0,-1.046,0.0,-1.0936,-1.1093,-1.1093,-1.1093,-1.1014,-1.0791,-1.0755,-1.0677,-1.0448,-1.0388,-1.0262,-1.0033,-1.0178,-1.0118,-0.965,-0.9793,-0.9811,-0.9566,-0.9518,-0.9518,-0.9548,-0.9554,-0.9554,-0.9554,-0.9554,-0.9536,-0.95,-0.95,-0.95,-0.95,-0.95,-0.95,-0.95,-0.9452,-0.9366,-0.9226,-0.9049,-0.8952,-0.892,-0.8802,-0.8748,-0.8704,-0.8527,-0.8431,-0.8404,-0.8404,-0.8301,-0.8111,-0.7833,-0.7589,-0.7371,-0.7165,-0.7098,-0.7136,-0.731,-0.7562,-0.7844,-0.8043,-0.8318,-0.8486,-0.8174,-0.8074,-0.794,-0.752,-0.7171,-0.6815,-0.6363,-0.607,-0.569,-0.4977,-0.4564,-0.4334,-0.43,-0.43,-0.43,-0.43,-0.43,-0.4257,-0.4116,-0.4102,-0.4062,-0.3938,-0.4037,-0.4108,-0.4124,-0.424,-0.4366,-0.4498,-0.4605,-0.4702,-0.4747,-0.4641,-0.4537,-0.4484,-0.403,-0.3749,-0.3612,-0.3512,-0.3372,-0.3191,-0.314,-0.3101,-0.7273,-0.7906,-0.8563,-0.9143,-0.957,-0.9895,-1.0039,-1.019,-1.0328,-1.046,-1.0574,-1.0701,-1.0846,-1.0876,-1.0785,-1.0526,-1.0484,-1.0424,-1.0327,-1.0166,-1.0033,-0.9919,-0.9877,-0.9752,-0.9524,-0.9602,-0.962,-0.9512,-0.95,-0.95,-0.95,-0.95,-0.95,-0.95,-0.95,-0.95,-0.95,-0.95,-0.95,-0.95,-0.95,-0.95,-0.95,-0.95,-0.943,-0.929,-0.921,-0.9097,-0.9001,-0.8942,-0.891,-0.8894,-0.8738,-0.8673,-0.8657,-0.8549,-0.8447,-0.8317,-0.793,-0.7716,-0.7592,-0.7342,-0.7262,-0.7318,-0.7546,-0.7806,-0.8074,-0.8301,-0.857,-0.8754,-0.8673,-0.8552,-0.8297,-0.77,-0.7255,-0.6756,-0.6019,-0.5885,-0.5673,-0.4944,-0.4531,-0.43,-0.43,-0.43,-0.43,-0.43,-0.43,-0.4281,-0.4227,-0.4205,-0.4183,-0.4129,-0.4173,-0.4205,-0.4205,-0.427,-0.4396,-0.4597,-0.4594,-0.4653,-0.4787,-0.4712,-0.467,-0.4718,-0.4183,-0.3863,-0.3811,-0.3709,-0.356,-0.3362,-0.3336,-0.3267,-0.7255,-0.7641,-0.8039,-0.8641,-0.9107,-0.9446,0.0,0.0,-1.0118,0.0,-1.0196,-1.0256,-1.0466,-1.0556,-1.0514,-1.0238,-1.0196,-1.0172,-1.0106,-0.9925,-0.9788,-0.9788,-0.962,-0.95,-0.95,-0.95,-0.95,-0.95,-0.95,-0.95,-0.95,-0.95,-0.95,-0.95,-0.95,-0.95,-0.95,-0.95,-0.95,-0.95,-0.95,-0.95,-0.95,-0.95,-0.9446,-0.936,-0.936,-0.9264,-0.9119,-0.9097,-0.9081,-0.9065,-0.891,-0.8845,-0.8835,-0.8689,-0.8608,-0.8522,-0.8099,-0.7879,-0.7768,-0.7567,-0.7456,-0.7473,-0.7856,-0.8118,-0.8333,-0.8603,-0.8878,-0.9071,-0.9062,-0.8907,-0.8581,-0.7834,-0.7279,-0.6669,-0.5752,-0.5554,-0.5408,-0.4861,-0.4498,-0.43,-0.43,-0.43,-0.43,-0.43,-0.4325,-0.4344,-0.4344,-0.4388,-0.4407,-0.4407,-0.4407,-0.4407,-0.4407,-0.4407,-0.4494,-0.4704,-0.4618,-0.4628,-0.4787,-0.4734,-0.4734,-0.4768,-0.4342,-0.4079,-0.4024,-0.3908,-0.3761,-0.3579,-0.3531,-0.3414,-0.6897,-0.7363,-0.7913,-0.7955,-0.8545,-0.9125,0.0,0.0,-0.9608,-0.9877,-0.9925,-0.9931,-0.9943,-1.0148,-1.0232,-0.9967,-0.9925,-0.9841,-0.9572,-0.953,-0.9518,-0.9518,-0.9512,-0.95,-0.95,-0.95,-0.95,-0.95,-0.95,-0.95,-0.95,-0.95,-0.95,-0.95,-0.95,-0.95,-0.95,-0.95,-0.95,-0.95,-0.95,-0.95,-0.95,-0.95,-0.95,-0.9484,-0.9484,-0.9484,-0.9468,-0.9344,-0.929,-0.9274,-0.9065,-0.8985,-0.8985,-0.8968,-0.8894,-0.8747,-0.8466,-0.8116,-0.7795,-0.7785,-0.7605,-0.7537,-0.8253,-0.8468,-0.8576,-0.9039,-0.9351,-0.9509,-0.9247,-0.9087,-0.8779,-0.798,-0.7244,-0.6474,-0.5593,-0.5027,-0.4658,-0.4625,-0.4448,-0.43,-0.43,-0.43,-0.43,-0.43,-0.441,-0.4495,-0.4495,-0.4599,-0.4671,-0.4671,-0.4671,-0.4671,-0.4671,-0.4671,-0.4707,-0.4798,-0.4729,-0.4718,-0.479,-0.4734,-0.4711,-0.4698,-0.4669,-0.4571,-0.4367,-0.4115,-0.3928,-0.3775,-0.3596,-0.3498,-0.7291,-0.751,-0.7787,-0.8077,-0.8377,-0.8671,-0.9017,-0.9173,-0.9324,-0.9584,-0.9638,-0.9638,-0.9638,-0.9871,-0.9961,-0.968,-0.9638,-0.9608,-0.9512,-0.95,-0.95,-0.95,-0.95,-0.95,-0.95,-0.95,-0.95,-0.95,-0.95,-0.95,-0.95,-0.95,-0.95,-0.95,-0.95,-0.95,-0.95,-0.95,-0.95,-0.95,-0.95,-0.95,-0.95,-0.95,-0.95,-0.95,-0.95,-0.95,-0.95,-0.9446,-0.943,-0.9414,-0.9264,-0.9193,-0.9177,-0.9049,-0.8974,-0.8876,-0.8524,-0.8308,-0.817,-0.8088,-0.807,-0.8179,-0.863,-0.884,-0.9028,-0.9369,-0.9525,-0.9612,-0.9647,-0.9524,-0.9101,-0.7938,-0.6921,-0.6009,-0.5358,-0.4886,-0.4592,-0.4592,-0.4431,-0.4322,-0.4412,-0.4426,-0.4453,-0.455,-0.4597,-0.4621,-0.4621,-0.4662,-0.4708,-0.4708,-0.4708,-0.4708,-0.4708,-0.4708,-0.4723,-0.4787,-0.4737,-0.4726,-0.479,-0.4734,-0.4725,-0.4768,-0.4633,-0.4572,-0.4597,-0.4418,-0.4238,-0.4049,-0.3895,-0.3713,-0.7443,-0.7528,-0.7667,0.0,-0.8181,-0.8395,-0.8758,0.0,-0.9149,-0.9336,-0.9434,-0.95,-0.95,-0.9644,-0.9698,-0.953,-0.95,-0.95,-0.95,-0.95,-0.95,-0.95,-0.95,-0.95,-0.95,-0.95,-0.95,-0.95,-0.95,0.0,-0.95,-0.95,-0.95,-0.95,-0.95,-0.95,-0.95,-0.95,-0.9542,-0.9626,-0.9542,-0.9542,-0.9626,-0.9536,-0.95,-0.95,-0.95,-0.95,-0.95,-0.95,-0.95,-0.95,-0.9392,-0.9376,-0.9344,-0.9215,-0.9135,-0.9058,-0.8787,-0.857,-0.8405,-0.8404,-0.8402,-0.8479,-0.8878,-0.9105,-0.927,-0.9599,-0.969,-0.9728,-0.986,-0.96,-0.9034,-0.7954,-0.6863,-0.5905,-0.533,-0.4837,-0.4495,-0.4495,-0.4398,-0.4338,-0.4484,-0.4503,-0.4547,-0.4689,-0.4725,-0.4732,-0.4732,-0.4767,-0.4794,-0.4794,-0.4794,-0.4794,-0.4794,-0.4794,-0.4827,-0.4871,-0.4781,-0.4751,-0.4793,-0.4734,-0.4728,-0.477,-0.4654,-0.465,-0.4732,-0.4568,-0.4401,-0.4228,-0.4157,-0.3988,0.0,0.0,0.0,0.0,0.0,0.0,-0.8299,0.0,-0.9077,-0.9095,-0.9312,-0.9488,-0.95,-0.95,-0.95,-0.95,-0.95,-0.95,-0.95,-0.95,-0.95,-0.95,-0.95,-0.95,-0.95,-0.95,-0.95,-0.95,-0.95,-0.95,-0.95,-0.95,-0.95,-0.95,-0.95,-0.95,-0.9512,-0.9512,-0.9644,-0.9913,-0.9644,-0.965,-0.9895,-0.9626,-0.9506,-0.95,-0.95,-0.95,-0.95,-0.95,-0.95,-0.95,-0.95,-0.95,-0.95,-0.95,-0.9414,-0.9306,-0.9306,-0.891,-0.8459,-0.8724,-0.8546,-0.8343,-0.9013,-0.9211,-0.9314,-0.9769,-0.9903,-0.9903,-0.9903,-0.9322,-0.859,-0.8056,-0.7159,-0.6232,-0.5557,-0.4835,-0.4308,-0.4303,-0.43,-0.4338,-0.449,-0.4509,-0.4553,-0.4681,-0.4765,-0.4801,-0.4801,-0.4925,-0.4998,-0.4998,-0.4998,-0.4998,-0.4998,-0.4998,-0.4998,-0.4998,-0.4887,-0.4801,-0.4801,-0.4745,-0.4701,-0.4701,-0.4776,-0.4795,-0.479,-0.4594,-0.4442,-0.4322,-0.4366,-0.4287,-0.773,0.0,0.0,0.0,0.0,0.0,0.0,0.0,0.0,-0.9017,-0.9155,-0.9275,-0.9464,-0.95,-0.95,-0.95,-0.95,-0.95,-0.95,-0.95,-0.95,-0.95,-0.95,-0.95,-0.95,-0.95,-0.95,0.0,-0.95,-0.95,-0.95,-0.95,-0.95,-0.95,-0.95,-0.959,-0.9793,-0.9782,-0.9925,-1.019,-1.0112,-1.0021,-0.9901,-0.9829,-0.968,-0.95,-0.95,-0.95,-0.95,-0.95,-0.95,-0.95,-0.95,-0.95,-0.95,-0.95,-0.9484,-0.943,-0.9338,-0.9195,-0.9042,-0.8967,-0.8896,-0.8926,-0.9294,-0.9447,-0.9558,-0.9817,-0.9903,-0.9903,-0.9903,-0.9629,-0.9207,-0.8618,-0.7749,-0.6834,-0.6079,-0.5326,-0.4702,-0.4369,-0.43,-0.4365,-0.4602,-0.4638,-0.4709,-0.4885,-0.4925,-0.4947,-0.4947,-0.4977,-0.4998,-0.4998,-0.4998,-0.4998,-0.4998,-0.4998,-0.4998,-0.4998,-0.4966,-0.4947,-0.4947,-0.4934,-0.4917,-0.4917,-0.4844,-0.4771,-0.4721,-0.4724,-0.4701,-0.465,-0.4478,-0.4377,0.0,0.0,0.0,0.0,0.0,0.0,-0.8093,-0.8227,-0.8389,0.0,-0.886,-0.8981,-0.9134,-0.9164,-0.92,-0.9324,-0.9326,-0.9362,-0.9482,-0.95,-0.95,-0.95,-0.95,-0.95,-0.95,-0.95,-0.95,-0.95,-0.95,-0.95,-0.95,-0.95,-0.95,-0.95,-0.9608,-0.9734,-0.9907,-1.0009,-1.0196,-1.0472,-1.0346,-1.0274,-1.0226,-1.0003,-0.9883,-0.9835,-0.971,-0.9722,-0.9818,-0.9704,-0.9596,-0.95,-0.95,-0.95,-0.95,-0.95,-0.95,-0.9484,-0.9414,-0.9344,-0.9274,-0.9161,-0.9172,-0.9254,-0.9448,-0.9603,-0.9754,-0.9876,-0.9903,-0.9903,-0.9903,-0.9752,-0.9468,-0.8946,-0.8213,-0.7399,-0.6544,-0.5811,-0.5162,-0.4589,-0.4423,-0.4464,-0.4704,-0.4723,-0.4772,-0.496,-0.4998,-0.4998,-0.4998,-0.4998,-0.4998,-0.4998,-0.4998,-0.4998,-0.4998,-0.4998,-0.4998,-0.4998,-0.4998,-0.4998,-0.4998,-0.4998,-0.4998,-0.4998,-0.4928,-0.483,-0.4745,-0.4782,-0.4795,-0.4793,-0.4617,-0.4548,0.0,0.0,0.0,0.0,0.0,0.0,-0.7901,-0.8081,-0.8269,0.0,0.0,-0.8674,-0.8698,-0.871,-0.8782,-0.9017,-0.9053,-0.9161,-0.9452,-0.95,-0.95,-0.95,-0.95,-0.95,-0.95,-0.95,-0.95,-0.95,-0.95,-0.95,-0.95,-0.95,-0.9512,-0.9542,-0.977,-0.9937,-0.9991,-1.0226,-1.049,-1.0743,-1.0491,-1.0502,-1.0683,-1.0202,-1.0106,-1.028,-1.0045,-1.0081,-1.0274,-1.0009,-0.9752,-0.9536,-0.9512,-0.95,-0.95,-0.95,-0.95,-0.95,-0.95,-0.943,-0.9322,-0.9322,-0.9368,-0.9456,-0.9534,-0.971,-0.99,-0.9889,-0.9903,-0.9903,-0.9903,-0.9771,-0.9544,-0.9155,-0.8608,-0.7916,-0.7011,-0.6324,-0.5675,-0.4951,-0.4654,-0.4582,-0.4776,-0.4746,-0.477,-0.4963,-0.4998,-0.4998,-0.4998,-0.4998,-0.4998,-0.4998,-0.4998,-0.4998,-0.4998,-0.4998,-0.4998,-0.4998,-0.4998,-0.4998,-0.4998,-0.4998,-0.4998,-0.4998,-0.4985,-0.4931,-0.4817,-0.4817,-0.4809,-0.4793,-0.4756,-0.4762,0.0,0.0,0.0,0.0,0.0,0.0,-0.7901,-0.7937,-0.8039,0.0,-0.8341,-0.8443,-0.8653,-0.871,-0.8722,-0.8776,-0.8782,-0.8951,-0.9434,-0.95,-0.95,-0.95,-0.95,-0.95,-0.95,-0.95,-0.95,-0.95,-0.95,-0.95,-0.95,-0.95,-0.9596,-0.9806,-0.9877,-1.0106,-1.0544,-1.0605,-1.0755,-1.1014,-1.0966,-1.0858,-1.0701,-1.0593,-1.0442,-1.0292,-1.0238,-1.0244,-1.0274,-1.0009,-0.9877,-0.9811,-0.9578,-0.95,-0.95,-0.95,-0.95,-0.95,-0.95,-0.9484,-0.9462,-0.9462,-0.9543,-0.9675,-0.984,-0.99,-0.99,-0.9889,-0.9903,-0.9903,-0.9903,-0.9865,-0.979,-0.9544,-0.9027,-0.8404,-0.7736,-0.6988,-0.6238,-0.5564,-0.5008,-0.4701,-0.479,-0.4795,-0.483,-0.4974,-0.4998,-0.4998,-0.4998,-0.4998,-0.4998,-0.4998,-0.4998,-0.4998,-0.4998,-0.4998,-0.4998,-0.4998,-0.4998,-0.4998,-0.4998,-0.4998,-0.4998,-0.4998,-0.4901,-0.4887,-0.4963,-0.4963,-0.4912,-0.4798,-0.4893,-0.4887,0.0,0.0,0.0,-0.8129,0.0,0.0,0.0,-0.7901,-0.7937,-0.8069,-0.8093,-0.8149,-0.8281,0.0,-0.8347,-0.8479,-0.8497,-0.8641,-0.9044,-0.9098,-0.9146,-0.9287,-0.9306,-0.9344,-0.9488,-0.95,-0.95,-0.95,-0.95,-0.95,-0.95,-0.962,-0.9769,-0.9901,-1.016,-1.0436,-1.0701,-1.0834,-1.096,-1.1093,-1.1093,-1.1026,-1.0888,-1.0761,-1.0701,-1.0695,-1.0562,-1.0581,-1.0677,-1.04,-1.0214,-1.0063,-0.965,-0.95,-0.95,-0.95,-0.95,-0.95,-0.95,-0.95,-0.95,-0.95,-0.9631,-0.9827,-0.9961,-1.0021,-1.005,-1.0053,-0.9973,-0.9903,-0.9903,-0.9903,-0.9846,-0.9638,-0.9297,-0.8842,-0.8227,-0.7538,-0.6868,-0.6215,-0.5584,-0.51,-0.4934,-0.4836,-0.4839,-0.4979,-0.4998,-0.4998,-0.4998,-0.4998,-0.4998,-0.4998,-0.4998,-0.4998,-0.4998,-0.4998,-0.4998,-0.4998,-0.4998,-0.4998,-0.4998,-0.4998,-0.4998,-0.4998,-0.4936,-0.4906,-0.4906,-0.4969,-0.4933,-0.4798,-0.4879,-0.4855,0.0,0.0,0.0,0.0,0.0,-0.8251,0.0,0.0,0.0,-0.7901,-0.7901,0.0,0.0,0.0,0.0,0.0,0.0,0.0,0.0,-0.8545,0.0,-0.8981,-0.9023,-0.9131,-0.9392,-0.947,-0.95,-0.95,-0.95,-0.9524,-0.9572,-0.9776,-0.9949,-1.0051,-1.046,-1.0725,-1.0779,-1.099,-1.1093,-1.1093,-1.1093,-1.1093,-1.1087,-1.0876,-1.0894,-1.1099,-1.087,-1.09,-1.1075,-1.0809,-1.0533,-1.025,-0.9758,-0.9542,-0.95,-0.95,-0.95,-0.95,-0.95,-0.95,-0.9512,-0.956,-0.9752,-0.9994,-1.0066,-1.0143,-1.0232,-1.0207,-1.0086,-0.9954,-0.9903,-0.9903,-0.9865,-0.9695,-0.9511,-0.9208,-0.8632,-0.8078,-0.7484,-0.683,-0.6215,-0.5637,-0.5151,-0.4934,-0.4885,-0.4982,-0.4998,-0.4998,-0.4998,-0.4998,-0.4998,-0.4998,-0.4998,-0.4998,-0.4998,-0.4998,-0.4998,-0.4998,-0.4998,-0.4998,-0.4998,-0.4998,-0.4998,-0.4998,-0.4998,-0.495,-0.4831,-0.495,-0.4933,-0.4795,-0.482,-0.482,0.0,0.0,0.0,0.0,-0.8473,0.0,0.0,0.0,-0.7901,-0.7901,0.0,0.0,0.0,0.0,0.0,0.0,0.0,0.0,-0.7985,-0.7991,-0.8171,-0.8677,-0.8737,-0.8854,-0.9119,-0.9356,-0.95,-0.95,-0.95,-0.9602,-0.9847,-0.9889,-1.0118,-1.0599,-1.0671,-1.0809,-1.1044,-1.1075,-1.1093,-1.1093,-1.1093,-1.1093,-1.1093,-1.1063,-1.1063,-1.1105,-1.1081,-1.1069,-1.1075,-1.0809,-1.0533,-1.0268,-0.9973,-0.9704,-0.95,-0.95,-0.95,-0.95,-0.95,-0.95,-0.9536,-0.9787,-1.0039,-1.0263,-1.0331,-1.0377,-1.0342,-1.0232,-1.018,-1.0124,-0.9935,-0.9903,-0.9903,-0.9865,-0.9714,-0.9449,-0.9022,-0.8608,-0.8059,-0.7277,-0.6776,-0.6231,-0.5398,-0.5099,-0.4982,-0.4996,-0.4998,-0.4998,-0.4998,-0.4998,-0.4998,-0.4998,-0.4998,-0.4998,-0.4998,-0.4998,-0.4998,-0.4998,-0.4998,-0.4998,-0.4998,-0.4998,-0.4998,-0.4998,-0.4998,-0.499,-0.4977,-0.499,-0.4933,-0.4798,-0.4925,-0.492,0.0,0.0,0.0,0.0,0.0,0.0,-0.8371,0.0,-0.8081,0.0,0.0,0.0,0.0,0.0,0.0,0.0,-0.7901,0.0,0.0,0.0,-0.8039,0.0,0.0,0.0,-0.9059,-0.9338,-0.95,-0.95,-0.95,-0.9614,-0.9895,-1.0045,-1.0304,-1.0689,-1.0846,-1.0984,-1.1093,-1.1093,-1.1093,-1.1093,-1.1093,-1.1093,-1.1093,-1.1093,-1.1093,-1.1093,-1.1093,-1.1093,-1.1081,-1.0978,-1.0683,-1.0286,-1.0178,-0.9877,-0.95,-0.95,-0.95,-0.95,-0.95,-0.9602,-0.9757,-0.9871,-1.0081,-1.0286,-1.014,-1.0249,-1.0382,-1.0328,-1.0349,-1.0331,-1.0124,-1.0067,-1.0048,-0.9922,-0.9846,-0.9695,-0.9406,-0.9127,-0.8708,-0.8021,-0.7484,-0.6888,-0.6173,-0.5573,-0.5132,-0.5015,-0.4998,-0.4998,-0.4998,-0.4998,-0.4998,-0.4998,-0.4998,-0.4998,-0.4998,-0.4998,-0.4998,-0.4998,-0.4998,-0.4998,-0.4998,-0.4998,-0.4998,-0.4998,-0.4998,-0.4998,-0.4998,-0.4998,-0.4971,-0.4923,-0.4974,-0.4969,-0.9746,0.0,0.0,0.0,0.0,0.0,0.0,0.0,0.0,0.0,0.0,0.0,0.0,0.0,0.0,0.0,0.0,-0.7901,0.0,0.0,0.0,0.0,0.0,0.0,0.0,-0.9197,-0.9386,-0.9386,-0.9452,-0.9644,-0.9991,-1.019,-1.0466,-1.0797,-1.0996,-1.1093,-1.1093,-1.1093,-1.1093,-1.1093,-1.1093,-1.1093,-1.1093,-1.1093,-1.1093,-1.1093,-1.1093,-1.1093,-1.1093,-1.1093,-1.0785,-1.0292,-1.0292,-0.9979,-0.95,-0.95,-0.95,-0.95,-0.95,-0.9716,-1.0009,-1.0009,-1.019,-1.0364,-1.0178,-1.0295,-1.0484,-1.0501,-1.0542,-1.0537,-1.0331,-1.0237,-1.0161,-1.0011,-0.9941,-0.9846,-0.9638,-0.9435,-0.9132,-0.8594,-0.7997,-0.7388,-0.6791,-0.596,-0.5323,-0.5112,-0.5035,-0.4998,-0.4998,-0.4998,-0.4998,-0.4998,-0.4998,-0.4998,-0.4998,-0.4998,-0.4998,-0.4998,-0.4998,-0.4998,-0.4998,-0.4998,-0.4998,-0.4998,-0.4998,-0.4998,-0.4998,-0.4998,-0.4998,-0.4998,-0.4998,-0.4998,0.0,0.0,0.0,-0.9554,0.0,0.0,0.0,0.0,-0.8692,0.0,0.0,0.0,0.0,0.0,0.0,0.0,0.0,0.0,0.0,0.0,0.0,0.0,0.0,0.0,0.0,-0.8806,-0.9107,0.0,-0.9344,-0.9722,-1.0256,-1.0292,-1.0533,-1.1063,-1.1105,-1.1093,-1.1093,-1.1093,-1.1093,-1.1093,-1.1093,-1.1093,-1.1093,-1.1093,-1.1093,-1.1093,-1.1093,-1.1093,-1.1093,-1.1093,-1.0785,-1.0292,-1.0292,-0.9979,-0.95,-0.95,-0.95,-0.95,-0.95,-0.9853,-1.028,-1.028,-1.0478,-1.0689,-1.0677,-1.0689,-1.0701,-1.0767,-1.0788,-1.0738,-1.0537,-1.0349,-1.0199,-1.0199,-1.0048,-0.9846,-0.9638,-0.9435,-0.9189,-0.878,-0.8203,-0.7591,-0.6996,-0.6173,-0.5521,-0.5321,-0.5132,-0.4998,-0.4998,-0.4998,-0.4998,-0.4998,-0.4998,-0.4998,-0.4998,-0.4998,-0.4998,-0.4998,-0.4998,-0.4998,-0.4998,-0.4998,-0.4998,-0.4998,-0.4998,-0.4998,-0.4998,-0.4998,-0.4998,-0.4998,-0.4998,-0.4998,0.0,0.0,-1.01,-0.9841,0.0,0.0,0.0,0.0,0.0,0.0,0.0,0.0,0.0,0.0,0.0,0.0,0.0,0.0,0.0,0.0,0.0,0.0,0.0,0.0,0.0,0.0,0.0,0.0,-0.9185,0.0,-1.0009,-1.0202,-1.0454,-1.0822,-1.1002,-1.1093,-1.1093,-1.1093,-1.1093,-1.1093,-1.1093,-1.1093,-1.1093,-1.1093,-1.1093,-1.1093,-1.1093,-1.1093,-1.1093,-1.1093,-1.0785,-1.0292,-1.0292,-1.0081,-0.9775,-0.9775,-0.9775,-0.9806,-1.0166,-1.0406,-1.0568,-1.0568,-1.0629,-1.0671,-1.0496,-1.0568,-1.0701,-1.0737,-1.0868,-1.0943,-1.0756,-1.0644,-1.055,-1.0419,-1.0237,-1.0086,-1.0011,-0.9733,-0.9373,-0.8984,-0.8418,-0.781,-0.72,-0.6367,-0.5689,-0.5359,-0.5132,-0.4998,-0.4998,-0.4998,-0.4998,-0.4998,-0.4998,-0.4998,-0.4998,-0.4998,-0.4998,-0.4998,-0.4998,-0.4998,-0.4998,-0.5089,-0.5129,-0.5129,-0.5228,-0.5231,-0.5129,-0.5129,-0.5091,-0.4998,-0.4998,-0.4998,-1.0526,-1.0436,0.0,-1.0112,-0.9973,0.0,-0.9468,0.0,0.0,0.0,0.0,0.0,0.0,0.0,0.0,0.0,0.0,0.0,0.0,-0.7901,0.0,0.0,0.0,0.0,0.0,0.0,0.0,-0.8939,-0.9047,-0.9293,0.0,-1.0106,-1.0412,-1.0695,-1.0954,-1.1093,-1.1093,-1.1093,-1.1093,-1.1093,-1.1093,-1.1093,-1.1093,-1.1093,-1.1093,-1.1093,-1.1093,-1.1093,-1.1093,-1.1093,-1.084,-1.0436,-1.0436,-1.0274,-1.0033,-0.9943,-0.9961,-1.0106,-1.055,-1.0701,-1.0719,-1.0809,-1.084,-1.0809,-1.0641,-1.0707,-1.084,-1.084,-1.096,-1.1074,-1.0943,-1.085,-1.0775,-1.0644,-1.0443,-1.0293,-1.0218,-0.9884,-0.9487,-0.9079,-0.8456,-0.781,-0.72,-0.6425,-0.5786,-0.5456,-0.5171,-0.4998,-0.4998,-0.4998,-0.4998,-0.4998,-0.4998,-0.4998,-0.4998,-0.4998,-0.4998,-0.4998,-0.4998,-0.4998,-0.4998,-0.5127,-0.5206,-0.5206,-0.5327,-0.5329,-0.5206,-0.5206,-0.5129,-0.4998,-0.4998,-0.4998]},{"header":{"parameterUnit":"m.s-1","parameterCategory":1,"la1":30.6,"la2":29.2853,"lo1":-89.7004,"lo2":-87.6739,"dy":0.0162,"dx":0.0183,"nx":112,"ny":82,"refTime":"2023-05-11T00:00:00:Z","depth":0,"parameterNumber":3,"parameterNumberName":"V-component_of_WINDS"},"data":[0.0,0.0,0.0,0.0,0.0,0.0,0.0,0.0,0.0,0.0,0.0,0.0,0.0,0.0,0.0,0.0,0.0,0.0,0.0,0.0,0.0,0.0,0.0,0.0,0.0,0.0,0.0,0.0,0.0,0.0,0.0,0.0,0.0,0.0,0.0,0.0,0.0,0.0,0.0,0.0,0.0,0.0,0.0,0.0,0.0,0.0,0.0,0.0,0.0,0.0,0.0,0.0,0.0,0.0,0.0,0.0,0.0,0.0,0.0,0.0,0.0,0.0,0.0,0.0,0.0,0.0,0.0,0.0,0.0,0.0,0.0,0.0,0.0,0.0,0.0,0.0,0.0,0.0,0.0,0.0,0.0,0.0,0.0,0.0,0.0,0.0,0.0,0.0,0.0,0.0,1.3907,1.3341,1.3889,1.4304,1.4301,1.4188,1.404,1.3918,0.0,0.0,0.0,0.0,0.0,0.0,0.0,0.0,0.0,0.0,0.0,0.0,0.0,0.0,0.0,0.0,0.0,0.0,0.0,0.0,0.0,0.0,0.0,0.0,0.0,0.0,0.0,0.0,0.0,0.0,0.0,0.0,0.0,0.0,0.0,0.0,0.0,0.0,0.0,0.0,0.0,0.0,0.0,0.0,0.0,0.0,0.0,0.0,0.0,0.0,0.0,0.0,0.0,0.0,0.0,0.0,0.0,0.0,0.0,0.0,0.0,0.0,0.0,0.0,0.0,0.0,0.0,0.0,0.0,0.0,0.0,0.0,0.0,0.0,0.0,0.0,0.0,0.0,0.0,0.0,0.0,0.0,0.0,0.0,0.0,0.0,0.0,0.0,0.0,0.0,0.0,0.0,0.0,0.0,0.0,0.0,0.0,0.0,0.0,0.0,0.0,0.0,0.0,0.0,1.4237,1.4128,1.4221,1.4302,1.4301,1.4223,1.4102,1.3902,0.0,0.0,0.0,0.0,0.0,0.0,0.0,0.0,0.0,0.0,0.0,0.0,0.0,0.0,0.0,0.0,0.0,0.0,0.0,0.0,0.0,0.0,0.0,0.0,0.0,0.0,0.0,0.0,0.0,0.0,0.0,0.0,0.0,0.0,0.0,0.0,0.0,0.0,0.0,0.0,0.0,0.0,0.0,0.0,0.0,0.0,0.0,0.0,0.0,0.0,0.0,0.0,0.0,0.0,0.0,0.0,0.0,0.0,0.0,0.0,0.0,0.0,0.0,0.0,0.0,0.0,0.0,0.0,0.0,0.0,0.0,0.0,0.0,0.0,0.0,0.0,0.0,0.0,0.0,0.0,0.0,0.0,0.0,0.0,0.0,0.0,0.0,0.0,0.0,0.0,0.0,0.0,0.0,0.0,0.0,0.0,0.0,0.0,0.0,0.0,0.0,0.0,0.0,1.4343,1.4346,1.4356,1.435,1.4356,1.4347,1.4293,1.4175,1.4012,1.3857,0.0,0.0,0.0,0.0,0.0,0.0,0.0,0.0,0.0,0.0,0.0,0.0,0.0,0.0,0.0,0.0,0.0,0.0,0.0,0.0,0.0,0.0,0.0,0.0,0.0,0.0,0.0,0.0,0.0,0.0,0.0,0.0,0.0,0.0,0.0,0.0,0.0,0.0,0.0,0.0,0.0,0.0,0.0,0.0,0.0,0.0,0.0,0.0,0.0,0.0,0.0,0.0,0.0,0.0,0.0,0.0,0.0,0.0,0.0,0.0,0.0,0.0,0.0,0.0,0.0,0.0,0.0,0.0,0.0,0.0,0.0,0.0,0.0,0.0,0.0,0.0,0.0,0.0,0.0,0.0,0.0,0.0,0.0,0.0,0.0,0.0,0.0,0.0,0.0,0.0,0.0,0.0,0.0,0.0,0.0,0.0,0.0,0.0,0.0,0.0,0.0,0.0,1.4429,1.4438,1.4442,1.4434,1.4414,1.4414,1.4368,1.4343,1.4405,1.4289,0.0,0.0,0.0,0.0,0.0,0.0,0.0,0.0,0.0,0.0,0.0,0.0,0.0,0.0,0.0,0.0,0.0,0.0,0.0,0.0,0.0,0.0,0.0,0.0,0.0,0.0,0.0,0.0,0.0,0.0,0.0,0.0,0.0,0.0,0.0,0.0,0.0,0.0,0.0,0.0,0.0,0.0,0.0,0.0,0.0,0.0,0.0,0.0,0.0,0.0,0.0,0.0,0.0,0.0,0.0,0.0,0.0,0.0,0.0,0.0,0.0,0.0,0.0,0.0,0.0,0.0,0.0,0.0,0.0,0.0,0.0,0.0,0.0,0.0,0.0,0.0,0.0,0.0,0.0,0.0,0.0,0.0,0.0,0.0,0.0,0.0,0.0,0.0,0.0,0.0,0.0,0.0,0.0,0.0,0.0,0.0,0.0,0.0,0.0,0.0,0.0,0.0,1.4489,1.4516,1.4584,1.4528,1.4488,1.4488,1.4438,1.4647,1.5273,1.518,0.0,0.0,0.0,0.0,0.0,0.0,0.0,0.0,0.0,0.0,0.0,0.0,0.0,0.0,0.0,0.0,0.0,0.0,0.0,0.0,0.0,0.0,0.0,0.0,0.0,0.0,0.0,0.0,0.0,0.0,0.0,0.0,0.0,0.0,0.0,0.0,0.0,0.0,0.0,0.0,0.0,0.0,0.0,0.0,0.0,0.0,0.0,0.0,0.0,0.0,0.0,0.0,0.0,0.0,0.0,0.0,0.0,0.0,0.0,0.0,0.0,0.0,0.0,0.0,0.0,0.0,0.0,0.0,0.0,0.0,0.0,0.0,0.0,0.0,0.0,0.0,0.0,0.0,0.0,0.0,0.0,0.0,0.0,0.0,0.0,0.0,0.0,0.0,0.0,0.0,0.0,0.0,0.0,0.0,0.0,0.0,0.0,0.0,0.0,0.0,0.0,0.0,1.4616,1.464,0.0,1.4666,1.4616,1.4624,1.4568,1.4802,1.5479,0.0,0.0,0.0,0.0,0.0,0.0,0.0,0.0,0.0,0.0,0.0,0.0,0.0,0.0,0.0,0.0,0.0,0.0,0.0,0.0,0.0,0.0,0.0,0.0,0.0,0.0,0.0,0.0,0.0,0.0,0.0,0.0,0.0,0.0,0.0,0.0,0.0,0.0,0.0,0.0,0.0,0.0,0.0,0.0,0.0,0.0,0.0,0.0,0.0,0.0,0.0,0.0,0.0,0.0,0.0,0.0,0.0,0.0,0.0,0.0,0.0,0.0,0.0,0.0,0.0,0.0,0.0,0.0,0.0,0.0,0.0,0.0,0.0,0.0,0.0,0.0,0.0,0.0,0.0,0.0,0.0,0.0,0.0,0.0,0.0,0.0,0.0,0.0,0.0,0.0,0.0,0.0,0.0,0.0,0.0,0.0,0.0,0.0,0.0,0.0,0.0,0.0,1.4808,1.4764,1.4789,0.0,1.4776,1.4733,1.4737,1.4666,1.5031,1.5959,0.0,0.0,0.0,0.0,0.0,0.0,0.0,0.0,0.0,0.0,0.0,0.0,0.0,0.0,0.0,0.0,0.0,0.0,0.0,0.0,0.0,0.0,0.0,0.0,0.0,0.0,0.0,0.0,0.0,0.0,0.0,0.0,0.0,0.0,0.0,0.0,0.0,0.0,0.0,0.0,0.0,0.0,0.0,0.0,0.0,0.0,0.0,0.0,0.0,0.0,0.0,0.0,0.0,0.0,0.0,0.0,0.0,0.0,0.0,0.0,0.0,0.0,0.0,0.0,0.0,0.0,0.0,0.0,0.0,0.0,0.0,0.0,0.0,0.0,0.0,0.0,0.0,0.0,0.0,0.0,0.0,0.0,0.0,0.0,0.0,0.0,0.0,0.0,0.0,0.0,0.0,0.0,0.0,0.0,0.0,0.0,0.0,0.0,0.0,0.0,0.0,0.0,1.5012,1.4917,1.4905,1.4902,1.4836,1.4799,1.4799,1.4742,1.5322,0.0,0.0,0.0,0.0,0.0,0.0,0.0,0.0,0.0,0.0,0.0,0.0,0.0,0.0,0.0,0.0,0.0,0.0,0.0,0.0,0.0,0.0,0.0,0.0,0.0,0.0,0.0,0.0,0.0,0.0,0.0,0.0,0.0,0.0,0.0,0.0,0.0,0.0,0.0,0.0,0.0,0.0,0.0,0.0,0.0,0.0,0.0,0.0,0.0,0.0,0.0,0.0,0.0,0.0,0.0,0.0,0.0,0.0,0.0,0.0,0.0,0.0,0.0,0.0,0.0,0.0,0.0,0.0,0.0,0.0,0.0,0.0,0.0,0.0,0.0,0.0,0.0,0.0,0.0,0.0,0.0,0.0,0.0,0.0,0.0,0.0,0.0,0.0,0.0,0.0,0.0,0.0,0.0,0.0,0.0,0.0,0.0,0.0,0.0,0.0,0.0,0.0,0.0,1.5858,1.5358,1.5042,1.5046,1.4983,1.4947,1.4936,1.488,1.5475,1.6954,0.0,0.0,0.0,0.0,0.0,0.0,0.0,0.0,0.0,0.0,0.0,0.0,0.0,0.0,0.0,0.0,0.0,0.0,0.0,0.0,0.0,0.0,0.0,0.0,0.0,0.0,0.0,0.0,0.0,0.0,0.0,0.0,0.0,0.0,0.0,0.0,0.0,0.0,0.0,0.0,0.0,0.0,0.0,0.0,0.0,0.0,0.0,0.0,0.0,0.0,0.0,0.0,0.0,0.0,0.0,0.0,0.0,0.0,0.0,0.0,0.0,0.0,0.0,0.0,0.0,0.0,0.0,0.0,0.0,0.0,0.0,0.0,0.0,0.0,0.0,0.0,0.0,0.0,0.0,0.0,0.0,0.0,0.0,0.0,0.0,0.0,0.0,0.0,0.0,0.0,0.0,0.0,0.0,0.0,0.0,0.0,0.0,0.0,0.0,0.0,0.0,0.0,1.637,1.5899,1.5492,1.5134,1.5038,1.5003,1.5002,1.4949,1.5546,1.7084,0.0,0.0,0.0,0.0,0.0,0.0,0.0,0.0,0.0,0.0,0.0,0.0,0.0,0.0,0.0,0.0,0.0,0.0,0.0,0.0,0.0,0.0,0.0,0.0,0.0,0.0,0.0,0.0,0.0,0.0,0.0,0.0,0.0,0.0,0.0,0.0,0.0,0.0,0.0,0.0,0.0,0.0,0.0,0.0,0.0,0.0,0.0,0.0,0.0,0.0,0.0,0.0,0.0,0.0,0.0,0.0,0.0,0.0,0.0,0.0,0.0,0.0,0.0,0.0,0.0,0.0,0.0,0.0,0.0,0.0,0.0,0.0,0.0,0.0,0.0,0.0,0.0,0.0,0.0,0.0,0.0,0.0,0.0,0.0,0.0,0.0,0.0,0.0,0.0,0.0,0.0,0.0,0.0,0.0,0.0,0.0,0.0,0.0,0.0,0.0,0.0,0.0,1.684,1.6573,1.6216,1.5433,1.5282,1.5247,1.5236,1.5178,1.5786,1.7313,0.0,0.0,0.0,0.0,0.0,0.0,0.0,0.0,0.0,0.0,0.0,0.0,0.0,0.0,0.0,0.0,0.0,0.0,0.0,0.0,0.0,0.0,0.0,0.0,0.0,0.0,0.0,0.0,0.0,0.0,0.0,0.0,0.0,0.0,0.0,0.0,0.0,0.0,0.0,0.0,0.0,0.0,0.0,0.0,0.0,0.0,0.0,0.0,0.0,0.0,0.0,0.0,0.0,0.0,0.0,0.0,0.0,0.0,0.0,0.0,1.9156,0.0,0.0,0.0,0.0,0.0,0.0,0.0,0.0,0.0,0.0,0.0,0.0,0.0,0.0,0.0,0.0,0.0,0.0,0.0,0.0,0.0,0.0,0.0,0.0,0.0,0.0,0.0,0.0,0.0,0.0,0.0,0.0,0.0,0.0,0.0,0.0,0.0,0.0,0.0,0.0,0.0,1.8496,1.7895,1.7407,1.717,1.7083,1.7011,1.6973,1.6907,1.7282,1.8259,1.7645,0.0,0.0,0.0,0.0,0.0,0.0,0.0,0.0,0.0,0.0,0.0,0.0,0.0,0.0,0.0,0.0,0.0,0.0,0.0,0.0,0.0,0.0,0.0,0.0,0.0,0.0,0.0,0.0,0.0,0.0,0.0,0.0,0.0,0.0,0.0,0.0,0.0,0.0,0.0,0.0,0.0,0.0,0.0,0.0,0.0,0.0,0.0,0.0,0.0,0.0,0.0,0.0,0.0,0.0,0.0,0.0,0.0,0.0,0.0,0.0,1.9509,0.0,0.0,0.0,0.0,0.0,0.0,0.0,0.0,0.0,0.0,0.0,0.0,0.0,0.0,0.0,0.0,0.0,0.0,0.0,0.0,0.0,0.0,0.0,0.0,0.0,0.0,0.0,0.0,0.0,0.0,0.0,0.0,0.0,0.0,0.0,0.0,0.0,0.0,0.0,0.0,1.9095,1.8687,1.8242,1.7801,1.7722,1.7667,1.7594,1.717,1.7439,1.8612,1.787,0.0,0.0,0.0,0.0,0.0,0.0,0.0,0.0,0.0,0.0,0.0,0.0,0.0,0.0,0.0,0.0,0.0,0.0,0.0,0.0,0.0,0.0,0.0,0.0,0.0,0.0,0.0,0.0,0.0,0.0,0.0,0.0,0.0,0.0,0.0,0.0,0.0,0.0,0.0,0.0,0.0,0.0,0.0,0.0,0.0,0.0,0.0,0.0,0.0,0.0,0.0,0.0,0.0,2.0348,2.0427,2.0546,1.9883,1.9971,2.0635,2.0377,2.019,2.0021,1.9982,0.0,0.0,0.0,0.0,0.0,0.0,0.0,0.0,0.0,0.0,0.0,0.0,0.0,0.0,0.0,0.0,0.0,0.0,0.0,0.0,0.0,0.0,0.0,0.0,1.5317,1.5702,0.0,0.0,0.0,0.0,0.0,0.0,0.0,0.0,0.0,0.0,0.0,0.0,1.9416,1.9333,1.904,1.8339,1.8236,1.8149,1.7946,1.7265,1.7326,1.8507,1.7902,1.8095,0.0,0.0,0.0,0.0,0.0,0.0,0.0,0.0,0.0,0.0,0.0,0.0,0.0,0.0,0.0,0.0,0.0,0.0,0.0,0.0,0.0,0.0,0.0,0.0,0.0,0.0,0.0,0.0,0.0,0.0,0.0,0.0,2.0285,2.0285,0.0,0.0,0.0,0.0,0.0,0.0,0.0,0.0,0.0,0.0,0.0,0.0,0.0,2.0203,2.0184,2.0186,2.0563,2.1317,2.1327,2.1703,2.2447,2.2333,2.2355,2.2412,2.1639,0.0,2.0161,2.0156,0.0,0.0,0.0,0.0,0.0,0.0,0.0,0.0,0.0,0.0,0.0,0.0,0.0,0.0,0.0,0.0,0.0,0.0,0.0,0.0,0.0,0.0,1.5389,1.5394,1.5396,1.5455,0.0,1.5651,1.5842,1.6595,1.6838,0.0,0.0,0.0,0.0,0.0,0.0,0.0,2.0237,2.0258,2.0171,2.0064,2.0002,1.9664,1.8897,1.8665,1.8308,1.7713,1.7555,1.7577,1.7715,1.8383,0.0,0.0,0.0,0.0,0.0,0.0,0.0,0.0,0.0,0.0,0.0,0.0,0.0,0.0,0.0,0.0,0.0,0.0,0.0,0.0,0.0,0.0,0.0,0.0,0.0,0.0,0.0,0.0,0.0,2.0054,2.0163,1.9686,2.0067,2.0376,0.0,0.0,0.0,0.0,0.0,0.0,0.0,0.0,0.0,2.0308,2.0793,2.1037,2.1032,2.1529,2.1961,2.2346,2.233,2.2548,2.2919,2.2919,2.2919,2.2898,2.2508,2.1856,2.0996,2.0467,2.0253,2.0267,0.0,0.0,0.0,0.0,2.0409,2.0454,2.0459,2.0463,0.0,2.0465,0.0,0.0,0.0,0.0,0.0,0.0,0.0,0.0,0.0,0.0,1.5393,1.5398,1.5027,1.4792,1.5284,1.4998,1.488,0.0,1.6289,1.6701,1.7067,0.0,0.0,0.0,0.0,1.8778,1.9657,1.9741,1.9917,2.0393,1.9987,1.9501,1.9084,1.813,1.7565,1.761,1.7574,1.776,1.8165,1.8928,1.8874,0.0,0.0,0.0,0.0,0.0,0.0,0.0,0.0,0.0,0.0,0.0,0.0,0.0,0.0,0.0,0.0,0.0,0.0,0.0,0.0,0.0,0.0,0.0,0.0,0.0,0.0,0.0,0.0,2.0011,2.0184,1.9549,2.0024,2.0443,0.0,0.0,0.0,0.0,0.0,0.0,2.083,2.1043,2.1132,2.1069,2.1692,2.2037,2.2024,2.2687,2.3114,2.3346,2.356,2.3773,2.3985,2.42,2.4181,2.3966,2.3754,2.317,2.2289,2.1136,2.0525,2.033,2.0331,2.0361,2.0434,2.0434,2.0455,2.0533,2.0763,2.0692,2.0537,2.0753,2.0096,1.9224,1.9237,0.0,0.0,0.0,0.0,1.5726,1.5732,1.5561,1.541,1.5393,1.4904,1.4611,1.5256,1.4884,1.4623,0.0,1.5872,1.6299,1.63,0.0,0.0,0.0,0.0,1.7979,1.9055,1.9198,1.9534,2.0411,1.9724,1.9095,1.8825,1.7396,1.6681,1.7047,1.7415,1.7895,1.8479,1.9429,1.9381,1.8235,0.0,0.0,0.0,0.0,0.0,0.0,0.0,0.0,0.0,0.0,0.0,0.0,0.0,0.0,0.0,0.0,0.0,0.0,0.0,0.0,0.0,0.0,0.0,0.0,0.0,0.0,0.0,0.0,0.0,2.043,2.0469,0.0,0.0,0.0,0.0,2.0498,2.1277,2.172,2.173,2.2528,2.2946,2.2863,2.2902,2.2937,2.2931,2.2989,2.3414,2.4246,2.5063,2.5877,2.6631,2.7469,2.7391,2.6572,2.5801,2.4966,2.4049,2.2329,2.1137,2.0393,2.0388,2.0439,2.0488,2.0492,2.0501,2.0621,2.1449,2.1182,2.0641,2.1463,2.0632,1.9294,1.9297,1.8653,0.0,0.0,1.727,1.6626,1.6631,1.6027,1.5401,1.5402,1.5363,1.5343,1.5382,1.5378,1.5353,0.0,1.5421,1.5454,1.5454,0.0,1.5801,1.6638,1.6756,1.7347,1.8997,1.9194,1.9525,2.0401,1.9729,1.8859,1.8024,1.7113,1.6236,1.5376,1.6823,1.7683,1.7659,1.9154,1.9197,1.7489,1.8129,0.0,0.0,0.0,0.0,0.0,0.0,0.0,0.0,0.0,0.0,0.0,0.0,0.0,0.0,0.0,0.0,0.0,0.0,0.0,0.0,0.0,0.0,0.0,0.0,0.0,0.0,0.0,0.0,2.0562,2.1483,0.0,2.2169,2.2172,2.2174,2.2174,2.2466,2.264,2.2636,2.2929,2.3081,2.3073,2.3618,2.3909,2.3907,2.4979,2.5679,2.5988,2.6864,2.7429,2.7718,2.801,2.7991,2.7679,2.7409,2.6475,2.519,2.5086,2.3865,2.2075,2.206,2.2113,2.2169,2.2176,2.2164,2.2229,2.253,2.242,2.2136,2.1877,2.1043,2.0032,1.9469,1.947,1.9569,1.8983,1.8612,1.8378,1.8378,1.7304,1.6249,1.6249,1.539,1.4725,1.5272,1.4959,1.4724,1.5289,1.5397,1.5404,1.5396,1.5394,1.5508,1.583,1.5851,1.6283,1.7437,1.7593,1.7924,1.8801,1.811,1.7479,1.7142,1.6297,1.5611,1.5287,1.6316,1.6894,1.6833,1.7873,1.7884,1.6641,1.7329,1.6832,0.0,0.0,0.0,0.0,0.0,0.0,0.0,0.0,0.0,0.0,0.0,0.0,0.0,0.0,0.0,0.0,0.0,0.0,0.0,0.0,0.0,0.0,0.0,0.0,0.0,0.0,2.1804,2.1804,2.2836,2.3537,2.3537,2.3537,2.342,2.3128,2.3362,2.3537,2.3537,2.3829,2.4102,2.4374,2.4939,2.5387,2.5679,2.6789,2.7337,2.7341,2.8218,2.8648,2.8652,2.8945,2.8925,2.8633,2.8633,2.7854,2.6627,2.7153,2.6344,2.471,2.3822,2.3322,2.3104,2.3104,2.3093,2.3106,2.3098,2.3299,2.3383,2.2516,2.1874,2.1347,2.0762,2.0996,2.1327,2.0741,2.0175,1.9745,1.9745,1.8456,1.7148,1.7148,1.6269,1.5566,1.6152,1.582,1.5507,1.5781,1.5602,1.5396,1.5393,1.5392,1.5408,1.5397,1.5397,1.5708,1.6583,1.6697,1.7026,1.7903,1.7215,1.6705,1.6705,1.5844,1.5304,1.533,1.6076,1.6488,1.6445,1.7219,1.7186,1.6255,1.6404,1.5895,1.4697,0.0,0.0,0.0,0.0,0.0,0.0,0.0,0.0,0.0,0.0,0.0,0.0,0.0,0.0,0.0,0.0,0.0,0.0,0.0,0.0,0.0,0.0,0.0,2.1801,2.1869,2.2565,2.4278,2.4512,2.4512,2.4512,2.4512,2.4162,2.3325,2.4045,2.4512,2.4512,2.531,2.6148,2.6926,2.6946,2.7355,2.8193,2.8232,2.8238,2.8251,2.9127,2.9542,2.9572,3.0409,3.0331,2.9533,2.9533,2.9085,2.8345,2.8364,2.8345,2.8051,2.5516,2.3992,2.322,2.3221,2.3193,2.3188,2.318,2.3728,2.4256,2.3417,2.3123,2.3103,2.3102,2.3121,2.3141,2.3141,2.1969,2.0718,2.0699,1.939,1.8062,1.8042,1.8023,1.8003,1.8003,1.8003,1.775,1.6891,1.6055,1.5466,1.5406,1.5404,1.5401,1.5396,1.5392,0.0,1.6553,1.6662,1.6988,1.7825,1.7162,1.6656,1.6656,1.5833,1.5337,1.5394,1.6072,1.6452,1.647,1.721,1.7199,1.6271,1.5376,1.4841,1.4702,0.0,0.0,0.0,0.0,0.0,0.0,0.0,0.0,0.0,0.0,0.0,0.0,0.0,0.0,0.0,0.0,0.0,0.0,0.0,0.0,0.0,0.0,2.1796,2.1798,2.3425,2.5041,2.6154,2.6836,2.7225,2.7225,2.7225,2.7128,2.6894,2.7089,2.7225,2.7225,2.7459,2.7693,2.7907,2.7926,2.8026,2.8265,2.885,2.9147,2.9155,3.0032,3.0443,3.0445,3.0698,3.0679,3.0445,3.0445,2.9957,2.9217,2.9841,2.9393,2.8222,2.751,2.6707,2.5928,2.5934,2.5534,2.4995,2.4998,2.4726,2.4355,2.4118,2.3627,2.3099,2.3096,2.3544,2.4031,2.4031,2.3718,2.3211,2.2587,2.1162,1.9737,1.9092,1.8467,1.8,1.8,1.8,1.7922,1.7688,1.7457,1.6874,1.5625,1.541,1.5408,1.5405,1.5402,0.0,1.574,1.5754,1.5845,1.6092,1.5894,1.5757,1.576,1.5517,1.5377,1.5405,1.5583,1.5676,1.5629,1.5839,1.5783,1.5443,1.5123,1.493,0.0,0.0,0.0,0.0,0.0,0.0,0.0,0.0,0.0,0.0,0.0,0.0,0.0,0.0,0.0,0.0,0.0,0.0,0.0,0.0,0.0,0.0,2.3125,2.4734,2.5468,2.5954,2.6687,2.7895,2.8499,2.8792,2.8792,2.8792,2.8655,2.8323,2.8303,2.8303,2.8303,2.8301,2.8456,2.8788,2.8803,2.8982,2.9341,2.9809,3.0049,3.0056,3.0561,3.0795,3.0798,3.0795,3.0794,3.0814,3.1185,3.1068,3.0658,3.1537,3.1323,0.0,0.0,0.0,0.0,0.0,2.6756,2.58,2.6543,2.6229,2.5543,2.5928,2.5692,2.5281,2.5278,2.5375,2.5492,2.5492,2.4964,2.4203,2.3326,2.2135,2.0925,2.0046,1.9461,1.9091,1.9091,1.9091,1.8973,1.8622,1.8545,0.0,1.6735,1.619,1.582,1.5449,1.5408,1.5405,1.5398,1.5391,1.5403,1.5397,1.539,1.5407,1.539,1.5404,0.0,0.0,0.0,1.538,1.5308,1.5274,0.0,0.0,0.0,1.4987,1.4932,0.0,0.0,0.0,1.5093,1.5042,0.0,0.0,0.0,0.0,0.0,0.0,0.0,0.0,0.0,0.0,0.0,0.0,0.0,0.0,0.0,0.0,2.6776,2.9067,3.0695,2.9068,2.8261,2.9746,2.9843,2.9784,2.9784,2.9706,2.9355,2.8632,2.8573,2.8573,2.8573,0.0,0.0,0.0,0.0,3.0307,3.1073,3.0995,3.0957,3.0951,3.0858,3.0799,3.0794,3.0799,3.08,3.0859,3.1718,3.2109,3.2168,3.3046,3.3339,3.3007,3.0603,2.9156,2.8436,2.8339,2.7323,2.6209,2.7765,0.0,0.0,2.805,2.8302,2.8302,2.8302,2.7698,2.6997,2.6997,2.5746,2.4203,2.3326,2.2505,2.1685,2.0808,2.0594,2.0594,2.0594,2.0594,2.0379,1.9597,1.944,1.9168,1.831,1.7416,1.654,1.5683,1.5547,1.5507,1.5406,1.5399,1.539,1.5405,0.0,0.0,1.539,1.5402,1.54,1.5409,1.5392,1.5368,1.5319,1.5245,1.5219,1.5201,1.5073,1.5013,1.5011,1.4934,1.4912,1.4907,1.4773,1.4744,0.0,0.0,0.0,0.0,0.0,0.0,0.0,0.0,0.0,0.0,0.0,0.0,0.0,0.0,0.0,2.6127,2.8542,3.0571,3.1618,3.1956,3.2191,3.2522,3.1998,3.1608,3.1608,3.0965,3.0477,3.0321,3.0321,3.0321,3.0321,3.0985,3.1434,3.1591,3.2235,3.2642,3.281,3.2167,3.1851,3.1841,0.0,0.0,3.0809,3.0792,3.0793,3.0852,3.1729,3.2107,3.2175,3.3031,3.2994,3.2238,3.1073,3.0097,2.9256,2.8552,2.808,2.7843,2.8173,2.819,2.8089,2.8244,2.8302,2.8302,2.8302,2.7698,0.0,2.6997,2.5746,2.4203,2.3326,2.2505,2.1685,2.0808,2.0594,2.0594,2.0594,2.0594,2.0555,2.0379,2.0359,2.0066,1.9207,1.833,1.7454,1.6578,1.6443,1.6191,1.5488,1.5407,1.5402,1.5409,1.5404,1.5398,1.5391,1.5405,1.5404,1.541,1.5403,1.539,1.5389,1.532,1.5258,1.5197,1.5122,1.5089,1.5079,1.5019,1.4972,1.4977,1.4891,1.4871,0.0,0.0,0.0,0.0,0.0,0.0,0.0,0.0,0.0,0.0,0.0,2.2799,0.0,0.0,2.8078,2.9828,3.1518,3.2901,3.3783,3.4286,3.4233,3.3399,3.2958,3.2704,3.2704,3.2315,3.2042,3.2042,3.2042,3.2042,3.2042,3.2454,3.271,3.271,3.3084,3.308,3.2657,3.2248,3.1828,3.1396,3.0982,3.0772,3.0745,3.0776,3.0801,3.0859,3.1718,3.233,3.2806,3.411,3.4131,3.3278,3.2431,3.1075,2.96,2.956,2.9011,2.8423,2.9262,2.9281,2.9025,2.9415,2.9552,2.9552,2.9552,2.8654,2.7659,2.7659,2.641,2.4847,2.3988,2.313,2.2388,2.196,2.1218,2.071,2.1159,2.0906,2.0594,2.0594,2.0594,2.0457,2.0027,1.9598,1.8857,1.7551,1.6988,1.6541,1.6113,1.5663,1.5403,1.5393,1.5407,1.54,1.5391,1.5408,1.5407,1.539,1.5408,1.5402,1.539,1.5346,1.5272,1.5246,1.5182,1.5122,1.5094,1.503,1.5004,1.4994,1.4973,1.4944,0.0,0.0,0.0,0.0,0.0,0.0,0.0,0.0,2.1771,2.2743,2.4751,2.6658,2.7702,2.9708,3.1692,3.3276,3.4227,3.5002,3.5698,3.5795,3.5236,3.3718,3.3529,3.3529,3.3529,3.3393,3.3295,3.3295,3.3295,3.3295,3.3295,3.346,3.3522,3.3522,3.3708,3.3451,3.2749,3.2575,3.2129,3.1448,3.1167,3.0998,3.0945,3.0834,3.0786,3.0845,3.1886,3.2883,3.3895,3.5146,3.5224,3.45,3.3647,3.2073,3.0364,3.0675,2.9953,2.8978,3.0324,3.0383,2.9935,3.0597,3.0792,3.0773,3.0598,2.9486,2.8256,2.8081,2.6774,2.5291,2.4586,2.3748,2.3105,2.3105,2.207,2.1231,2.1776,2.1328,2.0783,2.0608,2.0589,2.0589,2.0571,2.0571,2.0045,1.8485,1.765,1.7146,1.6972,1.6347,1.5834,1.5669,1.5644,1.5578,1.5411,1.539,1.539,1.539,1.539,1.5408,1.5403,1.5342,1.5315,1.5303,1.523,1.5168,1.5127,1.5052,1.5023,1.5017,1.5017,1.5019,1.7641,1.8262,1.9136,1.9986,2.0743,2.1714,0.0,0.0,2.5483,2.7053,2.8226,2.9483,3.1132,3.2249,3.3235,3.4206,3.51,3.5698,3.5795,3.5795,3.543,3.4472,3.4377,3.4377,3.4377,3.3714,3.3306,3.3306,3.3306,3.3306,3.3306,3.3988,3.4379,3.4379,3.5115,3.5461,3.538,3.4606,3.4179,3.4056,3.2561,3.1861,3.184,3.105,3.0704,3.0803,3.2449,3.4096,3.5559,3.4979,3.4695,3.452,3.3643,3.3121,3.2717,3.1315,3.0672,3.0555,3.073,3.0731,3.0673,3.077,3.0809,3.0653,2.9878,2.8961,2.8043,2.7269,2.5845,2.4518,2.4439,2.3754,2.3108,2.3108,2.2953,2.2621,2.1959,2.1725,2.1434,2.0659,2.0504,2.0508,2.0518,2.052,2.0192,1.9283,1.9073,1.8726,1.7949,1.7773,1.7401,1.6647,1.6547,1.6249,1.547,1.539,1.539,1.539,1.539,1.5408,1.5403,1.5386,1.5362,1.5292,1.5224,1.5195,1.5187,1.5127,1.5092,1.5088,1.5088,1.5053,1.9212,1.9988,2.1094,2.2942,2.4049,2.5114,2.6823,2.7889,2.8855,3.0065,3.1375,3.2535,3.3263,3.4087,3.4798,0.0,3.5555,3.5791,3.5797,3.5351,3.4902,3.4542,3.4057,3.3931,3.4459,3.4208,3.4206,3.4728,3.4748,3.4748,3.4748,3.5546,3.5779,3.5272,3.6108,3.6069,3.5041,3.4674,3.4266,3.38,3.2573,3.2007,3.1969,3.1098,3.0983,3.1506,3.2222,3.3513,3.5053,3.4696,3.4545,3.4468,3.3629,3.2988,3.2524,3.2327,3.2242,3.2183,3.1716,3.156,3.1462,3.0956,3.08,3.0645,2.9754,2.8895,2.8016,2.7145,2.6033,2.5095,2.5095,2.4471,2.3962,2.4449,2.3804,2.3141,2.328,2.252,2.168,2.1332,2.0847,2.0501,2.0506,2.0507,2.0392,2.0046,1.9596,1.9176,1.8808,1.83,1.7865,1.7497,1.7452,1.7309,1.6949,1.6909,1.6909,1.6909,1.6909,1.6909,1.6906,1.6888,1.6596,1.6074,1.5998,1.5718,1.5204,1.5127,1.5108,1.5098,1.5108,1.5078,2.0827,2.2049,2.3621,2.5942,2.7534,2.8906,3.0356,3.1346,3.2154,3.2791,3.3695,3.4372,3.436,3.4898,3.535,3.5408,3.5596,3.5756,3.5764,3.5022,3.43,3.3843,3.3222,3.299,3.3402,3.4086,3.4765,3.5389,3.5894,3.6047,3.5814,3.6848,3.7061,3.6185,3.6768,3.6498,3.5238,3.4985,3.4575,3.3971,3.3111,3.2699,3.266,3.1783,3.1876,3.2687,3.2662,3.3341,3.4473,3.4467,3.4329,3.4059,3.3462,3.286,3.2381,3.3025,3.3126,3.286,3.2276,3.2063,3.1927,3.1052,3.078,3.0565,2.944,2.868,2.7937,2.6853,2.6091,2.5602,2.5602,2.5174,2.4882,2.5466,2.4664,2.3903,2.4297,2.3186,2.2054,2.182,2.1083,2.0504,2.049,2.0491,2.0493,2.0498,1.9996,1.9621,1.9626,1.8885,1.8365,1.8369,1.8143,1.8,1.8,1.8,1.8,1.8,1.8,1.8,1.8,1.7945,1.7601,1.6971,1.6667,1.6218,1.5555,1.528,1.5121,1.5106,1.5108,1.5098,2.2502,2.46,2.6957,2.8654,3.1001,3.313,3.3967,3.4828,3.5452,3.5482,3.4863,3.4297,3.4306,3.4328,3.4359,3.4422,3.5109,3.5623,3.5688,3.4954,3.3804,3.2161,3.1953,3.1644,0.0,3.3056,3.4516,3.4538,3.611,3.669,3.5853,3.743,3.7957,3.7081,3.7081,3.7061,3.7023,3.6185,3.5756,3.5717,3.4846,3.441,3.4391,3.3509,3.3593,3.4422,3.4357,3.4352,3.4396,3.4409,3.3915,3.3146,3.3113,3.3083,3.3088,3.3173,3.2701,3.2031,3.2011,3.1992,3.1856,3.0987,3.0695,3.0385,2.8651,2.8125,2.7756,2.6108,2.5622,2.5603,2.5603,2.5583,2.5564,2.5583,2.5564,2.5292,2.4473,2.3602,2.2709,2.1873,2.1055,2.0498,2.0504,2.0508,2.0496,2.0497,2.0484,2.046,2.0461,1.9764,1.9259,1.9252,1.8497,1.8,1.8,1.8,1.8,1.8,1.8,1.8,1.8,1.7936,1.7892,1.7866,1.7023,1.6546,1.6454,1.5614,1.516,1.5093,1.5107,1.5106,2.4887,2.7547,3.0365,3.2085,3.4023,3.5554,3.5827,3.6122,3.6003,3.4838,3.3946,3.3195,3.263,3.206,3.1926,3.2576,3.2901,3.3461,3.4605,3.352,3.2615,3.2637,3.1614,0.0,0.0,0.0,0.0,3.4461,3.5585,3.6108,3.5814,3.6906,3.7392,3.712,3.71,3.71,3.71,3.6248,3.5786,3.571,3.4853,3.4136,3.3536,3.2675,3.2747,3.3519,3.2312,3.2464,3.3499,3.2863,3.2455,3.2243,3.2234,3.1877,3.1446,3.2041,3.2093,3.1874,3.1921,3.1922,3.1798,3.0963,3.0701,3.0478,2.9329,2.857,2.7871,2.6767,2.6048,2.56,2.56,2.56,2.56,2.56,2.56,2.5522,2.5231,2.4472,2.3598,2.2726,2.187,2.1134,2.0598,2.0502,2.0491,2.0496,2.0505,2.0509,2.0504,2.0253,2.0106,2.0091,1.9827,1.9663,1.966,1.966,1.966,1.966,1.966,1.966,1.966,1.9633,1.9354,1.8768,1.7919,1.7176,1.6567,1.5657,1.5186,1.5163,1.517,1.5138,2.7654,3.0331,3.2945,3.5014,3.6331,3.7198,3.7498,3.6868,3.5823,3.4366,3.269,3.1232,3.0366,2.9789,2.9646,3.0268,3.113,3.2212,3.3604,3.2576,3.1983,3.2861,3.1725,3.0888,0.0,0.0,0.0,3.3979,3.5374,3.6095,3.5771,3.6899,3.7387,3.7076,3.7057,3.7057,3.7057,3.6197,3.5716,3.5612,3.5057,3.4485,3.3895,3.3045,3.2968,3.3412,3.1976,3.1816,3.2521,3.1903,3.1512,3.1262,3.1254,3.0755,3.0061,3.0629,3.0641,3.0511,3.1196,3.1629,3.168,3.0562,3.0403,3.0515,2.9666,2.8798,2.7929,2.7137,2.6263,2.56,2.56,2.56,2.56,2.56,2.56,2.56,2.56,2.4918,2.4121,2.356,2.2765,2.1909,2.1072,2.0682,2.0494,2.0491,2.0506,2.0499,2.0501,2.0507,2.0506,2.0492,2.0501,2.0492,2.0502,2.05,2.0499,2.0499,2.0499,2.0499,2.0499,2.0494,2.0237,1.9672,1.881,1.8095,1.7532,1.6299,1.57,1.5702,1.5682,1.5643,3.0696,3.2905,3.4825,3.7277,3.7918,3.8109,3.8746,3.7033,3.5017,3.3953,3.1179,2.8622,0.0,0.0,2.7599,2.7699,2.9784,3.174,3.274,3.2134,3.192,0.0,0.0,0.0,0.0,0.0,0.0,3.3197,0.0,3.6575,3.574,3.7254,3.7799,3.7029,3.6949,3.6949,3.699,3.6124,3.5618,3.5489,3.5496,3.5425,3.5318,3.4507,3.4103,3.4026,3.3131,3.2292,3.1533,3.1536,3.104,3.0292,3.025,2.9784,2.9143,2.9063,2.8579,2.8191,2.9832,3.0953,3.1403,2.9816,2.9894,3.0453,2.9695,2.8823,2.7947,2.7174,2.63,2.56,2.56,2.56,2.56,2.56,2.56,2.56,2.56,2.4957,2.4354,2.4315,2.3599,2.2747,2.1909,2.1091,2.0565,2.0565,2.0538,2.0492,2.0501,2.0498,2.0506,2.0506,2.0497,2.0504,2.0509,2.0503,2.05,2.0499,2.0499,2.0499,2.0499,2.0499,2.0499,2.0499,1.9633,1.9197,1.9192,1.7492,1.6669,1.6666,1.6601,1.6562,3.2667,3.5248,3.7518,3.7528,3.8027,3.8051,3.6354,3.5051,3.3423,3.0624,2.8929,2.7286,2.5127,0.0,0.0,2.6571,2.7724,0.0,3.2221,3.1893,0.0,3.3463,0.0,3.2414,3.2529,3.3428,0.0,0.0,3.5127,3.5855,3.5648,3.6057,3.6485,3.6917,3.6292,3.6273,3.6917,3.6006,3.5518,3.5413,3.5374,3.503,3.4393,3.3545,3.2835,3.2205,3.1279,3.0761,3.0566,3.0555,3.0421,3.017,2.9574,2.9595,2.9836,2.8583,2.8404,2.8687,2.7897,2.8606,2.9788,2.9368,2.984,3.0567,3.0361,2.9263,2.8067,2.7854,2.6736,2.56,2.56,2.56,2.56,2.56,2.56,2.56,2.56,2.5425,2.5074,2.4431,2.3599,2.2922,2.2708,2.1968,2.1384,2.1384,2.088,2.0491,2.0494,2.0496,2.0494,2.0506,2.0507,2.05,2.0505,2.0497,2.0509,2.05,2.0499,2.0499,2.0499,2.0499,2.0499,2.0499,1.9633,1.9198,1.9198,1.8107,1.7566,1.7575,1.7549,1.7521,3.531,3.7243,3.8574,3.8097,3.7799,3.704,3.4875,3.2923,3.0805,2.8146,2.6695,2.5312,2.3461,2.4121,2.5114,0.0,0.0,0.0,3.1606,3.1836,3.2435,0.0,3.3604,0.0,3.3715,3.4138,3.4407,0.0,3.5114,3.5496,3.5461,3.5492,3.5745,3.6233,3.5733,3.5689,3.6141,3.5652,3.5381,3.5354,3.5297,3.4837,3.4021,3.3153,3.231,3.1513,0.0,3.0194,3.019,3.0195,3.0199,3.0117,2.9272,2.904,2.9008,2.7677,2.7266,2.7317,2.6746,2.7448,2.8593,2.8616,2.9504,3.0566,3.0597,2.9702,2.8669,2.8669,2.7711,2.6696,2.6696,2.643,2.6164,2.6164,2.5873,2.56,2.56,2.56,2.5464,2.4977,2.4162,2.356,2.356,2.2842,2.228,2.228,2.1558,2.1022,2.1025,2.0718,2.049,2.0494,2.0505,2.0508,2.05,2.051,2.0499,2.0509,2.0502,2.0499,2.0499,2.0499,2.0499,2.0499,2.0027,1.977,1.977,1.8901,1.8463,1.8479,1.848,1.8459,3.7824,3.8639,3.8626,3.8509,3.7222,3.5523,3.3733,3.0833,2.804,2.6342,2.4771,2.3423,2.2543,2.3757,2.4906,2.5038,0.0,2.996,3.1151,3.1945,3.3033,3.4779,3.431,3.4157,3.4914,3.5076,3.5124,3.5124,3.547,3.555,3.5278,3.5314,3.5353,3.5353,3.53,3.5239,3.5176,3.5231,3.5269,3.5249,3.5189,3.4733,3.394,3.3184,3.2325,3.1413,3.0664,3.0285,3.0194,3.0204,3.0208,3.0112,2.9242,2.8533,2.7908,2.6927,2.6193,2.5803,2.6439,2.7226,2.7972,2.8035,2.9163,3.0515,3.0562,3.0025,2.9385,2.9385,2.8762,2.8099,2.8099,2.7493,2.6906,2.6906,2.6224,2.56,2.56,2.56,2.56,2.56,2.4996,2.447,2.447,2.3754,2.3174,2.3174,2.2337,2.1694,2.1694,2.0997,2.0499,2.0509,2.0491,2.0504,2.0508,2.0501,2.0509,2.0501,2.0509,2.0501,2.05,2.0499,2.0499,2.0499,2.0499,2.0499,2.0499,1.9732,1.9377,1.9376,1.9361,1.9367,3.8203,3.836,3.8215,3.7549,3.612,3.4252,3.1915,2.9391,0.0,2.5314,2.4236,2.3356,2.2477,2.3644,2.496,2.5686,2.6852,2.8676,3.1539,3.2161,3.2935,0.0,3.4701,3.4684,3.4908,3.5474,0.0,0.0,3.6599,3.6478,3.5113,3.5058,3.5066,3.5066,3.5069,3.5057,3.5032,3.506,3.5019,3.4973,3.4964,3.4523,3.3745,3.3593,3.2697,3.1258,3.1152,0.0,3.0121,3.0183,3.0208,3.0112,2.9242,2.924,2.9576,2.8036,2.7835,2.8267,2.7684,2.806,2.8809,2.8863,2.9616,3.049,3.0514,2.9965,2.9319,2.9319,2.8729,2.8099,2.8099,2.7493,2.6906,2.6906,2.6224,2.56,2.56,2.56,2.56,2.56,2.5483,2.5367,2.5367,2.4646,2.4062,2.4062,2.2724,2.1694,2.1694,2.1008,2.0499,2.0496,2.0501,2.0505,2.0503,2.0547,2.0564,2.0494,2.0503,2.0492,2.0505,2.0501,2.0499,2.0499,2.0499,2.0499,2.0499,2.0342,2.0263,2.0263,2.0272,2.0265,3.8738,3.8982,3.8663,3.7411,3.5527,3.3325,3.0842,2.8038,2.5596,2.4321,2.3787,2.3425,2.2991,2.4261,0.0,2.5921,2.7419,2.9194,3.1198,3.2281,3.3332,3.4555,3.4711,3.4896,0.0,3.5744,3.6125,3.6545,3.699,3.692,3.6172,3.5813,3.559,3.5519,3.5154,3.4922,3.4907,3.4936,3.4931,3.4908,3.4908,3.4472,3.3695,3.3695,3.2785,3.1189,3.1231,0.0,2.9992,3.0117,3.0151,3.0059,2.9228,2.9153,2.9377,2.8144,2.7966,2.8339,2.8358,2.8658,2.9082,2.9575,3.005,3.0444,3.0492,3.0255,2.9978,2.9986,2.9722,2.9458,2.9458,2.848,2.7523,2.7523,2.6532,2.56,2.56,2.56,2.56,2.56,2.56,2.56,2.56,2.525,2.4977,2.4977,2.3889,2.3053,2.3053,2.2322,2.1477,2.0594,2.0501,2.0505,2.0505,2.0522,2.0547,2.0544,2.0516,2.0505,2.0499,2.0509,2.0505,2.0509,2.0503,2.05,2.0503,2.05,2.0499,2.0499,2.0494,2.0492,3.8963,3.9326,3.8969,3.7467,3.5221,3.2757,3.0269,2.7242,2.4745,2.3926,2.3626,2.3554,2.3739,2.4828,2.579,0.0,2.7645,2.9312,3.0485,3.1931,3.3226,0.0,3.4663,0.0,3.5841,3.6216,0.0,3.7311,3.7536,3.7427,3.6947,3.6429,3.6,3.5708,3.5136,3.4806,3.4763,3.4801,3.4845,3.4845,3.4845,3.45,3.3895,3.3895,3.3081,3.1658,3.1506,0.0,0.0,3.0087,3.0068,2.9996,2.9359,2.911,2.9037,2.8393,2.8196,2.8312,2.8991,2.9241,2.9372,3.0056,3.0326,3.0414,3.0463,3.0542,3.0595,3.0593,3.0659,3.07,3.07,2.9546,2.8298,2.7929,2.6687,2.56,2.56,2.56,2.56,2.56,2.56,2.56,2.56,2.56,2.56,2.56,2.486,2.4295,2.4295,2.3541,2.2498,2.1184,2.0874,2.0776,2.079,2.0605,2.0522,2.0585,2.0545,2.0518,2.0512,2.0519,2.0494,2.05,2.0509,2.0505,2.0509,2.0503,2.0501,2.0504,2.0501,2.0501,3.8369,3.8426,3.8206,3.7311,3.5221,3.2757,3.0269,2.772,2.5635,2.4764,2.4016,2.372,2.4463,2.4722,2.5083,2.5865,2.6184,2.7161,2.9481,3.0579,3.1719,3.332,0.0,0.0,3.5897,3.7224,0.0,3.8182,3.8926,3.8393,3.6134,3.5957,3.5568,3.4755,3.4653,3.4615,3.4623,3.4615,3.4639,3.4639,3.4639,3.4583,3.4526,3.4526,3.4033,3.3163,3.2486,0.0,0.0,3.0194,2.9928,2.9909,2.9837,2.9803,2.9803,2.9727,2.9764,2.9897,2.9977,3.0043,3.0103,3.0188,3.0308,3.0396,3.0411,3.05,3.0607,3.0595,3.0651,3.07,3.07,2.9995,2.8903,2.737,2.6281,2.56,2.56,2.56,2.56,2.56,2.56,2.56,2.56,2.56,2.56,2.56,2.486,2.4295,2.4295,2.3541,2.2943,2.2787,2.2119,2.1686,2.1678,2.0965,2.05,2.0517,2.0565,2.0585,2.0581,2.0533,2.0506,2.0507,2.05,2.0496,2.0497,2.0509,2.0509,2.0496,2.0509,2.0505,3.7881,3.8676,3.8757,3.7424,3.5221,3.2757,3.0269,2.7776,2.5752,2.4876,2.4445,2.4313,2.4647,2.4704,2.4816,2.5162,2.5654,2.6503,2.7997,2.9345,3.079,3.2424,3.3676,0.0,0.0,0.0,3.7774,3.8257,3.8619,3.7962,3.601,3.6353,3.6241,3.5409,3.487,3.4607,3.4607,3.4607,3.4607,3.4607,3.4607,3.4607,3.4607,3.4607,3.4151,3.3357,3.2539,0.0,0.0,3.0137,2.9836,2.9841,2.9876,2.9893,2.9893,2.9893,2.994,2.998,3.008,3.0117,3.0151,3.0188,3.0246,3.0292,3.0389,3.0463,3.0545,3.058,3.0657,3.0704,3.0697,3.0044,2.9096,2.7911,2.7366,2.7094,2.7094,2.6726,2.638,2.638,2.5951,2.56,2.56,2.56,2.56,2.56,2.5308,2.5074,2.5074,2.4784,2.4552,2.4552,2.3342,2.2515,2.2521,2.1766,2.1281,2.1278,2.0826,2.0562,2.0605,2.0545,2.0522,2.0561,2.0511,2.0525,2.0568,2.0519,2.0495,2.0498,2.0495,2.0494,3.631,3.7662,3.8156,3.671,3.4677,3.2362,2.9889,2.7607,2.5752,2.4876,2.4704,2.4704,2.4704,2.4704,2.4704,2.4704,2.5218,2.5898,2.672,2.8275,2.9833,0.0,0.0,3.4433,0.0,3.681,3.733,3.7906,3.7943,0.0,3.5972,3.6447,3.6372,3.554,3.4926,3.4607,3.4607,3.4607,3.4607,3.4607,3.4607,3.4607,3.4607,3.4607,3.4282,3.3719,3.2856,0.0,0.0,3.0448,2.999,2.9773,2.9815,2.9836,2.9836,2.9836,2.9853,2.9887,2.9979,3.0018,3.0046,3.0102,3.015,3.019,3.0279,3.0381,3.0488,3.0556,3.0627,3.0705,3.0708,3.0051,2.9251,2.8628,2.8296,2.8102,2.8102,2.7658,2.7176,2.6944,2.6399,2.5892,2.5638,2.56,2.56,2.56,2.56,2.56,2.56,2.56,2.56,2.56,2.4502,2.3654,2.3401,2.2624,2.2059,2.1819,2.1212,2.0798,2.0577,2.0526,2.0527,2.0605,2.0542,2.0557,2.0598,2.0549,2.0524,2.0526,2.0522,2.0519,3.3207,3.4671,3.5728,3.4851,3.3368,3.1466,2.8974,2.7167,2.5752,2.4876,2.4704,2.4704,2.4704,2.4704,2.4704,2.4704,2.4704,2.5027,2.5884,2.7407,2.8735,0.0,0.0,3.4607,3.4626,3.6128,3.711,3.711,3.711,0.0,3.5935,3.5916,3.5503,3.4645,3.4607,3.4607,3.4607,3.4607,3.4607,3.4607,3.4607,3.4607,3.4607,3.4607,3.4607,3.4532,0.0,0.0,0.0,3.1217,3.041,2.9706,2.9706,2.9711,2.9711,2.9711,2.9747,2.9803,2.9808,2.9845,2.9897,2.9897,2.9984,3.0106,3.0098,3.0241,3.0428,3.0481,3.0591,3.0705,3.0708,3.0051,2.9407,2.9387,2.8725,2.8102,2.8102,2.8083,2.7851,2.704,2.6886,2.6613,2.5757,2.56,2.56,2.56,2.56,2.56,2.56,2.56,2.56,2.56,2.558,2.5211,2.4354,2.3496,2.2656,2.185,2.1789,2.1397,2.0536,2.0491,2.0538,2.0602,2.0605,2.0605,2.0604,2.0598,2.0595,2.0599,2.0591,2.0563,3.1161,3.2478,3.3095,3.2215,3.1157,2.9827,2.7946,2.669,2.5703,2.4865,2.4704,2.4704,2.4704,2.4704,2.4704,2.4704,2.4704,2.4797,0.0,0.0,0.0,2.9537,3.3124,3.5484,0.0,0.0,3.6278,3.6278,3.6278,0.0,3.5058,3.5578,3.5503,3.4626,3.4607,3.4607,3.4607,3.4607,3.4607,3.4607,3.4607,3.4607,3.4607,3.4607,3.4607,0.0,0.0,0.0,0.0,3.1231,3.0429,2.9706,2.9706,2.9706,2.9706,2.9706,2.9706,2.9738,2.9782,2.9802,2.9836,2.9895,2.9936,2.9964,2.9953,3.0148,3.0364,3.0465,3.0556,3.0641,3.0684,3.0507,3.0284,3.0284,3.009,2.9874,2.9874,2.9407,2.8902,2.8651,2.7681,2.6808,2.6535,2.599,2.56,2.56,2.56,2.56,2.56,2.56,2.56,2.56,2.56,2.5483,2.5211,2.4398,2.3785,2.3525,2.2951,2.2246,2.1411,2.1381,2.112,2.0547,2.0538,2.0543,2.0604,2.0605,2.0603,2.0599,2.0597,2.0594,2.7891,2.9144,2.9696,2.9437,2.8731,2.7839,2.6835,2.6001,2.5308,2.4808,2.4704,2.4704,2.4704,2.4704,2.4704,2.4704,2.4704,2.4816,0.0,0.0,0.0,3.0828,0.0,0.0,0.0,3.5409,3.5409,3.5409,0.0,0.0,3.4626,3.5108,3.5315,3.5095,3.4776,3.4607,3.4607,3.4607,3.4607,3.4607,3.4607,3.4607,3.4607,3.4607,3.4607,0.0,0.0,0.0,0.0,3.1231,3.0429,2.9706,2.9706,2.9706,2.9706,2.9706,2.9706,2.9715,2.9751,2.9755,2.9764,2.9816,2.9841,2.987,2.9884,3.0072,3.0283,3.0381,3.0482,3.0576,3.0637,3.0684,3.0703,3.0692,3.0694,3.0694,3.0694,3.0265,2.9797,2.9465,2.8282,2.7252,2.6944,2.6185,2.56,2.56,2.56,2.56,2.56,2.56,2.56,2.56,2.56,2.56,2.56,2.5093,2.4649,2.4327,2.3786,2.3117,2.2282,2.2247,2.2005,2.1497,2.1471,2.1502,2.153,2.1208,2.0898,2.0603,2.0602,2.0599,0.0,2.4924,2.5807,2.6538,2.6161,2.5629,2.5688,2.5174,0.0,2.4696,2.4704,2.4704,2.4704,2.4704,2.4704,2.4704,2.4704,2.5008,0.0,2.7482,0.0,0.0,3.3451,0.0,3.4532,3.4607,3.4607,3.4607,0.0,0.0,3.4607,3.4607,3.4964,3.5784,3.5071,3.472,3.4776,3.4776,3.4776,3.4776,3.472,3.4682,3.4682,3.4626,3.4607,0.0,0.0,0.0,0.0,3.1231,3.0429,2.9706,2.9706,2.9706,2.9706,2.9706,2.9706,2.9706,2.9706,2.9706,2.9706,2.9706,2.9747,2.9789,2.987,3.0023,3.0199,3.0264,3.0381,3.0504,3.058,3.0637,3.0684,3.0708,3.0655,3.0614,3.0614,3.0556,3.0284,2.9465,2.8609,2.7773,2.7021,2.6185,2.56,2.56,2.56,2.56,2.56,2.56,2.56,2.56,2.56,2.56,2.56,2.56,2.525,2.4431,2.4393,2.3992,2.3134,2.3096,2.3085,2.3083,2.3096,2.3109,2.3107,2.2292,2.1482,2.0683,2.0683,2.0642,1.9565,0.0,2.3115,2.3906,2.3956,2.399,0.0,2.4746,2.4698,2.4696,2.4704,2.4704,2.4704,2.4704,2.4704,2.4704,2.4704,2.5008,2.5884,0.0,0.0,3.3151,3.3944,3.44,3.4588,3.4607,3.4607,3.4607,0.0,3.4607,3.4607,3.4607,3.4682,3.4907,3.5353,3.5884,3.6509,3.6504,3.6504,3.6509,3.5884,3.5597,3.5578,3.4907,3.4607,0.0,0.0,3.2907,3.2048,3.1231,3.0429,2.9706,2.9706,2.9706,2.9706,2.9706,2.9706,2.9706,2.9706,2.9706,2.9706,2.9706,2.9701,2.9724,2.9747,2.9889,3.0049,3.0138,3.0244,3.0375,3.0499,3.0569,3.0643,3.0685,3.0187,2.9719,2.9719,2.9173,2.8647,2.8453,2.7736,2.7118,2.6925,2.6185,2.56,2.56,2.56,2.56,2.56,2.56,2.56,2.56,2.56,2.56,2.56,2.56,2.5503,2.5308,2.5289,2.49,2.4029,2.399,2.3689,2.3046,2.3063,2.3097,2.3108,2.2895,2.2345,2.1517,2.1521,2.1191,1.8289,1.9322,2.0689,2.2263,2.2654,2.2987,2.4259,2.4623,2.4698,2.4696,2.4704,2.4704,2.4704,2.5027,2.5293,2.5293,2.5609,0.0,0.0,0.0,3.1949,3.3245,3.4113,3.4607,0.0,0.0,3.4607,3.4607,0.0,3.4607,3.4607,3.4607,3.4776,3.5184,3.6015,3.6479,3.6541,3.6922,3.711,3.7091,3.6273,3.5897,3.5859,3.462,3.4057,0.0,0.0,3.1987,3.148,3.0673,3.0096,2.9706,2.9706,2.9706,2.9706,2.9706,2.9706,2.9706,2.9706,2.9706,2.9706,2.9706,2.9706,2.9706,2.9706,2.9778,2.9881,2.9987,3.0093,3.0241,3.0372,3.0467,3.0427,3.0128,2.9719,2.9297,2.8898,2.8434,2.8102,2.8102,2.7446,2.6906,2.6906,2.6185,2.56,2.56,2.56,2.56,2.56,2.56,2.56,2.56,2.56,2.56,2.56,2.56,2.56,2.56,2.56,2.5386,2.4918,2.4899,2.467,2.4194,2.423,2.4046,2.3645,2.3646,2.3003,2.1793,2.18,2.1341,1.8351,1.8456,1.908,2.1436,2.2027,2.2475,2.4225,2.4666,2.4702,2.4696,2.4704,2.4741,2.4872,2.5504,0.0,0.0,0.0,0.0,2.9837,3.1354,3.2611,3.347,3.417,0.0,3.4607,3.4607,3.4607,0.0,0.0,3.4607,3.4607,3.4607,3.4945,3.5672,3.6485,3.6654,3.6085,3.7011,3.7486,3.7467,3.6541,3.6085,3.6028,3.4221,3.3395,3.332,0.0,0.0,3.0837,3.0021,2.9706,2.9706,2.9706,2.9706,2.9706,2.9706,2.9706,2.9706,2.9706,2.9706,2.9706,2.9706,2.9706,2.9706,2.9706,2.9706,2.9715,2.984,2.9975,3.0093,3.0228,3.0245,3.0054,2.9436,2.914,2.8791,2.8051,2.7804,2.7709,2.771,2.7171,2.6708,2.669,2.6087,2.5658,2.5776,2.5795,2.5795,2.5795,2.5795,2.5757,2.5619,2.56,2.56,2.56,2.56,2.56,2.56,2.56,2.56,2.56,2.56,2.56,2.56,2.5592,2.5248,2.4508,2.4491,2.3694,2.2175,2.2067,2.1536,1.8097,1.8971,1.989,2.1656,2.2085,2.2533,2.4296,2.4687,2.4696,2.4704,2.4704,2.4933,2.5654,2.5902,2.6222,0.0,0.0,2.9875,0.0,0.0,3.3489,3.4325,0.0,3.4607,3.4607,3.4607,3.4607,0.0,0.0,3.4607,3.4607,3.4607,3.4663,3.4795,3.5634,3.6353,3.6904,3.8444,3.9214,3.9195,3.7655,3.6922,3.6847,3.447,3.3395,3.332,0.0,3.0893,3.0837,3.0021,2.9706,2.9706,2.9706,2.9706,2.9706,2.9706,2.9706,2.9706,2.9706,2.9706,2.9706,2.9706,2.9706,2.9706,2.9706,2.9706,2.9692,2.9715,2.9834,2.9965,3.0095,2.9717,2.9302,2.9293,2.8229,2.7166,2.7027,2.6412,2.5914,2.5968,2.5873,2.58,2.5792,2.5698,2.5854,2.6593,2.669,2.669,2.669,2.669,2.6418,2.5679,2.56,2.56,2.56,2.56,2.56,2.56,2.56,2.56,2.56,2.56,2.56,2.56,2.5603,2.5525,2.5408,2.5404,2.4894,2.3895,2.3229,2.2427,1.8298,1.9423,2.0695,2.1915,2.2514,2.3255,2.5018,2.5394,2.5537,2.5965,2.5706,2.5654,0.0,0.0,2.7209,2.8927,0.0,3.1265,3.1992,3.285,3.3545,0.0,0.0,3.4607,3.4607,3.4607,3.4607,0.0,0.0,0.0,3.5277,3.5296,3.5503,3.5946,3.6761,3.738,3.7737,3.8513,3.8907,3.8888,3.7236,3.6447,3.6391,3.4333,3.3132,3.263,0.0,3.0649,3.0227,2.9852,2.942,2.9002,2.9002,2.8721,2.8406,2.8833,2.9307,2.9706,2.9706,2.9706,2.9706,2.9706,2.9706,2.9706,2.9706,2.9706,2.9706,2.9706,2.9426,2.9168,2.9308,2.8829,2.8202,2.7902,2.7288,2.6635,2.6185,2.5785,2.5518,2.5544,2.5572,2.5601,2.5607,2.5595,2.5892,2.677,2.6906,2.7059,2.7484,2.7542,2.7233,2.6399,2.6302,2.6106,2.5638,2.56,2.56,2.56,2.56,2.56,2.56,2.56,2.56,2.56,2.56,2.56,2.56,2.5607,2.5149,2.4286,2.3924,2.3293,1.8747,1.9879,2.1209,2.2058,2.2831,2.3855,2.5594,2.5988,2.6205,2.7035,2.6702,2.6537,0.0,2.7801,0.0,3.0837,3.1874,3.2461,3.2649,3.3269,3.3676,3.3676,3.4226,3.4607,3.4607,3.4607,3.4607,0.0,0.0,0.0,3.5859,3.6085,3.6466,3.7086,3.7512,3.7825,3.8019,3.7624,3.7737,3.8275,3.6667,3.5897,3.5841,3.4164,3.2925,3.2067,3.1255,3.0448,2.9706,2.9706,2.919,2.8393,2.8393,2.8022,2.7557,2.8167,2.8941,2.9706,2.9706,2.9706,2.9706,2.9706,2.9706,2.9706,2.9706,2.9706,2.9706,2.9706,2.8977,2.8267,2.8596,2.7999,2.7169,2.6691,2.6475,2.6234,2.5601,2.5498,2.5503,2.5506,2.5536,2.5588,2.5596,2.5607,2.5907,2.6768,2.7059,2.7408,2.8024,2.8277,2.8084,2.7272,2.7001,2.6554,2.5677,2.56,2.56,2.56,2.56,2.56,2.56,2.56,2.56,2.56,2.56,2.56,2.56,2.56,2.5254,2.4603,2.4408,2.3966,1.9482,2.0345,2.1184,2.2004,2.2817,2.3858,2.5609,2.5955,2.6155,2.7027,2.7148,2.7355,0.0,2.9575,3.0936,3.186,3.2738,3.3564,3.4325,0.0,3.4513,3.4513,3.4569,3.4607,3.4607,3.4607,3.4607,0.0,0.0,0.0,3.5897,3.6616,3.7029,3.711,3.6423,3.6423,3.718,3.564,3.601,3.8275,3.6667,3.5897,3.5841,3.4164,3.2925,3.2067,3.1255,3.0448,2.9706,2.9706,2.919,2.8393,2.8393,2.8355,2.8318,2.8374,2.8941,2.9706,2.9706,2.9706,2.9706,2.9706,2.9706,2.9706,2.9706,2.9706,2.9706,2.9706,2.8542,2.7506,2.8373,2.7509,2.6416,2.6487,2.5992,2.5474,2.5419,2.5462,2.5499,2.5497,2.5501,2.5535,2.5591,2.5599,2.5897,2.6767,2.7542,2.8024,2.8083,2.8803,2.8979,2.8104,2.7349,2.6554,2.5677,2.56,2.56,2.56,2.56,2.56,2.56,2.56,2.56,2.56,2.56,2.56,2.56,2.56,2.5562,2.5485,2.4685,2.4277,2.0326,2.1134,2.1937,2.275,2.351,2.4543,2.6281,2.7044,2.7787,2.9158,2.941,2.9335,0.0,0.0,3.2275,3.2132,3.3168,3.4134,3.4491,3.4501,3.4478,3.4478,3.4478,3.4478,3.4478,3.4478,3.4495,0.0,0.0,0.0,3.5873,3.6179,3.6579,3.7086,3.6804,3.6785,3.711,3.5978,3.5615,3.5991,3.5371,3.5095,3.5071,3.4433,3.3682,3.285,3.2006,3.118,3.0373,2.9317,2.8397,2.7557,2.6501,2.643,2.6965,2.7463,2.8176,2.8965,2.9514,2.9706,2.9706,2.9706,2.9706,2.9706,2.9706,2.9706,2.9593,2.904,2.8435,2.7927,2.7823,2.6613,2.5605,2.6275,2.6299,2.6319,2.6895,2.6614,2.6244,2.625,2.5836,2.5503,2.5538,2.5534,2.5822,2.6714,2.7104,2.7688,2.8764,2.9193,2.9271,2.894,2.8144,2.7095,2.5716,2.6106,2.6185,2.5638,2.56,2.56,2.56,2.56,2.56,2.56,2.56,2.56,2.56,2.56,2.56,2.558,2.5269,2.5113,2.0818,2.1564,2.2365,2.3174,2.3946,2.5015,2.6967,2.7834,2.8711,3.0415,3.0946,3.0957,3.0443,0.0,0.0,0.0,3.3539,3.4427,3.4467,3.4439,3.4392,3.4392,3.4392,3.4392,3.4392,3.4427,3.4456,0.0,0.0,0.0,0.0,3.6141,3.6541,3.7086,3.6842,3.6729,3.6729,3.5653,3.4808,3.4226,3.395,3.3818,3.3818,3.3818,3.3362,3.2588,3.1987,3.1255,3.0429,2.9279,2.8176,2.7054,2.5665,2.5466,2.609,2.6908,2.7707,2.8524,2.9401,2.9706,2.9706,2.9706,2.9514,2.9288,2.9288,2.9101,2.8786,2.8208,2.8044,2.7944,2.7426,2.6495,2.5867,2.6587,2.6857,2.7123,2.7815,2.7524,2.7104,2.7112,2.6445,2.5896,2.5905,2.5688,2.5705,2.6307,2.6621,2.7323,2.8809,2.9236,2.9393,2.9396,2.887,2.7825,2.6145,2.6554,2.6535,2.5659,2.56,2.56,2.56,2.56,2.56,2.56,2.56,2.56,2.56,2.56,2.56,2.56,2.56,2.56,2.0945,2.1499,2.2304,2.3119,2.3921,2.5146,2.7557,2.8114,2.8628,3.0363,3.1429,3.2027,3.2008,3.2675,0.0,3.3192,3.3876,3.4404,3.4392,3.4392,3.4404,3.4404,3.4404,3.4404,3.4404,3.4467,3.4501,3.4501,3.5357,0.0,0.0,3.6635,3.7073,3.7073,3.6291,3.5873,3.5878,3.4221,3.3395,3.3376,3.2499,3.2086,3.2105,3.2105,3.1668,3.0912,3.0893,3.0448,2.9706,2.9687,2.8706,2.7111,2.6316,2.6,2.609,2.6908,2.7703,2.8505,2.9382,2.9706,2.9706,2.9687,2.9096,2.8393,2.8393,2.7834,2.7213,2.7274,2.7313,2.7315,2.7314,2.7368,2.7445,2.7499,2.7599,2.7744,2.7889,2.7969,2.8016,2.8006,2.7308,2.6731,2.6798,2.6082,2.5506,2.5492,2.6229,2.7101,2.7979,2.8869,2.9396,2.9392,2.9394,2.8724,2.7058,2.6925,2.6554,2.5677,2.5619,2.5619,2.56,2.56,2.56,2.56,2.56,2.56,2.56,2.56,2.56,2.56,2.56,2.56,2.2297,2.2759,2.3264,2.4643,2.5565,2.6631,2.8574,2.9452,3.0485,3.2701,3.3412,3.344,3.287,3.3381,0.0,3.3275,3.3801,3.4275,3.4316,3.4287,3.4257,3.4257,3.4257,3.4257,3.4257,3.4316,3.4374,3.4433,3.4733,3.4939,3.4977,3.5208,3.5339,3.5339,3.5114,3.4714,3.4146,3.3658,3.2813,3.1644,3.1381,3.1555,3.2105,3.2105,3.1973,3.1705,3.1156,3.0762,3.0448,2.926,2.8157,2.7111,2.6316,2.6,2.609,2.6908,2.7355,2.7763,2.9194,2.9706,2.9593,2.8983,2.8618,2.8299,2.7726,2.7388,2.7217,2.7286,2.7713,2.8154,2.8204,2.868,2.9039,2.8533,2.8476,2.8744,2.9508,2.9265,2.8902,2.8913,2.8202,2.7428,2.6832,2.6521,2.614,2.5582,2.5721,2.6191,2.7061,2.8479,2.9179,2.8547,2.9532,2.9569,2.7889,2.8309,2.8299,2.7408,2.7359,2.6822,2.5658,2.56,2.56,2.56,2.56,2.56,2.56,2.56,2.56,2.56,2.56,2.56,2.2921,2.375,2.455,2.5856,2.7013,2.8366,3.0376,3.1218,3.2067,3.3832,3.4233,3.4108,3.3631,3.3905,0.0,3.3659,3.3948,3.4215,3.4251,3.4227,3.4203,3.4203,3.4203,3.4203,3.4203,3.3965,3.3832,3.3885,3.3648,3.3666,3.4017,3.4035,3.4035,3.4035,3.4035,3.3661,3.2855,3.2488,3.1809,3.0816,3.0497,3.0596,3.1074,3.1114,3.1152,3.111,3.0635,3.0429,3.0335,2.934,2.8233,2.7148,2.6668,2.6067,2.5579,2.6424,2.672,2.6908,2.8241,2.8711,2.8612,2.8097,2.7707,2.7355,2.6871,2.672,2.6737,2.6798,2.7643,2.8569,2.867,2.9288,2.9788,2.933,2.9303,2.9552,3.0228,3.0037,2.9742,2.9762,2.9085,2.8356,2.781,2.7443,2.7041,2.6571,2.6784,2.7061,2.7249,2.8493,2.9155,2.8625,2.9476,2.9689,2.8706,2.9106,2.9036,2.8163,2.8094,2.7658,2.6639,2.6586,2.6589,2.6589,2.6589,2.6435,2.6126,2.6435,2.6435,2.6126,2.6435,2.6415,2.3007,2.4422,2.5908,2.68,2.8379,3.0326,3.2587,3.3107,3.333,3.4055,0.0,3.4203,3.4203,3.4203,3.4203,3.4203,3.4203,3.4203,3.4203,3.4203,3.4166,3.4104,3.416,3.4147,3.3999,3.3444,3.3075,3.3,3.2371,3.2315,3.3057,3.3095,3.3095,3.3095,3.3095,3.2702,3.1885,3.1104,3.0664,3.057,2.9852,2.9497,2.9502,2.9631,2.9697,2.9697,2.9701,2.9706,2.9706,2.9706,2.8805,2.7411,2.7336,2.6374,2.5135,2.5936,2.6165,2.6222,2.7035,2.7261,2.7186,2.7111,2.6593,2.6,2.5902,2.594,2.6031,2.6177,2.7359,2.8642,2.8852,2.9393,2.9897,2.9907,3.0007,3.0127,3.0263,3.0345,3.0428,3.0483,2.9902,2.9381,2.9304,2.8649,2.8088,2.801,2.8668,2.8879,2.7991,2.8646,2.9158,2.9066,2.9205,2.9328,2.9383,2.9464,2.9171,2.8373,2.8394,2.8443,2.8445,2.8228,2.81,2.8102,2.8102,2.7735,2.7001,2.7735,2.7715,2.7021,2.7678,2.76,2.298,2.4422,2.6038,2.7483,3.0047,3.2537,3.3683,3.3943,3.3999,3.416,3.4203,3.4203,3.4203,3.4203,3.4203,3.4203,3.4203,3.4203,3.4203,3.4203,3.3962,3.333,3.3813,3.3702,3.2444,3.2793,3.2832,3.2204,3.2059,3.2072,3.2259,3.2259,3.2259,3.2259,3.2259,3.1843,3.0986,3.08,3.0389,2.9759,2.9572,2.9497,2.9497,2.9522,2.9569,2.9622,2.9687,2.9706,2.9706,2.9706,2.95,2.9082,2.8416,2.7923,2.7623,2.7815,2.7482,2.7054,2.7853,2.7726,2.7092,2.6462,2.6146,2.5865,2.5199,2.5466,2.614,2.6851,2.7796,2.8762,2.9481,2.9786,2.9903,2.9893,2.9964,3.0057,3.0188,3.0314,3.0419,3.0481,3.0405,3.0095,2.942,2.913,2.8784,2.8107,2.8165,2.7969,2.7093,2.7735,2.801,2.7333,2.8479,2.9315,2.9319,2.9956,3.0257,3.0062,3.0699,3.1077,3.1083,2.9161,2.809,2.8102,2.8102,2.8005,2.7832,2.8024,2.8005,2.7832,2.7369,2.7079,2.2887,2.4422,2.6279,2.869,3.1156,3.3107,3.3534,3.3924,3.4203,3.4203,3.4203,3.4203,3.4203,3.4203,3.4203,3.4203,3.4203,3.4203,3.4203,3.3869,3.3479,3.3051,3.3033,3.2717,3.1881,3.1859,3.1732,3.1304,3.0945,3.0929,3.1315,3.1334,3.1334,3.1334,3.1334,3.0924,3.0093,3.0075,2.987,2.9446,2.9446,2.9446,2.9446,2.9496,2.954,2.9602,2.9631,2.9659,2.9706,2.9706,2.9457,2.904,2.858,2.8167,2.7834,2.7834,2.7557,2.7204,2.7242,2.6983,2.6499,2.565,2.5387,2.5293,2.4835,2.5571,2.6681,2.7163,2.819,2.9261,2.9775,2.991,2.9926,2.9991,3.0007,3.0023,3.0126,3.0254,3.037,3.0441,3.051,3.0426,2.9998,2.9923,2.9768,2.9304,2.9246,2.8937,2.8062,2.8337,2.8453,2.7984,2.876,2.9478,2.9884,3.0341,3.0754,3.1158,3.1595,3.2035,3.2451,3.1202,3.031,2.9931,2.9537,2.9135,2.8725,2.9135,2.9135,2.8725,2.873,2.8497,2.259,2.4515,2.68,2.968,3.1608,3.2791,3.2791,3.3311,3.3832,3.3962,3.4104,3.4203,3.4203,3.4203,3.4147,3.4017,3.3999,3.3943,3.3813,3.3218,3.2735,3.2605,3.2122,3.1682,3.1403,3.0902,3.053,3.04,2.9773,2.9699,3.0363,3.0381,3.0381,3.0381,3.0381,3.0071,2.9402,2.9402,2.9402,2.9402,2.9402,2.9402,2.9402,2.9451,2.9516,2.9574,2.9583,2.9617,2.9664,2.9687,2.9251,2.8604,2.8618,2.8214,2.7636,2.7636,2.7542,2.7298,2.648,2.6128,2.5865,2.4989,2.4704,2.4722,2.4876,2.5984,2.7232,2.7447,2.8669,2.9919,2.9876,2.9984,3.0099,3.0064,3.0038,3.0042,3.0105,3.0204,3.0321,3.0406,3.0468,3.053,3.0593,3.0598,3.0598,3.0598,3.0598,3.0288,2.9401,2.9304,2.9246,2.9091,2.9207,2.9594,3.0308,3.0501,3.0943,3.1753,3.1947,3.2421,3.3294,3.3318,3.3008,3.2348,3.1387,3.0547,2.9829,3.0415,3.0339,2.9641,3.0206,3.009,2.1903,2.4905,2.8077,2.9253,3.0772,3.1961,0.0,0.0,3.2314,0.0,3.372,3.4203,3.4203,3.4203,3.3962,3.3274,3.3163,3.2921,3.2215,3.2029,3.1701,3.0995,3.144,3.1255,2.9866,3.0251,3.0307,2.9606,2.9457,2.9457,2.955,2.9569,2.9569,2.9569,2.9569,2.9513,2.9402,2.9402,2.9402,2.9402,2.9402,2.9402,2.9402,2.9417,2.9424,2.9428,2.9482,2.9512,2.9522,2.9598,2.9532,2.9443,2.9495,2.9462,2.9368,2.9368,2.889,2.8111,2.7317,2.6574,2.5865,2.4989,2.4704,2.4835,2.5598,2.648,2.7355,2.8049,2.9494,3.0664,2.9919,3.033,3.0769,3.009,3.0014,3.0117,3.0176,3.0256,3.033,3.0455,3.054,3.0593,3.0598,3.0598,3.0598,3.0598,3.0598,3.0288,2.9401,2.9304,2.9014,2.8242,2.884,2.9343,2.9459,3.0172,3.0943,3.1753,3.2507,3.3322,3.4184,3.4238,3.4173,3.4061,3.2525,3.1673,3.1552,3.0973,3.0635,3.0517,2.9874,2.9505,2.2219,2.4334,2.6502,2.8244,2.9564,3.0567,3.1013,3.1478,3.1905,3.2252,3.2605,3.2996,3.3441,3.3534,3.3256,3.2457,3.2327,3.2202,3.1844,3.1403,3.0995,3.0641,3.0511,3.0182,2.9476,2.9718,2.9773,2.9439,2.9402,2.9402,2.9402,2.9402,2.9402,2.9402,2.9402,2.9402,2.9402,2.9402,2.9402,2.9402,2.9402,2.9402,2.9402,2.9402,2.9404,2.9407,2.9433,2.9468,2.9497,2.9535,2.9545,2.955,2.9617,2.9636,2.9641,2.9692,2.9457,2.8946,2.7655,2.6965,2.6533,2.571,2.5429,2.5575,2.6424,2.7223,2.804,2.889,3.0011,3.0974,3.1078,3.1436,3.1585,3.081,3.0737,3.0711,3.0346,3.0273,3.0333,3.0461,3.0545,3.0598,3.0598,3.0598,3.0598,3.0598,3.0598,3.0462,3.0075,3.0039,2.9884,2.9497,2.9807,3.0039,3.0039,3.0385,3.1156,3.2449,3.243,3.2974,3.4336,3.3932,3.3899,3.4385,3.2742,3.1896,3.1902,3.1049,3.0653,3.0695,3.0305,3.0136,2.2163,2.3516,2.4927,2.6744,2.8133,2.9234,0.0,0.0,3.1255,0.0,3.1496,3.1682,3.2271,3.255,3.242,3.1626,3.1496,3.1422,3.1218,3.066,3.0294,3.0294,2.9773,2.9402,2.9402,2.9402,2.9402,2.9402,2.9402,2.9402,2.9402,2.9402,2.9402,2.9402,2.9402,2.9402,2.9402,2.9402,2.9402,2.9402,2.9402,2.9402,2.9402,2.9402,2.9399,2.9406,2.9406,2.9436,2.9481,2.9468,2.9472,2.9477,2.9545,2.9564,2.9588,2.9631,2.9655,2.9476,2.8013,2.7365,2.7092,2.6499,2.6165,2.6222,2.7453,2.8251,2.8941,3.0002,3.0898,3.1635,3.2064,3.2391,3.2378,3.1421,3.1294,3.1209,3.0478,3.0336,3.0382,3.0474,3.055,3.0598,3.0598,3.0598,3.0598,3.0598,3.0772,3.0907,3.0907,3.1098,3.1234,3.1234,3.1234,3.1234,3.1234,3.1234,3.1852,3.3342,3.2604,3.28,3.4336,3.3554,3.3416,3.4062,3.2839,3.2204,3.2191,3.1123,3.0629,3.0671,3.0696,3.0709,2.1109,2.2662,2.4537,2.4667,2.6447,2.8189,0.0,0.0,2.9736,3.0511,3.066,3.0679,3.0716,3.1348,3.1608,3.079,3.066,3.04,2.9625,2.9495,2.9457,2.9457,2.9439,2.9402,2.9402,2.9402,2.9402,2.9402,2.9402,2.9402,2.9402,2.9402,2.9402,2.9402,2.9402,2.9402,2.9402,2.9402,2.9402,2.9402,2.9402,2.9402,2.9402,2.9402,2.9402,2.9407,2.9407,2.9407,2.9412,2.9411,2.9407,2.9412,2.9477,2.9502,2.9502,2.9507,2.955,2.9471,2.8638,2.7845,2.7186,2.7148,2.6631,2.6447,2.8842,2.9593,2.9969,3.1523,3.2611,3.3094,3.2316,3.2767,3.3053,3.1565,3.1301,3.1211,3.0547,3.0447,3.0486,3.0491,3.0557,3.0598,3.0598,3.0598,3.0598,3.0598,3.1253,3.1734,3.1734,3.2469,3.2972,3.2972,3.2972,3.2972,3.2972,3.2972,3.3361,3.4275,3.3516,3.3438,3.4355,3.3554,3.3124,3.3165,3.309,3.3045,3.3033,3.1391,3.0608,3.0608,3.0669,3.07,2.2274,2.2984,2.3921,2.4997,2.5926,2.6837,2.7854,2.8337,2.8802,2.9662,2.9829,2.9829,2.9829,3.0493,3.0772,2.9959,2.9829,2.9736,2.9439,2.9402,2.9402,2.9402,2.9402,2.9402,2.9402,2.9402,2.9402,2.9402,2.9402,2.9402,2.9402,2.9402,2.9402,2.9402,2.9402,2.9402,2.9402,2.9402,2.9402,2.9402,2.9402,2.9402,2.9402,2.9402,2.9402,2.9402,2.9402,2.9402,2.9402,2.9399,2.9404,2.9409,2.9436,2.9438,2.9443,2.9482,2.9526,2.9433,2.8662,2.8216,2.7972,2.7975,2.8143,2.864,3.0035,3.0828,3.1485,3.2606,3.3151,3.3451,3.3644,3.3983,3.4039,3.3145,3.2214,3.1463,3.1283,3.0846,3.0496,3.0496,3.0559,3.0752,3.1272,3.1369,3.1562,3.2121,3.2449,3.2623,3.2623,3.2914,3.3104,3.3104,3.3104,3.3104,3.3104,3.3104,3.3477,3.4336,3.3574,3.3496,3.4355,3.3554,3.3358,3.3924,3.2839,3.2532,3.31,3.1942,3.1395,3.142,3.0888,3.0655,2.2739,2.2998,2.3467,0.0,2.5271,2.5982,2.7055,0.0,2.8263,2.8839,2.9197,2.9402,2.9402,2.9848,3.0015,2.9495,2.9402,2.9402,2.9402,2.9402,2.9402,2.9402,2.9402,2.9402,2.9402,2.9402,2.9402,2.9402,2.9402,0.0,2.9402,2.9402,2.9402,2.9402,2.9402,2.9402,2.9402,2.9402,2.9532,2.9792,2.9532,2.9532,2.9792,2.9513,2.9402,2.9402,2.9402,2.9402,2.9402,2.9402,2.9402,2.9402,2.9395,2.9401,2.9411,2.9451,2.9476,2.9398,2.8909,2.8587,2.8432,2.8717,2.9003,2.9509,3.0898,3.1687,3.233,3.3475,3.3794,3.3926,3.4457,3.4469,3.4238,3.3944,3.2905,3.1959,3.1743,3.1091,3.053,3.053,3.0564,3.0868,3.1657,3.1792,3.2101,3.2969,3.3358,3.3535,3.3535,3.3786,3.398,3.398,3.398,3.398,3.398,3.398,3.4212,3.4797,3.4021,3.3808,3.4374,3.3554,3.3378,3.3944,3.3112,3.2955,3.3535,3.2375,3.1688,3.1455,3.1445,3.1487,0.0,0.0,0.0,0.0,0.0,0.0,2.5685,0.0,2.804,2.8096,2.8765,2.9365,2.9402,2.9402,2.9402,2.9402,2.9402,2.9402,2.9402,2.9402,2.9402,2.9402,2.9402,2.9402,2.9402,2.9402,2.9402,2.9402,2.9402,2.9402,2.9402,2.9402,2.9402,2.9402,2.9402,2.9402,2.9439,2.9439,2.9848,3.0623,2.9848,2.9866,3.0567,2.9792,2.942,2.9402,2.9402,2.9402,2.9402,2.9402,2.9402,2.9402,2.9402,2.9402,2.9402,2.9402,2.9409,2.9402,2.9402,2.8973,2.8559,2.9336,2.9083,2.8918,3.1367,3.2123,3.248,3.4138,3.4607,3.4607,3.4607,3.412,3.3668,3.3799,3.3322,3.2633,3.1922,3.119,3.0656,3.0617,3.0598,3.0868,3.1695,3.1831,3.214,3.3049,3.3905,3.4432,3.4432,3.5184,3.5706,3.5706,3.5706,3.5706,3.5706,3.5706,3.5706,3.5706,3.4913,3.4432,3.4432,3.3632,3.3184,3.3184,3.3982,3.4394,3.4355,3.2687,3.1485,3.0752,3.2343,3.3122,2.3878,0.0,0.0,0.0,0.0,0.0,0.0,0.0,0.0,2.7854,2.8282,2.8653,2.929,2.9402,2.9402,2.9402,2.9402,2.9402,2.9402,2.9402,2.9402,2.9402,2.9402,2.9402,2.9402,2.9402,2.9402,0.0,2.9402,2.9402,2.9402,2.9402,2.9402,2.9402,2.9402,2.968,3.0251,3.0275,3.066,3.1478,3.1236,3.0957,3.0586,3.0363,2.9959,2.9402,2.9402,2.9402,2.9402,2.9402,2.9402,2.9402,2.9402,2.9402,2.9402,2.9402,2.9407,2.9404,2.9392,2.9273,2.9178,2.9446,2.9794,3.0376,3.1693,3.2543,3.3263,3.4307,3.4607,3.4607,3.4607,3.4502,3.4435,3.4567,3.4071,3.3589,3.3515,3.2931,3.2059,3.0844,3.0598,3.1062,3.2488,3.2739,3.3242,3.4756,3.5184,3.5339,3.5339,3.5552,3.5706,3.5706,3.5706,3.5706,3.5706,3.5706,3.5706,3.5706,3.5474,3.5339,3.5339,3.5104,3.4988,3.4988,3.4604,3.4082,3.3458,3.3615,3.3579,3.3349,3.3176,3.311,0.0,0.0,0.0,0.0,0.0,0.0,2.5094,2.5462,2.5963,0.0,2.7371,2.7743,2.8268,2.8361,2.8472,2.8802,2.8863,2.8974,2.9346,2.9402,2.9402,2.9402,2.9402,2.9402,2.9402,2.9402,2.9402,2.9402,2.9402,2.9402,2.9402,2.9402,2.9402,2.9402,2.9736,3.0126,3.0604,3.092,3.1496,3.229,3.1961,3.1738,3.1589,3.0902,3.053,3.0381,3.0052,3.0089,3.0387,3.0034,2.9699,2.9402,2.9402,2.9402,2.9402,2.9402,2.9402,2.9407,2.9409,2.9411,2.9412,2.9448,3.0058,3.093,3.1831,3.2681,3.3532,3.4371,3.4607,3.4607,3.4607,3.465,3.4728,3.4826,3.4625,3.4349,3.4164,3.3821,3.3175,3.1898,3.135,3.164,3.3342,3.3339,3.3687,3.5436,3.5706,3.5706,3.5706,3.5706,3.5706,3.5706,3.5706,3.5706,3.5706,3.5706,3.5706,3.5706,3.5706,3.5706,3.5706,3.5706,3.5706,3.5706,3.5204,3.4507,3.3632,3.4159,3.4394,3.4374,3.3512,3.3284,0.0,0.0,0.0,0.0,0.0,0.0,2.45,2.5057,2.5592,0.0,0.0,2.6795,2.6869,2.6907,2.713,2.7854,2.7966,2.83,2.9253,2.9402,2.9402,2.9402,2.9402,2.9402,2.9402,2.9402,2.9402,2.9402,2.9402,2.9402,2.9402,2.9402,2.9439,2.9532,3.0238,3.0697,3.0864,3.1589,3.2345,3.3126,3.2407,3.2382,3.294,3.1515,3.1218,3.1756,3.1032,3.1143,3.1738,3.092,3.0182,2.9513,2.9439,2.9402,2.9402,2.9402,2.9402,2.9402,2.9402,2.9404,2.9397,2.9397,2.9997,3.0869,3.1805,3.2649,3.3489,3.4347,3.4607,3.4607,3.4607,3.4645,3.4708,3.4772,3.4931,3.4895,3.4271,3.4225,3.4141,3.3503,3.2599,3.2471,3.412,3.377,3.3806,3.5455,3.5706,3.5706,3.5706,3.5706,3.5706,3.5706,3.5706,3.5706,3.5706,3.5706,3.5706,3.5706,3.5706,3.5706,3.5706,3.5706,3.5706,3.5706,3.561,3.5223,3.4549,3.4549,3.449,3.4374,3.3709,3.3748,0.0,0.0,0.0,0.0,0.0,0.0,2.45,2.4611,2.4927,0.0,2.5815,2.6131,2.6781,2.6907,2.6944,2.7111,2.713,2.765,2.9197,2.9402,2.9402,2.9402,2.9402,2.9402,2.9402,2.9402,2.9402,2.9402,2.9402,2.9402,2.9402,2.9402,2.9699,3.035,3.0511,3.1218,3.2512,3.2698,3.3163,3.3962,3.3813,3.3479,3.2996,3.2661,3.2258,3.1794,3.1626,3.1645,3.1738,3.092,3.0511,3.0307,2.9643,2.9402,2.9402,2.9402,2.9402,2.9402,2.9402,2.9407,2.9393,2.9393,2.9983,3.0863,3.1691,3.2572,3.3489,3.4347,3.4607,3.4607,3.4607,3.4618,3.4639,3.4708,3.4826,3.4921,3.4895,3.5032,3.5154,3.5128,3.389,3.3184,3.4217,3.4256,3.4507,3.5532,3.5706,3.5706,3.5706,3.5706,3.5706,3.5706,3.5706,3.5706,3.5706,3.5706,3.5706,3.5706,3.5706,3.5706,3.5706,3.5706,3.5706,3.5706,3.501,3.4913,3.5455,3.5455,3.5087,3.4413,3.4952,3.4913,0.0,0.0,0.0,2.5206,0.0,0.0,0.0,2.45,2.4611,2.502,2.5094,2.522,2.5629,0.0,2.5833,2.6242,2.6298,2.6744,2.7989,2.8156,2.8305,2.869,2.8746,2.8918,2.9365,2.9402,2.9402,2.9402,2.9402,2.9402,2.9402,2.9773,3.0177,3.0586,3.1385,3.2178,3.2996,3.3404,3.3794,3.4203,3.4203,3.3999,3.3571,3.3181,3.2996,3.2977,3.2568,3.2624,3.2921,3.2128,3.1552,3.1087,2.9866,2.9402,2.9402,2.9402,2.9402,2.9402,2.9402,2.9402,2.9402,2.9402,2.9975,3.0815,3.1653,3.2841,3.3995,3.4421,3.4567,3.4607,3.4607,3.4607,3.4623,3.4682,3.4775,3.4893,3.5023,3.5178,3.5335,3.5475,3.4888,3.4508,3.4966,3.4684,3.4703,3.5571,3.5706,3.5706,3.5706,3.5706,3.5706,3.5706,3.5706,3.5706,3.5706,3.5706,3.5706,3.5706,3.5706,3.5706,3.5706,3.5706,3.5706,3.5706,3.5262,3.5049,3.5049,3.5494,3.5242,3.4413,3.4855,3.4819,0.0,0.0,0.0,0.0,0.0,2.5536,0.0,0.0,0.0,2.45,2.45,0.0,0.0,0.0,0.0,0.0,0.0,0.0,0.0,2.6447,0.0,2.7743,2.7873,2.8207,2.9067,2.9309,2.9402,2.9402,2.9402,2.9476,2.9625,3.0257,3.0734,3.105,3.2314,3.307,3.3237,3.3887,3.4203,3.4203,3.4203,3.4203,3.4185,3.3534,3.359,3.416,3.3516,3.3609,3.4147,3.333,3.2537,3.1663,3.0201,2.9532,2.9402,2.9402,2.9402,2.9402,2.9402,2.9402,2.9439,2.9588,3.0182,3.0987,3.1866,3.311,3.4267,3.4458,3.4534,3.4572,3.4607,3.4607,3.4618,3.4666,3.4737,3.4819,3.4946,3.5078,3.5209,3.5342,3.5475,3.5591,3.5665,3.5104,3.4894,3.559,3.5706,3.5706,3.5706,3.5706,3.5706,3.5706,3.5706,3.5706,3.5706,3.5706,3.5706,3.5706,3.5706,3.5706,3.5706,3.5706,3.5706,3.5706,3.5706,3.5358,3.4645,3.5358,3.5242,3.4394,3.4568,3.4568,0.0,0.0,0.0,0.0,2.6224,0.0,0.0,0.0,2.45,2.45,0.0,0.0,0.0,0.0,0.0,0.0,0.0,0.0,2.476,2.4778,2.5336,2.6856,2.7041,2.7352,2.817,2.8956,2.9402,2.9402,2.9402,2.9718,3.0418,3.0549,3.1255,3.268,3.2903,3.333,3.4055,3.4147,3.4203,3.4203,3.4203,3.4203,3.4203,3.411,3.411,3.4179,3.4104,3.4129,3.4147,3.333,3.2537,3.1719,3.0809,3.0034,2.9402,2.9402,2.9402,2.9402,2.9402,2.9402,2.9513,3.0233,3.1013,3.1823,3.2704,3.3099,3.3437,3.4267,3.4506,3.4523,3.4577,3.4607,3.4607,3.4618,3.466,3.4734,3.4807,3.4931,3.5082,3.5273,3.5372,3.5453,3.5589,3.5574,3.559,3.5687,3.5706,3.5706,3.5706,3.5706,3.5706,3.5706,3.5706,3.5706,3.5706,3.5706,3.5706,3.5706,3.5706,3.5706,3.5706,3.5706,3.5706,3.5706,3.5706,3.5648,3.5552,3.5648,3.5242,3.4413,3.5184,3.5146,0.0,0.0,0.0,0.0,0.0,0.0,2.5908,0.0,2.5057,0.0,0.0,0.0,0.0,0.0,0.0,0.0,2.45,0.0,0.0,0.0,2.4927,0.0,0.0,0.0,2.7984,2.89,2.9402,2.9402,2.9402,2.9755,3.0567,3.1032,3.1831,3.2958,3.3441,3.3869,3.4203,3.4203,3.4203,3.4203,3.4203,3.4203,3.4203,3.4203,3.4203,3.4203,3.4203,3.4203,3.4166,3.385,3.294,3.1775,3.144,3.0511,2.9402,2.9402,2.9402,2.9402,2.9402,2.9718,3.014,3.0493,3.1143,3.1775,3.1678,3.232,3.3179,3.3584,3.4048,3.4461,3.4523,3.4539,3.4545,3.4602,3.4623,3.4666,3.4725,3.482,3.4927,3.5091,3.5209,3.5331,3.5463,3.5562,3.5668,3.5684,3.5706,3.5706,3.5706,3.5706,3.5706,3.5706,3.5706,3.5706,3.5706,3.5706,3.5706,3.5706,3.5706,3.5706,3.5706,3.5706,3.5706,3.5706,3.5706,3.5706,3.5706,3.5706,3.5513,3.5165,3.5532,3.5494,3.0164,0.0,0.0,0.0,0.0,0.0,0.0,0.0,0.0,0.0,0.0,0.0,0.0,0.0,0.0,0.0,0.0,2.45,0.0,0.0,0.0,0.0,0.0,0.0,0.0,2.8412,2.9049,2.9049,2.9253,2.9848,3.0864,3.1478,3.2271,3.3293,3.3906,3.4203,3.4203,3.4203,3.4203,3.4203,3.4203,3.4203,3.4203,3.4203,3.4203,3.4203,3.4203,3.4203,3.4203,3.4203,3.3256,3.1794,3.1794,3.0827,2.9402,2.9402,2.9402,2.9402,2.9402,3.0071,3.092,3.092,3.1478,3.2017,3.144,3.21,3.3126,3.3367,3.3886,3.4399,3.4461,3.4489,3.4512,3.4556,3.4596,3.4623,3.4682,3.4758,3.4839,3.4955,3.5076,3.523,3.535,3.5499,3.562,3.5671,3.5682,3.5706,3.5706,3.5706,3.5706,3.5706,3.5706,3.5706,3.5706,3.5706,3.5706,3.5706,3.5706,3.5706,3.5706,3.5706,3.5706,3.5706,3.5706,3.5706,3.5706,3.5706,3.5706,3.5706,3.5706,3.5706,0.0,0.0,0.0,2.9569,0.0,0.0,0.0,0.0,2.6851,0.0,0.0,0.0,0.0,0.0,0.0,0.0,0.0,0.0,0.0,0.0,0.0,0.0,0.0,0.0,0.0,2.7204,2.8133,0.0,2.8918,3.0089,3.1682,3.1794,3.2537,3.411,3.4179,3.4203,3.4203,3.4203,3.4203,3.4203,3.4203,3.4203,3.4203,3.4203,3.4203,3.4203,3.4203,3.4203,3.4203,3.4203,3.3256,3.1794,3.1794,3.0827,2.9402,2.9402,2.9402,2.9402,2.9402,3.0437,3.1756,3.1756,3.2308,3.2958,3.2921,3.2958,3.318,3.402,3.428,3.4316,3.4399,3.4456,3.4501,3.4501,3.4545,3.4623,3.4682,3.4758,3.4824,3.4889,3.5009,3.5147,3.527,3.5463,3.561,3.5601,3.5668,3.5706,3.5706,3.5706,3.5706,3.5706,3.5706,3.5706,3.5706,3.5706,3.5706,3.5706,3.5706,3.5706,3.5706,3.5706,3.5706,3.5706,3.5706,3.5706,3.5706,3.5706,3.5706,3.5706,3.5706,3.5706,0.0,0.0,3.1199,3.04,0.0,0.0,0.0,0.0,0.0,0.0,0.0,0.0,0.0,0.0,0.0,0.0,0.0,0.0,0.0,0.0,0.0,0.0,0.0,0.0,0.0,0.0,0.0,0.0,2.8374,0.0,3.092,3.1515,3.2295,3.3367,3.3924,3.4203,3.4203,3.4203,3.4203,3.4203,3.4203,3.4203,3.4203,3.4203,3.4203,3.4203,3.4203,3.4203,3.4203,3.4203,3.3256,3.1794,3.1794,3.1143,3.0196,3.0196,3.0196,3.035,3.1403,3.2147,3.2587,3.2587,3.2773,3.2903,3.2364,3.2587,3.3057,3.3353,3.3824,3.4251,3.431,3.4345,3.4374,3.4414,3.4489,3.4534,3.4556,3.4655,3.4754,3.4817,3.4978,3.5139,3.5289,3.5429,3.5544,3.5595,3.5668,3.5706,3.5706,3.5706,3.5706,3.5706,3.5706,3.5706,3.5706,3.5706,3.5706,3.5706,3.5706,3.5706,3.5706,3.6207,3.6497,3.6497,3.7055,3.7074,3.6497,3.6497,3.6226,3.5706,3.5706,3.5706,3.2457,3.224,0.0,3.1236,3.0809,0.0,2.9248,0.0,0.0,0.0,0.0,0.0,0.0,0.0,0.0,0.0,0.0,0.0,0.0,2.45,0.0,0.0,0.0,0.0,0.0,0.0,0.0,2.7613,2.7947,2.8709,0.0,3.1218,3.2165,3.2977,3.3776,3.4203,3.4203,3.4203,3.4203,3.4203,3.4203,3.4203,3.4203,3.4203,3.4203,3.4203,3.4203,3.4203,3.4203,3.4203,3.3423,3.224,3.224,3.1738,3.0995,3.0716,3.0772,3.1218,3.2531,3.2996,3.3051,3.333,3.3423,3.333,3.281,3.3014,3.3423,3.3423,3.3794,3.4209,3.4251,3.4281,3.4305,3.4345,3.4427,3.4473,3.4495,3.4612,3.4723,3.4792,3.4969,3.5139,3.5289,3.5418,3.5528,3.558,3.5662,3.5706,3.5706,3.5706,3.5706,3.5706,3.5706,3.5706,3.5706,3.5706,3.5706,3.5706,3.5706,3.5706,3.5706,3.6477,3.69,3.69,3.7751,3.777,3.69,3.69,3.6497,3.5706,3.5706,3.5706]}]]